[[{"header":{"parameterUnit":"m.s-1","parameterCategory":1,"la1":31.0,"la2":29.5877,"lo1":-88.7671,"lo2":-86.6584,"dy":0.0162,"dx":0.0185,"nx":115,"ny":88,"refTime":"2024-04-14T06:00:00:Z","depth":0,"parameterNumber":2,"parameterNumberName":"U-component_of_WINDS"},"data":[0.0,0.0,0.0,0.0,0.0,0.0,0.0,0.0,0.0,0.0,0.0,0.0,0.0,0.0,0.0,0.0,0.0,0.0,0.0,0.0,0.0,0.0,0.0,0.0,0.0,0.0,0.0,0.0,0.0,0.0,0.0,0.0,0.0,0.0,0.0,0.0,0.0,0.0,0.0,0.0,0.0,0.0,0.0,0.0,0.0,0.0,0.0,0.0,0.0,0.0,0.0,0.0,0.0,0.0,0.0,0.0,0.0,0.0,0.0,0.0,0.0,0.0,0.0,0.0,0.0,0.0,0.0,0.0,0.0,0.0,0.0,0.0,0.0,0.0,0.0,0.0,0.0,0.0,0.0,0.0,0.0,0.0,0.0,0.0,0.0,0.0,0.0,0.0,0.0,0.0,0.0,0.0,0.0,0.0,0.0,0.0,0.0,0.0,0.0,0.0,0.0,0.0,0.0,0.0,0.0,0.0,0.0,0.0,0.0,0.0,0.0,0.0,0.0,0.0,0.0,0.0,0.0,0.0,0.0,0.0,0.0,0.0,0.0,0.0,0.0,0.0,0.0,0.0,0.0,0.0,0.0,0.0,0.0,0.0,0.0,0.0,0.0,0.0,0.0,0.0,0.0,0.0,0.0,0.0,0.0,0.0,0.0,0.0,0.0,0.0,0.0,0.0,0.0,0.0,0.0,0.0,0.0,0.0,0.0,0.0,0.0,0.0,0.0,0.0,0.0,0.0,0.0,0.0,0.0,0.0,0.0,0.0,0.0,0.0,0.0,0.0,0.0,0.0,0.0,0.0,0.0,0.0,0.0,0.0,0.0,0.0,0.0,0.0,0.0,0.0,0.0,0.0,0.0,0.0,0.0,0.0,0.0,0.0,0.0,0.0,0.0,0.0,0.0,0.0,0.0,0.0,0.0,0.0,0.0,0.0,0.0,0.0,0.0,0.0,0.0,0.0,0.0,0.0,0.0,0.0,0.0,0.0,0.0,0.0,0.0,0.0,0.0,0.0,0.0,0.0,0.0,0.0,0.0,0.0,0.0,0.0,0.0,0.0,0.0,0.0,0.0,0.0,0.0,0.0,0.0,0.0,0.0,0.0,0.0,0.0,0.0,0.0,0.0,0.0,0.0,0.0,0.0,0.0,0.0,0.0,0.0,0.0,0.0,0.0,0.0,0.0,0.0,0.0,0.0,0.0,0.0,0.0,0.0,0.0,0.0,0.0,0.0,0.0,0.0,0.0,0.0,0.0,0.0,0.0,0.0,0.0,0.0,0.0,0.0,0.0,0.0,0.0,0.0,0.0,0.0,0.0,0.0,0.0,0.0,0.0,0.0,0.0,0.0,0.0,0.0,0.0,0.0,0.0,0.0,0.0,0.0,0.0,0.0,0.0,0.0,0.0,0.0,0.0,0.0,0.0,0.0,0.0,0.0,0.0,0.0,0.0,0.0,0.0,0.0,0.0,0.0,0.0,0.0,0.0,0.0,0.0,0.0,0.0,0.0,0.0,0.0,0.0,0.0,0.0,0.0,0.0,0.0,0.0,0.0,0.0,0.0,0.0,0.0,0.0,0.0,0.0,0.0,0.0,0.0,0.0,0.0,0.0,0.0,0.0,0.0,0.0,0.0,0.0,0.0,0.0,0.0,0.0,0.0,0.0,0.0,0.0,0.0,0.0,0.0,0.0,0.0,0.0,0.0,0.0,0.0,0.0,0.0,0.0,0.0,0.0,0.0,0.0,0.0,0.0,0.0,0.0,0.0,0.0,0.0,0.0,0.0,0.0,0.0,0.0,0.0,0.0,0.0,0.0,0.0,0.0,0.0,0.0,0.0,0.0,0.0,0.0,0.0,0.0,0.0,0.0,0.0,0.0,0.0,0.0,0.0,0.0,0.0,0.0,0.0,0.0,0.0,0.0,0.0,0.0,0.0,0.0,0.0,0.0,0.0,0.0,0.0,0.0,0.0,0.0,0.0,0.0,0.0,0.0,0.0,0.0,0.0,0.0,0.0,0.0,0.0,0.0,0.0,0.0,0.0,0.0,0.0,0.0,0.0,0.0,0.0,0.0,0.0,0.0,0.0,0.0,0.0,0.0,0.0,0.0,0.0,0.0,0.0,0.0,0.0,0.0,0.0,0.0,0.0,0.0,0.0,0.0,0.0,0.0,0.0,0.0,0.0,0.0,0.0,0.0,0.0,0.0,0.0,0.0,0.0,0.0,0.0,0.0,0.0,0.0,0.0,0.0,0.0,0.0,0.0,0.0,0.0,0.0,0.0,0.0,0.0,0.0,0.0,0.0,0.0,0.0,0.0,0.0,0.0,0.0,0.0,0.0,0.0,0.0,0.0,0.0,0.0,0.0,0.0,0.0,0.0,0.0,0.0,0.0,0.0,0.0,0.0,0.0,0.0,0.0,0.0,0.0,0.0,0.0,0.0,0.0,0.0,0.0,0.0,0.0,0.0,0.0,0.0,0.0,0.0,0.0,0.0,0.0,0.0,0.0,0.0,0.0,0.0,0.0,0.0,0.0,0.0,0.0,0.0,0.0,0.0,0.0,0.0,0.0,0.0,0.0,0.0,0.0,0.0,0.0,0.0,0.0,0.0,0.0,0.0,0.0,0.0,0.0,0.0,0.0,0.0,0.0,0.0,0.0,0.0,0.0,0.0,0.0,0.0,0.0,0.0,0.0,0.0,0.0,0.0,0.0,0.0,0.0,0.0,0.0,0.0,0.0,0.0,0.0,0.0,0.0,0.0,0.0,0.0,0.0,0.0,0.0,0.0,0.0,0.0,0.0,0.0,0.0,0.0,0.0,0.0,0.0,0.0,0.0,0.0,0.0,0.0,0.0,0.0,0.0,0.0,0.0,0.0,0.0,0.0,0.0,0.0,0.0,0.0,0.0,0.0,0.0,0.0,0.0,0.0,0.0,0.0,0.0,0.0,0.0,0.0,0.0,0.0,0.0,0.0,0.0,0.0,0.0,0.0,0.0,0.0,0.0,0.0,0.0,0.0,0.0,0.0,0.0,0.0,0.0,0.0,0.0,0.0,0.0,0.0,0.0,0.0,0.0,0.0,0.0,0.0,0.0,0.0,0.0,0.0,0.0,0.0,0.0,0.0,0.0,0.0,0.0,0.0,0.0,0.0,0.0,0.0,0.0,0.0,0.0,0.0,0.0,0.0,0.0,0.0,0.0,0.0,0.0,0.0,0.0,0.0,0.0,0.0,0.0,0.0,0.0,0.0,0.0,0.0,0.0,0.0,0.0,0.0,0.0,0.0,0.0,0.0,0.0,0.0,0.0,0.0,0.0,0.0,0.0,0.0,0.0,0.0,0.0,0.0,0.0,0.0,0.0,0.0,0.0,0.0,0.0,0.0,0.0,0.0,0.0,0.0,0.0,0.0,0.0,0.0,0.0,0.0,0.0,0.0,0.0,0.0,0.0,0.0,0.0,0.0,0.0,0.0,0.0,0.0,0.0,0.0,0.0,0.0,0.0,0.0,0.0,0.0,0.0,0.0,0.0,0.0,0.0,0.0,0.0,0.0,0.0,0.0,0.0,0.0,0.0,0.0,0.0,0.0,0.0,0.0,0.0,0.0,0.0,0.0,0.0,0.0,0.0,0.0,0.0,0.0,0.0,0.0,0.0,0.0,0.0,0.0,0.0,0.0,0.0,0.0,0.0,0.0,0.0,0.0,0.0,0.0,0.0,0.0,0.0,0.0,0.0,0.0,0.0,0.0,0.0,0.0,0.0,0.0,0.0,0.0,0.0,0.0,0.0,0.0,0.0,0.0,0.0,0.0,0.0,0.0,0.0,0.0,0.0,0.0,0.0,0.0,0.0,0.0,0.0,0.0,0.0,0.0,0.0,0.0,0.0,0.0,0.0,0.0,0.0,0.0,0.0,0.0,0.0,0.0,0.0,0.0,0.0,0.0,0.0,0.0,0.0,0.0,0.0,0.0,0.0,0.0,0.0,0.0,0.0,0.0,0.0,0.0,0.0,0.0,0.0,0.0,0.0,0.0,0.0,0.0,0.0,0.0,0.0,0.0,0.0,0.0,0.0,0.0,0.0,0.0,0.0,0.0,0.0,0.0,0.0,0.0,0.0,0.0,0.0,0.0,0.0,0.0,0.0,0.0,0.0,0.0,0.0,0.0,0.0,0.0,0.0,0.0,0.0,0.0,0.0,0.0,0.0,0.0,0.0,0.0,0.0,0.0,0.0,0.0,0.0,0.0,0.0,0.0,0.0,0.0,0.0,0.0,0.0,0.0,0.0,0.0,0.0,-3.0593,0.0,0.0,0.0,0.0,0.0,0.0,0.0,0.0,0.0,0.0,0.0,0.0,0.0,0.0,0.0,0.0,0.0,0.0,0.0,0.0,0.0,0.0,0.0,0.0,0.0,0.0,0.0,0.0,0.0,0.0,0.0,0.0,0.0,0.0,0.0,0.0,0.0,0.0,0.0,0.0,0.0,0.0,0.0,0.0,0.0,0.0,0.0,0.0,0.0,0.0,0.0,0.0,0.0,0.0,0.0,0.0,0.0,0.0,0.0,0.0,0.0,0.0,0.0,0.0,0.0,0.0,0.0,0.0,0.0,0.0,0.0,0.0,0.0,0.0,0.0,0.0,0.0,0.0,0.0,0.0,0.0,0.0,0.0,0.0,0.0,0.0,0.0,0.0,0.0,0.0,0.0,0.0,0.0,0.0,0.0,0.0,0.0,0.0,0.0,0.0,0.0,0.0,0.0,0.0,0.0,0.0,0.0,0.0,0.0,0.0,-3.0425,-3.0458,-3.0485,-3.051,-3.0535,0.0,0.0,0.0,0.0,0.0,0.0,0.0,0.0,0.0,0.0,0.0,0.0,0.0,0.0,0.0,0.0,0.0,0.0,0.0,0.0,0.0,0.0,0.0,0.0,0.0,0.0,0.0,0.0,0.0,0.0,0.0,0.0,0.0,0.0,0.0,0.0,0.0,0.0,0.0,0.0,0.0,0.0,0.0,0.0,0.0,0.0,0.0,0.0,0.0,0.0,0.0,0.0,0.0,0.0,0.0,0.0,0.0,0.0,0.0,0.0,0.0,0.0,0.0,0.0,0.0,0.0,0.0,0.0,0.0,0.0,0.0,0.0,0.0,0.0,0.0,0.0,0.0,0.0,0.0,0.0,0.0,0.0,0.0,0.0,0.0,0.0,0.0,0.0,0.0,0.0,0.0,0.0,0.0,0.0,0.0,0.0,0.0,0.0,0.0,0.0,0.0,0.0,0.0,0.0,0.0,0.0,0.0,0.0,0.0,0.0,0.0,0.0,-3.0463,-3.0399,-3.0216,0.0,0.0,0.0,0.0,0.0,0.0,0.0,0.0,0.0,0.0,0.0,0.0,0.0,0.0,0.0,0.0,0.0,0.0,0.0,0.0,0.0,0.0,0.0,0.0,0.0,0.0,0.0,0.0,0.0,0.0,0.0,0.0,0.0,0.0,0.0,0.0,0.0,0.0,0.0,0.0,0.0,0.0,0.0,0.0,0.0,0.0,0.0,0.0,0.0,0.0,0.0,0.0,0.0,0.0,0.0,0.0,0.0,0.0,0.0,0.0,0.0,0.0,0.0,0.0,0.0,0.0,0.0,0.0,0.0,0.0,0.0,0.0,0.0,0.0,0.0,0.0,0.0,0.0,0.0,0.0,0.0,0.0,0.0,0.0,0.0,0.0,0.0,0.0,0.0,0.0,0.0,0.0,0.0,0.0,0.0,0.0,0.0,0.0,0.0,0.0,0.0,0.0,0.0,0.0,0.0,0.0,0.0,0.0,0.0,0.0,-3.0402,-3.0398,-3.0449,0.0,-2.937,0.0,0.0,0.0,0.0,0.0,0.0,0.0,0.0,0.0,0.0,0.0,0.0,0.0,0.0,0.0,0.0,0.0,0.0,0.0,0.0,0.0,0.0,0.0,0.0,0.0,0.0,0.0,0.0,0.0,0.0,0.0,0.0,0.0,0.0,0.0,0.0,0.0,0.0,0.0,0.0,0.0,0.0,0.0,0.0,0.0,0.0,0.0,0.0,0.0,0.0,0.0,0.0,0.0,0.0,0.0,0.0,0.0,0.0,0.0,0.0,0.0,0.0,0.0,0.0,0.0,0.0,0.0,0.0,0.0,0.0,0.0,0.0,0.0,0.0,0.0,0.0,0.0,0.0,0.0,0.0,0.0,0.0,0.0,0.0,0.0,0.0,0.0,0.0,0.0,0.0,0.0,0.0,0.0,0.0,0.0,0.0,0.0,0.0,0.0,0.0,0.0,0.0,0.0,0.0,0.0,0.0,0.0,0.0,0.0,0.0,-3.0354,-3.0402,-2.9951,-2.9096,0.0,0.0,0.0,0.0,0.0,0.0,0.0,0.0,0.0,0.0,0.0,0.0,0.0,0.0,0.0,0.0,0.0,0.0,0.0,0.0,0.0,0.0,0.0,0.0,0.0,0.0,0.0,0.0,0.0,0.0,0.0,0.0,0.0,0.0,0.0,0.0,0.0,0.0,0.0,0.0,0.0,0.0,0.0,0.0,0.0,0.0,0.0,0.0,0.0,0.0,0.0,0.0,0.0,0.0,0.0,0.0,0.0,0.0,0.0,0.0,0.0,0.0,0.0,0.0,0.0,0.0,0.0,0.0,0.0,0.0,0.0,0.0,0.0,0.0,0.0,0.0,0.0,0.0,0.0,0.0,0.0,0.0,0.0,0.0,0.0,0.0,0.0,0.0,0.0,0.0,0.0,0.0,0.0,0.0,0.0,0.0,0.0,0.0,0.0,0.0,0.0,0.0,0.0,0.0,0.0,0.0,0.0,0.0,0.0,0.0,-2.9965,-3.0002,-3.0004,-2.907,-2.7957,-2.6741,0.0,0.0,0.0,0.0,0.0,0.0,0.0,0.0,0.0,0.0,0.0,0.0,0.0,0.0,0.0,0.0,0.0,0.0,0.0,0.0,0.0,0.0,0.0,0.0,0.0,0.0,0.0,0.0,0.0,0.0,0.0,0.0,0.0,0.0,0.0,0.0,0.0,0.0,0.0,0.0,0.0,0.0,0.0,0.0,0.0,0.0,0.0,0.0,0.0,0.0,0.0,0.0,0.0,0.0,0.0,0.0,0.0,0.0,0.0,0.0,0.0,0.0,0.0,0.0,0.0,0.0,0.0,0.0,0.0,0.0,0.0,0.0,0.0,0.0,0.0,0.0,0.0,0.0,0.0,0.0,0.0,0.0,0.0,0.0,0.0,0.0,0.0,0.0,0.0,0.0,0.0,0.0,0.0,0.0,0.0,0.0,0.0,0.0,0.0,0.0,0.0,0.0,0.0,0.0,0.0,0.0,0.0,0.0,-2.9014,-2.9121,-2.9179,-2.924,-2.7668,-2.6779,0.0,0.0,0.0,0.0,0.0,0.0,0.0,0.0,0.0,0.0,0.0,0.0,0.0,0.0,0.0,0.0,0.0,0.0,0.0,0.0,0.0,0.0,0.0,0.0,0.0,0.0,0.0,0.0,0.0,0.0,0.0,0.0,0.0,0.0,0.0,0.0,0.0,0.0,0.0,0.0,0.0,0.0,0.0,0.0,0.0,0.0,0.0,0.0,0.0,0.0,0.0,0.0,0.0,0.0,0.0,0.0,0.0,0.0,0.0,0.0,0.0,0.0,0.0,0.0,0.0,0.0,0.0,0.0,0.0,0.0,0.0,0.0,0.0,0.0,0.0,0.0,0.0,0.0,0.0,0.0,0.0,0.0,0.0,0.0,0.0,0.0,0.0,0.0,0.0,0.0,0.0,0.0,0.0,0.0,0.0,0.0,0.0,0.0,0.0,0.0,0.0,0.0,0.0,0.0,0.0,0.0,0.0,0.0,0.0,-2.8115,-2.8263,-2.8338,-2.8347,-2.7272,-2.6446,0.0,0.0,0.0,0.0,0.0,0.0,0.0,0.0,0.0,0.0,0.0,0.0,0.0,0.0,0.0,0.0,0.0,0.0,0.0,0.0,0.0,0.0,0.0,0.0,0.0,0.0,0.0,0.0,0.0,0.0,0.0,0.0,0.0,0.0,0.0,0.0,0.0,0.0,0.0,0.0,0.0,0.0,0.0,0.0,0.0,0.0,0.0,0.0,0.0,0.0,0.0,0.0,0.0,0.0,0.0,0.0,0.0,0.0,0.0,0.0,0.0,0.0,0.0,0.0,0.0,0.0,0.0,0.0,0.0,0.0,0.0,0.0,0.0,0.0,0.0,0.0,0.0,0.0,0.0,0.0,0.0,0.0,0.0,0.0,0.0,0.0,0.0,0.0,0.0,0.0,0.0,0.0,0.0,0.0,0.0,0.0,0.0,0.0,0.0,0.0,0.0,0.0,0.0,0.0,0.0,0.0,0.0,0.0,0.0,-2.7693,0.0,-2.8175,-2.7888,-2.7109,-2.6287,0.0,0.0,0.0,0.0,0.0,0.0,0.0,0.0,0.0,0.0,0.0,0.0,0.0,0.0,0.0,0.0,0.0,0.0,0.0,0.0,0.0,0.0,0.0,0.0,0.0,0.0,0.0,0.0,0.0,0.0,0.0,0.0,0.0,0.0,0.0,0.0,0.0,0.0,0.0,0.0,0.0,0.0,0.0,0.0,0.0,0.0,0.0,0.0,0.0,0.0,0.0,0.0,0.0,0.0,0.0,0.0,0.0,0.0,0.0,0.0,0.0,0.0,0.0,0.0,0.0,0.0,0.0,0.0,0.0,0.0,0.0,0.0,0.0,0.0,0.0,0.0,0.0,0.0,0.0,0.0,0.0,0.0,0.0,0.0,0.0,0.0,0.0,0.0,0.0,0.0,0.0,0.0,0.0,0.0,0.0,0.0,0.0,0.0,0.0,0.0,0.0,0.0,0.0,0.0,0.0,0.0,0.0,0.0,-2.6047,-2.7756,-2.8612,-2.8657,-2.7927,-2.7128,-2.6307,0.0,0.0,0.0,0.0,0.0,0.0,0.0,0.0,0.0,0.0,0.0,0.0,0.0,0.0,0.0,0.0,0.0,0.0,0.0,0.0,0.0,0.0,0.0,0.0,0.0,0.0,0.0,0.0,0.0,0.0,0.0,0.0,0.0,0.0,0.0,0.0,0.0,0.0,0.0,0.0,0.0,0.0,0.0,0.0,0.0,0.0,0.0,0.0,0.0,0.0,0.0,0.0,0.0,0.0,0.0,0.0,0.0,0.0,0.0,0.0,0.0,0.0,0.0,0.0,0.0,0.0,0.0,0.0,0.0,0.0,0.0,0.0,0.0,0.0,0.0,0.0,0.0,0.0,0.0,0.0,0.0,0.0,0.0,0.0,0.0,0.0,0.0,0.0,0.0,0.0,0.0,0.0,0.0,0.0,0.0,0.0,0.0,0.0,0.0,0.0,0.0,0.0,0.0,0.0,0.0,0.0,0.0,0.0,0.0,-2.8567,-2.8359,-2.8368,-2.8657,-2.7412,-2.6572,0.0,0.0,0.0,0.0,0.0,0.0,0.0,0.0,0.0,0.0,0.0,0.0,0.0,0.0,0.0,0.0,0.0,0.0,0.0,0.0,0.0,0.0,0.0,0.0,0.0,0.0,0.0,0.0,0.0,0.0,0.0,0.0,0.0,0.0,0.0,0.0,0.0,0.0,0.0,0.0,0.0,0.0,0.0,0.0,0.0,0.0,0.0,0.0,0.0,0.0,0.0,0.0,0.0,0.0,0.0,0.0,0.0,0.0,0.0,0.0,0.0,0.0,0.0,0.0,0.0,0.0,0.0,0.0,0.0,0.0,0.0,0.0,0.0,0.0,0.0,0.0,0.0,0.0,0.0,0.0,0.0,0.0,0.0,0.0,0.0,0.0,0.0,0.0,0.0,0.0,0.0,0.0,0.0,0.0,0.0,0.0,0.0,0.0,0.0,0.0,0.0,0.0,0.0,0.0,0.0,0.0,0.0,0.0,0.0,-2.9385,-2.8975,-2.8843,-2.9088,-2.8149,-2.7325,-2.6722,0.0,0.0,0.0,0.0,0.0,0.0,0.0,0.0,0.0,0.0,0.0,0.0,0.0,0.0,0.0,0.0,0.0,0.0,0.0,0.0,0.0,0.0,0.0,0.0,0.0,0.0,0.0,0.0,0.0,0.0,0.0,0.0,0.0,0.0,0.0,0.0,0.0,0.0,0.0,0.0,0.0,0.0,0.0,0.0,0.0,0.0,0.0,0.0,0.0,0.0,0.0,0.0,0.0,0.0,0.0,0.0,0.0,0.0,0.0,0.0,0.0,0.0,0.0,0.0,0.0,0.0,0.0,0.0,0.0,0.0,0.0,0.0,0.0,0.0,0.0,0.0,0.0,0.0,0.0,0.0,0.0,0.0,0.0,0.0,0.0,0.0,0.0,0.0,0.0,0.0,0.0,0.0,0.0,0.0,0.0,0.0,0.0,0.0,0.0,0.0,0.0,0.0,0.0,0.0,0.0,0.0,0.0,0.0,-3.0188,-3.0267,-2.9913,-2.9223,-2.9168,-2.8429,0.0,0.0,0.0,0.0,0.0,0.0,0.0,0.0,0.0,0.0,0.0,0.0,0.0,0.0,0.0,0.0,0.0,0.0,0.0,0.0,0.0,0.0,0.0,0.0,0.0,0.0,0.0,0.0,0.0,0.0,0.0,0.0,0.0,0.0,0.0,0.0,0.0,0.0,0.0,0.0,0.0,0.0,0.0,0.0,0.0,0.0,0.0,0.0,0.0,0.0,0.0,0.0,0.0,0.0,0.0,0.0,0.0,0.0,0.0,0.0,0.0,0.0,0.0,0.0,0.0,0.0,0.0,0.0,0.0,0.0,0.0,0.0,0.0,0.0,0.0,0.0,0.0,0.0,0.0,0.0,0.0,0.0,0.0,0.0,0.0,0.0,0.0,0.0,0.0,0.0,0.0,0.0,0.0,0.0,0.0,0.0,0.0,0.0,0.0,0.0,0.0,0.0,0.0,0.0,0.0,0.0,0.0,0.0,0.0,-3.0169,-3.026,-3.0215,-3.0058,-2.9495,-2.8694,0.0,0.0,0.0,0.0,0.0,0.0,0.0,0.0,0.0,0.0,0.0,0.0,0.0,0.0,0.0,0.0,0.0,0.0,0.0,0.0,0.0,0.0,0.0,0.0,0.0,0.0,0.0,0.0,0.0,0.0,0.0,0.0,0.0,0.0,0.0,0.0,0.0,0.0,0.0,0.0,0.0,0.0,0.0,0.0,0.0,0.0,0.0,0.0,0.0,0.0,0.0,0.0,0.0,0.0,0.0,0.0,0.0,0.0,0.0,0.0,0.0,0.0,0.0,0.0,0.0,0.0,0.0,0.0,0.0,0.0,0.0,0.0,0.0,0.0,0.0,0.0,0.0,0.0,0.0,0.0,0.0,0.0,0.0,0.0,0.0,0.0,0.0,0.0,0.0,0.0,0.0,0.0,0.0,0.0,0.0,0.0,0.0,0.0,0.0,0.0,0.0,0.0,0.0,0.0,0.0,0.0,0.0,0.0,-2.9618,-3.0147,-3.0241,-3.0318,-3.0367,-2.9935,-2.914,0.0,0.0,0.0,0.0,0.0,0.0,0.0,0.0,0.0,0.0,0.0,0.0,0.0,0.0,0.0,0.0,0.0,0.0,0.0,0.0,0.0,0.0,0.0,0.0,0.0,0.0,0.0,0.0,0.0,0.0,0.0,0.0,0.0,0.0,0.0,0.0,0.0,0.0,0.0,0.0,0.0,0.0,0.0,0.0,0.0,0.0,0.0,0.0,0.0,0.0,0.0,0.0,0.0,0.0,0.0,0.0,0.0,0.0,0.0,0.0,0.0,0.0,0.0,0.0,0.0,0.0,0.0,0.0,0.0,0.0,0.0,0.0,0.0,0.0,0.0,0.0,0.0,0.0,0.0,0.0,0.0,0.0,0.0,0.0,0.0,0.0,0.0,0.0,0.0,0.0,0.0,0.0,0.0,0.0,0.0,0.0,0.0,0.0,0.0,0.0,0.0,0.0,0.0,0.0,0.0,0.0,0.0,0.0,-3.0091,-3.0101,-3.0233,-3.0311,-3.0304,-3.0367,-2.96,0.0,0.0,0.0,0.0,0.0,0.0,0.0,0.0,0.0,0.0,0.0,0.0,0.0,0.0,0.0,0.0,0.0,0.0,0.0,0.0,0.0,0.0,0.0,0.0,0.0,0.0,0.0,0.0,0.0,0.0,0.0,0.0,0.0,0.0,0.0,0.0,0.0,0.0,0.0,0.0,0.0,0.0,0.0,0.0,0.0,0.0,0.0,0.0,0.0,0.0,0.0,0.0,0.0,0.0,0.0,0.0,0.0,0.0,0.0,0.0,0.0,0.0,0.0,0.0,0.0,0.0,0.0,0.0,0.0,0.0,0.0,0.0,0.0,0.0,0.0,0.0,0.0,0.0,0.0,0.0,0.0,0.0,0.0,0.0,0.0,0.0,0.0,0.0,0.0,0.0,0.0,0.0,0.0,0.0,0.0,0.0,0.0,0.0,0.0,0.0,0.0,0.0,0.0,0.0,0.0,0.0,0.0,0.0,-3.0091,-3.0082,-3.0233,-3.0311,-3.031,-3.0373,-2.9619,0.0,0.0,0.0,0.0,0.0,0.0,0.0,0.0,0.0,0.0,0.0,0.0,0.0,0.0,0.0,0.0,0.0,0.0,0.0,0.0,0.0,0.0,0.0,0.0,0.0,0.0,0.0,0.0,0.0,0.0,0.0,0.0,0.0,0.0,0.0,0.0,0.0,0.0,0.0,0.0,0.0,0.0,0.0,0.0,0.0,0.0,0.0,0.0,-2.7972,0.0,0.0,0.0,0.0,0.0,0.0,0.0,0.0,0.0,0.0,0.0,0.0,0.0,0.0,0.0,0.0,0.0,0.0,0.0,0.0,0.0,0.0,0.0,0.0,0.0,0.0,0.0,0.0,0.0,0.0,0.0,0.0,0.0,0.0,0.0,0.0,0.0,0.0,0.0,0.0,0.0,0.0,0.0,0.0,0.0,0.0,0.0,0.0,0.0,0.0,0.0,0.0,0.0,0.0,0.0,0.0,0.0,0.0,0.0,-3.0083,-3.0087,-3.0233,-3.0299,-3.0299,-3.0361,-2.9811,0.0,0.0,0.0,0.0,0.0,0.0,0.0,0.0,0.0,0.0,0.0,0.0,0.0,0.0,0.0,0.0,0.0,0.0,0.0,0.0,0.0,0.0,0.0,0.0,0.0,0.0,0.0,0.0,0.0,0.0,0.0,0.0,0.0,0.0,0.0,0.0,0.0,0.0,0.0,0.0,0.0,0.0,0.0,0.0,0.0,0.0,0.0,0.0,0.0,0.0,0.0,0.0,0.0,0.0,0.0,0.0,0.0,0.0,0.0,0.0,0.0,0.0,0.0,0.0,0.0,0.0,0.0,0.0,0.0,0.0,0.0,0.0,0.0,0.0,0.0,0.0,0.0,0.0,0.0,0.0,0.0,0.0,0.0,0.0,0.0,0.0,0.0,0.0,0.0,0.0,0.0,0.0,0.0,0.0,0.0,0.0,0.0,0.0,0.0,0.0,0.0,0.0,0.0,0.0,0.0,0.0,0.0,-2.9714,-3.0285,-3.0293,-3.0545,-3.0618,-3.0503,-3.0566,-3.0221,-2.9418,0.0,0.0,0.0,0.0,0.0,0.0,0.0,0.0,0.0,0.0,0.0,0.0,0.0,0.0,0.0,0.0,0.0,0.0,0.0,0.0,0.0,0.0,0.0,0.0,0.0,0.0,0.0,0.0,0.0,0.0,0.0,0.0,0.0,0.0,0.0,0.0,0.0,0.0,-2.5662,-2.6281,0.0,0.0,0.0,0.0,0.0,0.0,0.0,0.0,-3.0617,0.0,0.0,0.0,0.0,0.0,0.0,0.0,0.0,0.0,0.0,0.0,0.0,0.0,0.0,0.0,0.0,0.0,0.0,0.0,0.0,0.0,0.0,0.0,0.0,0.0,0.0,0.0,0.0,0.0,0.0,0.0,0.0,0.0,0.0,0.0,0.0,0.0,0.0,0.0,0.0,0.0,0.0,0.0,0.0,0.0,0.0,0.0,0.0,0.0,0.0,0.0,0.0,0.0,0.0,0.0,0.0,-2.8598,-3.0265,-3.1104,-3.1104,-3.1941,-3.2069,-3.1417,-3.145,-3.1112,-3.0267,0.0,0.0,0.0,0.0,0.0,0.0,0.0,0.0,0.0,0.0,0.0,0.0,0.0,0.0,0.0,0.0,0.0,0.0,0.0,0.0,0.0,0.0,0.0,0.0,0.0,0.0,0.0,0.0,0.0,0.0,0.0,0.0,0.0,0.0,0.0,0.0,0.0,0.0,0.0,-2.6629,-2.7247,0.0,0.0,0.0,0.0,0.0,0.0,0.0,0.0,-3.0211,0.0,0.0,0.0,0.0,0.0,0.0,0.0,0.0,0.0,0.0,0.0,0.0,0.0,0.0,0.0,0.0,0.0,0.0,0.0,0.0,0.0,0.0,0.0,0.0,0.0,0.0,0.0,0.0,0.0,0.0,0.0,0.0,0.0,0.0,0.0,0.0,0.0,0.0,0.0,0.0,0.0,0.0,0.0,0.0,0.0,0.0,0.0,0.0,0.0,0.0,0.0,0.0,0.0,0.0,0.0,-2.9221,-3.0598,-3.1302,-3.1371,-3.23,-3.2408,-3.1648,-3.1655,-3.1324,0.0,0.0,0.0,0.0,0.0,0.0,0.0,0.0,0.0,0.0,0.0,0.0,0.0,0.0,0.0,0.0,0.0,0.0,0.0,0.0,0.0,0.0,0.0,0.0,0.0,0.0,0.0,0.0,0.0,0.0,0.0,0.0,0.0,0.0,0.0,0.0,0.0,0.0,0.0,0.0,-2.7073,-2.7851,-2.9113,0.0,0.0,0.0,0.0,0.0,0.0,-3.0617,-3.0462,0.0,0.0,0.0,0.0,0.0,0.0,0.0,0.0,0.0,0.0,0.0,0.0,0.0,0.0,0.0,0.0,0.0,0.0,0.0,0.0,0.0,0.0,0.0,0.0,0.0,0.0,0.0,0.0,0.0,0.0,0.0,0.0,0.0,0.0,0.0,0.0,0.0,0.0,0.0,0.0,0.0,0.0,0.0,0.0,0.0,0.0,0.0,0.0,0.0,0.0,0.0,0.0,0.0,0.0,0.0,-3.005,-3.1062,-3.168,-3.1924,-3.2824,-3.2921,-3.2148,-3.2019,-3.1586,0.0,0.0,0.0,0.0,0.0,0.0,0.0,0.0,0.0,0.0,0.0,0.0,0.0,0.0,0.0,0.0,0.0,0.0,0.0,0.0,0.0,0.0,0.0,0.0,0.0,0.0,0.0,0.0,0.0,0.0,0.0,0.0,0.0,0.0,0.0,0.0,0.0,0.0,0.0,0.0,0.0,-2.8591,-2.9437,-3.0153,0.0,0.0,0.0,0.0,-3.0617,-3.0617,0.0,0.0,0.0,0.0,0.0,0.0,0.0,0.0,0.0,0.0,0.0,0.0,0.0,0.0,0.0,0.0,0.0,0.0,0.0,0.0,0.0,0.0,0.0,0.0,0.0,0.0,0.0,0.0,0.0,0.0,0.0,0.0,0.0,0.0,0.0,0.0,0.0,0.0,0.0,0.0,0.0,0.0,0.0,0.0,0.0,0.0,0.0,0.0,0.0,0.0,0.0,0.0,0.0,0.0,0.0,0.0,-3.1004,-3.1977,-3.2858,-3.37,-3.4542,-3.4654,-3.3923,-3.323,-3.2469,0.0,0.0,0.0,0.0,0.0,0.0,0.0,0.0,0.0,0.0,0.0,0.0,0.0,0.0,0.0,0.0,0.0,0.0,0.0,0.0,0.0,0.0,0.0,0.0,0.0,0.0,0.0,0.0,0.0,0.0,0.0,0.0,0.0,0.0,0.0,0.0,0.0,0.0,0.0,0.0,0.0,-2.9476,-3.0327,-3.054,-3.0617,0.0,0.0,-3.0617,-3.0617,-3.0617,0.0,0.0,0.0,0.0,0.0,0.0,0.0,0.0,0.0,0.0,0.0,0.0,0.0,0.0,0.0,0.0,0.0,0.0,0.0,0.0,0.0,0.0,0.0,0.0,0.0,0.0,0.0,0.0,0.0,0.0,0.0,0.0,0.0,0.0,0.0,0.0,0.0,0.0,0.0,0.0,0.0,0.0,0.0,0.0,0.0,0.0,0.0,0.0,0.0,0.0,0.0,0.0,0.0,0.0,0.0,-2.9458,-3.1153,-3.2135,-3.3069,-3.3987,-3.4928,-3.5018,-3.4212,-3.3421,-3.2626,0.0,0.0,0.0,0.0,0.0,0.0,0.0,0.0,0.0,0.0,0.0,0.0,0.0,0.0,0.0,0.0,0.0,0.0,0.0,0.0,0.0,0.0,0.0,0.0,0.0,0.0,0.0,0.0,0.0,0.0,0.0,0.0,0.0,0.0,0.0,0.0,0.0,0.0,0.0,0.0,0.0,0.0,-3.0482,-3.0617,0.0,0.0,0.0,-3.0617,-3.0617,0.0,0.0,0.0,0.0,0.0,0.0,0.0,0.0,0.0,0.0,0.0,0.0,0.0,0.0,0.0,0.0,0.0,0.0,0.0,0.0,0.0,0.0,0.0,0.0,0.0,0.0,0.0,0.0,0.0,0.0,0.0,0.0,0.0,0.0,0.0,0.0,0.0,0.0,0.0,0.0,0.0,0.0,0.0,0.0,0.0,0.0,0.0,0.0,0.0,0.0,0.0,0.0,0.0,0.0,0.0,0.0,0.0,-3.1528,-3.248,-3.3414,-3.4293,-3.5086,-3.52,-3.4577,-3.3765,0.0,0.0,0.0,0.0,0.0,0.0,0.0,0.0,0.0,0.0,0.0,0.0,0.0,0.0,0.0,0.0,0.0,0.0,0.0,0.0,0.0,0.0,0.0,0.0,0.0,0.0,0.0,-2.5507,0.0,0.0,0.0,0.0,0.0,0.0,0.0,0.0,0.0,0.0,0.0,0.0,0.0,0.0,-2.9863,-3.052,-3.0752,-3.0907,0.0,0.0,-3.1154,-3.0926,-3.0907,-3.083,0.0,0.0,0.0,0.0,0.0,0.0,0.0,0.0,0.0,0.0,0.0,0.0,0.0,0.0,0.0,0.0,0.0,0.0,0.0,0.0,0.0,0.0,0.0,0.0,0.0,0.0,0.0,0.0,0.0,0.0,0.0,0.0,0.0,0.0,0.0,0.0,0.0,0.0,0.0,0.0,0.0,0.0,0.0,0.0,0.0,0.0,0.0,0.0,0.0,0.0,0.0,0.0,0.0,0.0,0.0,-3.2496,-3.3432,-3.4313,-3.5185,-3.54,-3.5521,-3.5495,-3.4723,-3.3896,0.0,0.0,0.0,0.0,0.0,0.0,0.0,0.0,0.0,0.0,0.0,0.0,0.0,0.0,0.0,0.0,0.0,0.0,0.0,0.0,0.0,0.0,0.0,0.0,0.0,0.0,0.0,0.0,0.0,0.0,0.0,0.0,0.0,0.0,0.0,0.0,0.0,0.0,0.0,0.0,0.0,-3.052,-3.0598,-3.1236,-3.1719,0.0,0.0,-3.2643,-3.185,-3.1734,-3.1463,-3.0733,0.0,0.0,0.0,0.0,0.0,0.0,0.0,0.0,0.0,0.0,0.0,0.0,0.0,0.0,0.0,0.0,0.0,0.0,0.0,0.0,0.0,0.0,0.0,0.0,0.0,0.0,0.0,0.0,0.0,0.0,0.0,0.0,0.0,0.0,0.0,0.0,0.0,0.0,0.0,0.0,0.0,0.0,0.0,0.0,0.0,0.0,0.0,0.0,0.0,0.0,0.0,0.0,0.0,-3.1719,-3.2668,-3.3544,-3.4461,-3.5381,-3.5515,-3.5585,-3.5593,-3.4805,-3.4255,0.0,0.0,0.0,0.0,0.0,0.0,0.0,0.0,0.0,0.0,0.0,0.0,0.0,0.0,0.0,0.0,0.0,0.0,0.0,0.0,0.0,0.0,0.0,0.0,0.0,0.0,0.0,0.0,-2.5507,-2.5507,-2.5507,0.0,0.0,0.0,0.0,0.0,0.0,0.0,0.0,0.0,0.0,-3.0772,-3.125,-3.1603,0.0,0.0,-3.2894,-3.2991,-3.2662,-3.2585,-3.2314,-3.1487,-3.1352,0.0,0.0,0.0,0.0,0.0,0.0,0.0,0.0,0.0,0.0,0.0,0.0,0.0,0.0,0.0,0.0,0.0,0.0,0.0,0.0,0.0,0.0,0.0,0.0,0.0,0.0,0.0,0.0,0.0,0.0,0.0,0.0,0.0,0.0,0.0,0.0,0.0,0.0,0.0,0.0,0.0,0.0,0.0,0.0,0.0,0.0,0.0,0.0,0.0,0.0,0.0,0.0,-3.2172,-3.3077,-3.3968,-3.4911,-3.5846,-3.5952,-3.5981,-3.5994,-3.547,-3.4977,0.0,0.0,0.0,0.0,0.0,0.0,0.0,0.0,0.0,0.0,0.0,0.0,0.0,0.0,0.0,0.0,0.0,0.0,0.0,0.0,0.0,0.0,0.0,0.0,0.0,0.0,0.0,0.0,-2.5507,-2.5507,-2.5507,0.0,0.0,0.0,0.0,0.0,0.0,0.0,0.0,0.0,0.0,-3.1178,-3.1715,-3.2237,-3.2798,-3.3397,-3.3712,-3.3784,-3.3532,-3.3494,-3.3184,-3.2314,0.0,0.0,0.0,0.0,0.0,0.0,0.0,0.0,0.0,0.0,0.0,0.0,0.0,0.0,0.0,0.0,0.0,0.0,0.0,0.0,0.0,0.0,0.0,0.0,0.0,0.0,0.0,0.0,0.0,0.0,-2.8043,0.0,0.0,0.0,0.0,0.0,0.0,0.0,0.0,0.0,0.0,0.0,0.0,0.0,0.0,0.0,0.0,0.0,0.0,0.0,0.0,0.0,0.0,-3.3077,-3.3956,-3.4949,-3.5872,-3.6636,-3.6807,-3.6874,-3.6884,-3.6919,-3.6164,-3.4561,0.0,0.0,0.0,0.0,0.0,0.0,0.0,0.0,0.0,0.0,0.0,0.0,0.0,0.0,0.0,0.0,0.0,0.0,0.0,0.0,0.0,0.0,0.0,0.0,0.0,0.0,-2.5565,-2.5507,-2.555,0.0,0.0,0.0,0.0,0.0,0.0,0.0,0.0,0.0,0.0,-3.127,-3.1792,-3.185,-3.3247,-3.4316,-3.4374,-3.5065,-3.5342,-3.451,-3.4374,-3.4084,0.0,0.0,0.0,0.0,0.0,0.0,0.0,0.0,0.0,0.0,0.0,0.0,0.0,0.0,0.0,0.0,0.0,0.0,0.0,0.0,0.0,0.0,0.0,0.0,0.0,0.0,0.0,-2.9727,-2.9727,0.0,0.0,0.0,0.0,0.0,0.0,0.0,0.0,0.0,0.0,0.0,-3.2442,-3.2153,0.0,0.0,0.0,0.0,0.0,0.0,0.0,0.0,0.0,0.0,0.0,0.0,-3.3745,-3.4169,-3.5544,-3.6471,-3.6826,-3.7448,-3.779,-3.7829,-3.7322,-3.625,-3.4548,0.0,0.0,0.0,0.0,0.0,0.0,0.0,0.0,0.0,0.0,0.0,0.0,0.0,0.0,0.0,0.0,0.0,0.0,0.0,0.0,0.0,0.0,0.0,0.0,0.0,-2.6532,0.0,0.0,0.0,0.0,0.0,0.0,0.0,0.0,0.0,0.0,0.0,-2.9824,-3.1217,-3.1637,-3.2217,-3.3363,-3.4026,-3.4607,0.0,0.0,0.0,0.0,0.0,0.0,0.0,0.0,0.0,0.0,0.0,0.0,0.0,0.0,-3.2206,-3.2169,-3.2135,-3.2106,-3.207,0.0,0.0,0.0,0.0,0.0,0.0,0.0,0.0,0.0,0.0,0.0,0.0,0.0,0.0,-3.1463,0.0,-3.1468,0.0,0.0,0.0,0.0,0.0,0.0,0.0,0.0,-3.2897,-3.3051,-3.3339,-3.3051,-3.3044,0.0,-3.2973,-3.2241,0.0,0.0,0.0,0.0,0.0,0.0,0.0,0.0,-3.4407,-3.5123,-3.6196,-3.7096,-3.7802,-3.8359,-3.8695,-3.8728,-3.7686,-3.6563,-3.543,-3.4832,-3.4008,0.0,0.0,0.0,0.0,0.0,0.0,0.0,0.0,0.0,0.0,0.0,0.0,0.0,0.0,0.0,0.0,0.0,0.0,0.0,0.0,0.0,0.0,0.0,-2.7412,0.0,0.0,0.0,0.0,0.0,0.0,0.0,0.0,0.0,-2.9371,-2.9842,-3.0612,-3.169,-3.2343,-3.3131,-3.4239,0.0,0.0,0.0,0.0,0.0,0.0,0.0,-3.551,-3.4955,-3.4839,-3.4665,-3.4118,-3.3996,-3.4093,-3.4364,0.0,0.0,-3.3208,-3.302,-3.2991,-3.2935,-3.2917,-3.2987,-3.3295,-3.3359,-3.3455,0.0,0.0,0.0,0.0,0.0,0.0,0.0,0.0,-3.3068,-3.3049,0.0,-3.3049,0.0,0.0,0.0,0.0,0.0,-3.3022,0.0,0.0,-3.3121,-3.3468,-3.4205,-3.3513,-3.3532,-3.4244,-3.3493,-3.305,-3.3031,-3.2927,0.0,0.0,0.0,0.0,0.0,0.0,-3.5091,-3.671,-3.689,-3.7769,-3.9404,-3.953,-3.9555,-3.9549,-3.8019,-3.712,-3.7023,-3.5453,-3.4559,-3.4572,-3.2941,0.0,0.0,0.0,0.0,0.0,0.0,0.0,0.0,0.0,0.0,0.0,0.0,0.0,0.0,0.0,0.0,0.0,0.0,0.0,0.0,-2.8136,0.0,0.0,0.0,0.0,0.0,0.0,0.0,0.0,0.0,0.0,-2.9722,-3.0903,-3.1912,-3.199,0.0,0.0,0.0,0.0,-3.5684,-3.5704,-3.5723,-3.5742,-3.5742,-3.5781,-3.58,-3.58,0.0,0.0,-3.5781,-3.5781,-3.6013,-3.6787,-3.6864,-3.6162,-3.3796,-3.3421,-3.3329,-3.3299,-3.3346,-3.3397,-3.4129,-3.4494,-3.4661,-3.6284,0.0,0.0,0.0,0.0,-3.4026,-3.3673,-3.3107,-3.3107,-3.3107,-3.3107,-3.3107,0.0,0.0,0.0,0.0,0.0,0.0,-3.4272,-3.4872,-3.5419,-3.5824,-3.606,-3.644,-3.6715,-3.6873,-3.6012,-3.5602,-3.5563,-3.5013,-3.4109,-3.291,0.0,0.0,0.0,0.0,-3.5759,-3.6832,-3.7498,-3.8365,-3.9472,-4.0156,-4.0237,-3.9689,-3.8615,-3.7741,-3.712,-3.6012,-3.5166,-3.4609,-3.355,0.0,0.0,0.0,0.0,0.0,0.0,0.0,0.0,0.0,0.0,0.0,0.0,0.0,0.0,0.0,0.0,0.0,0.0,0.0,-2.8947,-2.9044,-2.9272,0.0,0.0,0.0,0.0,0.0,0.0,0.0,0.0,0.0,-3.221,-3.2003,-3.2337,0.0,0.0,-3.4627,-3.5226,-3.5554,-3.5704,-3.5704,-3.6187,0.0,0.0,-3.7077,-3.7477,-3.7483,-3.7483,-3.7483,-3.7477,-3.7483,-3.7555,-3.7787,-3.7831,-3.7574,-3.6969,-3.6733,-3.6664,-3.6646,-3.6614,-3.6658,-3.6921,-3.6939,-3.6949,-3.7928,-3.6671,-3.6709,-3.64,-3.5916,-3.5897,-3.5607,-3.5118,-3.5118,-3.5118,-3.5118,-3.5118,-3.4944,-3.4615,-3.4615,0.0,0.0,0.0,-3.6116,-3.6639,-3.7109,-3.7302,-3.7353,-3.786,-3.8078,-3.8,-3.7492,-3.7261,-3.7242,-3.68,-3.6029,-3.5026,0.0,0.0,-3.4842,-3.5672,-3.6545,-3.7456,-3.831,-3.9165,-4.004,-4.0606,-4.0655,-4.0165,-3.9353,-3.8499,-3.7644,-3.677,-3.5943,-3.5104,-3.427,-3.343,0.0,0.0,0.0,0.0,0.0,0.0,0.0,0.0,0.0,0.0,0.0,-2.6839,-2.7373,0.0,0.0,0.0,-2.9243,-2.9853,-3.0385,-3.0754,0.0,0.0,0.0,0.0,0.0,0.0,0.0,-3.2512,-3.2982,-3.341,-3.372,-3.3293,-3.3303,-3.4313,-3.471,-3.5232,-3.6057,0.0,-3.6303,-3.6632,-3.7116,-3.7406,-3.7419,-3.7845,-3.8212,-3.8212,-3.8212,-3.8212,-3.8212,-3.8212,-3.8328,-3.8624,-3.8721,-3.8818,-3.9166,-3.9231,-3.8955,-3.8286,-3.8119,-3.8099,-3.8099,-3.8045,-3.8036,-3.9133,-3.8425,-3.8406,-3.8328,-3.8212,-3.8212,-3.8193,-3.8212,-3.8193,-3.8212,-3.8212,-3.8212,-3.7748,-3.7019,-3.7019,0.0,-3.7033,-3.7821,-3.8176,-3.8215,-3.8222,-3.8209,-3.8209,-3.8279,-3.8299,-3.8318,-3.8241,-3.8202,-3.8202,-3.8196,-3.8208,-3.8166,-3.6605,-3.5813,-3.5864,-3.6605,-3.747,-3.8384,-3.9189,-4.0014,-4.0868,-4.0893,-4.0888,-4.0888,-4.0126,-3.9276,-3.8425,-3.7566,-3.6701,-3.5823,-3.5032,-3.4234,-3.3448,0.0,0.0,0.0,0.0,0.0,0.0,0.0,0.0,0.0,0.0,0.0,0.0,0.0,0.0,0.0,-3.1105,0.0,-3.2105,-3.2807,0.0,0.0,0.0,-3.3293,-3.3293,-3.3351,-3.339,-3.339,0.0,0.0,-3.4501,-3.4657,-3.4699,-3.4724,-3.534,-3.6065,-3.6812,-3.6942,-3.729,-3.7999,-3.8232,-3.8315,-3.8315,-3.8444,-3.8566,-3.858,-3.8406,-3.8502,-3.8528,-3.8502,-3.8779,-3.9462,-3.9617,-3.981,-4.0661,-4.0674,-4.0301,-3.8742,-3.844,-3.8357,-3.8434,-3.8433,-3.8451,-4.0371,-4.0191,-4.0178,-3.9417,-3.8212,-3.8212,-3.8212,-3.8212,-3.8212,-3.8212,-3.8212,-3.8212,-3.8096,-3.7903,-3.7883,-3.7903,-3.7903,-3.809,-3.82,-3.8245,-3.8877,-3.9155,-3.9123,-3.976,-4.0056,-3.9958,-3.9379,-3.909,-3.9051,-3.8485,-3.8208,-3.8191,-3.7829,-3.7658,-3.7665,-3.7864,-3.8412,-3.9281,-3.9514,-4.0019,-4.0859,-4.0903,-4.0888,-4.0888,-4.0126,-3.9295,-3.8425,-3.7566,-3.6692,-3.5842,-3.5025,-3.45,-3.4312,-3.354,0.0,0.0,0.0,0.0,0.0,0.0,0.0,0.0,0.0,-2.8465,-2.906,0.0,-3.0464,0.0,-3.2361,-3.3002,-3.2982,-3.3177,0.0,0.0,-3.3293,-3.3293,-3.3293,-3.3837,-3.421,-3.4229,-3.4808,-3.527,-3.5465,-3.6071,-3.649,-3.6478,-3.6605,-3.6769,-3.6955,-3.7533,-3.7961,-3.8237,-3.8798,-3.9172,-3.9249,-3.9771,-4.0152,-4.0197,-4.0172,-4.0191,-4.0178,-4.0172,-4.0274,-4.0468,-4.0487,-4.0584,-4.0758,-4.0797,-4.0674,-4.0281,-4.0134,-4.0088,-4.0088,-4.003,-3.9983,-4.0797,-4.0797,-4.0797,-4.0236,-3.9359,-3.9359,-3.934,-3.934,-3.9359,-3.9359,-3.9321,-3.8953,-3.8779,-3.876,-3.8779,-3.8779,-3.8798,-3.9185,-3.9359,-3.9379,-3.9868,-4.0069,-4.005,-4.0533,-4.0733,-4.0681,-4.0237,-4.0024,-4.0005,-3.9573,-3.9371,-3.9367,-3.9434,-3.946,-3.9447,-3.9088,-3.9126,-3.9621,-3.9985,-4.0408,-4.0888,-4.0888,-4.0888,-4.0888,-4.048,-3.9645,-3.8445,-3.7916,-3.71,-3.5853,-3.541,-3.4987,-3.4617,-3.418,-3.3553,0.0,0.0,0.0,0.0,0.0,0.0,0.0,0.0,0.0,0.0,0.0,-3.2061,-3.2536,-3.3351,-3.3837,-3.3837,-3.4187,-3.4416,-3.442,-3.442,-3.4396,-3.4416,-3.5138,-3.5643,-3.5663,-3.642,-3.6964,-3.6964,-3.7372,-3.7679,-3.7689,-3.7953,-3.8151,-3.8153,-3.8518,-3.8907,-3.9301,-3.9765,-4.0081,-4.0081,-4.0468,-4.0797,-4.0797,-4.0797,-4.0797,-4.0797,-4.0797,-4.0797,-4.0797,-4.0797,-4.0797,-4.0797,-4.0797,-4.0797,-4.079,-4.0759,-4.0746,-4.0746,-4.0674,-4.0635,-4.0797,-4.0797,-4.0797,-4.0797,-4.0797,-4.0797,-4.0797,-4.0797,-4.0797,-4.0797,-4.0752,-3.9984,-3.9655,-3.9675,-3.9675,-3.9655,-3.9733,-4.0468,-4.0797,-4.0797,-4.0797,-4.0797,-4.0797,-4.0797,-4.0797,-4.0797,-4.0797,-4.0797,-4.0797,-4.0802,-4.0798,-4.0807,-4.0872,-4.0898,-4.0864,-4.015,-3.9777,-3.9854,-4.0538,-4.0888,-4.0888,-4.0888,-4.0888,-4.0888,-4.0888,-4.0169,-3.8639,-3.8464,-3.7644,-3.609,-3.5916,-3.5528,-3.4812,-3.4781,-3.4408,0.0,-3.3551,0.0,0.0,0.0,0.0,0.0,0.0,0.0,0.0,-3.3388,-3.3564,-3.3783,-3.4439,-3.489,-3.4987,-3.5682,-3.6125,-3.6125,-3.6129,-3.6125,-3.6164,-3.6809,-3.7256,-3.7275,-3.7916,-3.8387,-3.8328,-3.8484,-3.8561,-3.8615,-3.9219,-3.965,-3.9666,-3.965,-3.9923,-4.0712,-4.0797,-4.07,-4.0719,-4.0777,-4.0797,-4.0797,-4.0797,-4.0797,-4.0797,-4.0797,-4.0797,-4.0797,-4.0797,-4.0797,-4.0797,-4.0797,-4.0803,-4.0803,-4.0803,-4.0784,-4.0797,-4.0752,-4.0733,-4.0797,-4.0797,-4.0797,-4.0797,-4.0797,-4.0797,-4.0797,-4.0797,-4.0797,-4.0797,-4.0797,-4.0623,-4.0565,-4.0565,-4.0545,-4.0565,-4.0565,-4.0719,-4.0797,-4.0797,-4.0797,-4.0797,-4.0797,-4.0797,-4.0797,-4.0797,-4.0797,-4.0797,-4.0797,-4.0802,-4.0792,-4.0807,-4.0872,-4.0898,-4.0888,0.0,0.0,0.0,-4.081,-4.0888,-4.0888,-4.0888,-4.0888,-4.0888,-4.0888,0.0,-3.9489,-3.8775,-3.7935,-3.6906,-3.6188,0.0,0.0,0.0,0.0,0.0,0.0,0.0,0.0,0.0,0.0,0.0,-3.4201,-3.389,-3.3365,-3.3895,-3.4874,-3.6226,-3.6518,-3.6891,-3.759,-3.7819,-3.7897,-3.7897,-3.7897,-3.7901,-3.7916,-3.8056,-3.8154,-3.8173,-3.8309,-3.8406,-3.8503,-3.8984,-3.9451,-3.9489,-4.0145,-4.0616,-4.0601,-4.0541,-4.0616,-4.0775,-4.0796,-4.0797,-4.0797,-4.0797,-4.0797,-4.0797,-4.0797,-4.0797,-4.0797,-4.0797,-4.0797,-4.0797,-4.0797,-4.0797,-4.0797,-4.0815,-4.0808,-4.0808,-4.0812,-4.0798,-4.0803,-4.079,-4.0802,-4.0797,0.0,-4.0797,-4.0797,0.0,-4.0797,-4.0797,-4.0797,-4.0797,-4.0797,-4.0797,-4.0797,-4.0797,-4.0797,-4.0797,-4.0797,-4.0797,-4.0797,-4.0797,-4.0797,-4.0797,-4.0797,-4.0797,-4.0797,-4.0797,-4.0797,-4.0797,-4.0797,-4.0797,-4.08,-4.0815,-4.0807,-4.0868,-4.0893,-4.0888,-4.0888,-4.0888,-4.0888,-4.0888,-4.0888,-4.0888,-4.0888,-4.0888,-4.0888,0.0,0.0,0.0,0.0,0.0,0.0,0.0,0.0,0.0,0.0,0.0,-3.5304,-3.5246,-3.5042,-3.4614,-3.495,-3.5383,-3.5792,-3.6238,-3.6102,-3.5232,-3.5943,-3.6774,-3.7644,-3.7741,-3.7916,-3.8348,-3.8387,-3.8387,-3.8387,-3.8387,-3.8387,-3.8445,-3.879,-3.9043,-3.9101,-3.9397,-3.9625,-3.9625,-3.9975,-4.0286,-4.0305,-4.0635,-4.0903,-4.0888,-4.0883,-4.0837,-4.0809,-4.0792,-4.0806,-4.08,-4.0808,-4.0802,-4.0794,-4.0808,-4.0808,-4.08,-4.08,-4.0806,-4.08,-4.08,-4.0806,-4.0806,-4.0792,-4.0804,-4.0804,-4.0796,-4.0801,-4.0806,-4.0812,-4.0804,-4.1235,-4.1261,-4.1242,-4.1242,-4.1222,-4.1067,-4.0951,-4.0797,0.0,0.0,0.0,-4.0797,-4.0797,-4.0797,-4.0797,-4.0797,-4.0797,-4.0797,-4.0797,-4.0797,-4.0797,-4.0797,-4.0797,-4.0797,-4.0797,-4.0797,-4.0797,-4.0797,-4.0803,-4.0798,-4.0812,-4.0818,-4.0864,-4.0888,-4.0888,-4.0888,-4.0888,-4.0888,-4.0888,-4.0888,-4.0888,-4.0888,-4.0888,-4.0888,-4.0888,-4.0597,-3.9936,-3.9776,-3.9373,-3.8678,-3.8501,-3.8062,-3.7386,-3.7373,-3.7095,-3.6407,-3.6359,-3.631,-3.6277,-3.6935,-3.7331,-3.7333,-3.8149,-3.827,-3.7392,-3.7998,-3.8464,-3.862,-3.8639,-3.8678,-3.8814,-3.8853,-3.8829,-3.8833,-3.8833,-3.8872,-3.8892,-3.9451,-3.9912,-3.9994,-4.0461,-4.0888,-4.083,-4.083,-4.0888,-4.0888,-4.0888,-4.0888,-4.0903,-4.0903,-4.0872,-4.0837,-4.0826,-4.0807,-4.0801,-4.0804,-4.0798,-4.0796,-4.0804,-4.0798,-4.0801,-4.0807,-4.0807,-4.0801,-4.0807,-4.0807,-4.0807,-4.0812,-4.0812,-4.0812,-4.0818,-4.0804,-4.0804,-4.0804,-4.0848,-4.2957,-4.2937,-4.2937,-4.2937,-4.2879,-4.2144,-4.1429,-4.0816,-4.0816,-4.0797,-4.0797,-4.0797,-4.0797,-4.0797,-4.0797,-4.0797,-4.0797,-4.0797,-4.0797,0.0,-4.0797,-4.0797,-4.0797,-4.0797,-4.0797,-4.0797,-4.0797,-4.0809,-4.0814,-4.0809,-4.0837,-4.0877,-4.0893,-4.0888,-4.0888,-4.0888,-4.0888,-4.0888,-4.0888,-4.0888,-4.0888,-4.0888,-4.0888,-4.0888,-4.0888,-4.0869,-4.0733,-4.0072,-3.9645,-3.9509,-3.8795,-3.8341,-3.8222,-3.8245,-3.8175,-3.8054,-3.8043,-3.8051,-3.8008,-3.8147,-3.8216,-3.827,-3.9023,-3.914,-3.8309,-3.8328,-3.8717,-3.9431,-3.9509,-3.982,-4.0441,-4.048,-4.0441,-4.048,-4.0538,-4.0538,-4.0461,-4.0577,-4.0674,-4.0674,-4.081,-4.0888,-4.0888,-4.0888,-4.0888,-4.0888,-4.0888,-4.0888,-4.0903,-4.0903,-4.0902,-4.0897,-4.0842,-4.0812,-4.0812,-4.0807,-4.0801,-4.0807,-4.0807,-4.0801,-4.0812,-4.0812,-4.0812,-4.0812,-4.0812,-4.0812,-4.0812,-4.0848,-4.0877,-4.0883,-4.0873,-4.0869,-4.0874,-4.0874,-4.0888,-4.3305,-4.3305,-4.3305,-4.3305,-4.3266,-4.286,-4.2492,-4.2164,-4.2144,-4.1628,-4.0835,-4.0797,-4.0797,-4.0797,-4.0797,-4.0797,-4.0797,-4.0797,-4.0797,-4.0797,-4.0797,-4.0797,-4.0797,-4.0797,-4.0797,-4.0797,-4.0797,-4.0809,-4.0794,-4.0809,-4.0842,-4.0902,-4.0893,-4.0888,-4.0888,-4.0888,-4.0888,-4.0888,-4.0888,-4.0888,-4.0888,-4.0888,-4.0888,-4.0888,-4.0888,-4.0888,-4.0888,-4.0538,-4.0344,-4.0364,-3.9975,-3.9572,-3.9134,-3.9123,-3.8898,-3.8431,-3.8397,-3.8392,-3.8399,-3.8833,-3.9295,-3.9723,-4.0111,-4.0189,-3.98,-3.9742,-3.9917,-4.0305,-4.0344,-4.0499,-4.0849,-4.0888,-4.0888,-4.0888,-4.0888,-4.0888,-4.0888,-4.0888,-4.0888,-4.0888,-4.0888,-4.0888,-4.0888,-4.0888,-4.0888,-4.0888,-4.0888,-4.0888,-4.0888,-4.0898,-4.0888,-4.0883,-4.0859,-4.0854,-4.0849,-4.0858,-4.0853,-4.0868,-4.0858,-4.0839,-4.0868,-4.0854,-4.0873,-4.0854,-4.0854,-4.0854,-4.0849,-4.0878,-4.0888,-4.0888,-4.0898,-4.0888,-4.0888,-4.0888,-4.0903,-4.3885,-4.3866,-4.3866,-4.3769,-4.3595,-4.3595,-4.3479,-4.3305,-4.3285,-4.257,-4.1448,-4.1158,-4.0971,-4.0797,-4.0797,-4.0797,-4.0797,-4.0797,-4.0797,-4.0797,-4.0797,-4.0797,-4.0797,-4.0797,-4.0797,-4.0797,-4.0797,-4.0815,-4.0806,-4.0796,-4.0842,-4.0893,-4.0898,-4.0888,-4.0888,-4.0888,-4.0888,-4.0888,-4.0888,-4.0888,-4.0888,-4.0888,-4.0888,-4.0888,-4.0888,-4.0888,-4.0888,-4.0888,-4.0888,-4.0888,-4.0888,-4.0616,-4.0029,-3.9969,-3.9658,-3.9047,-3.8963,-3.8963,-3.8989,-3.9587,-4.0223,-4.083,-4.0888,-4.0888,-4.0888,-4.0888,-4.0888,-4.0888,-4.0869,-4.0869,-4.0888,-4.0888,-4.0888,-4.0888,-4.0888,-4.0888,-4.0888,-4.0888,-4.0888,-4.0888,-4.0888,-4.0888,-4.0888,-4.0888,-4.0888,-4.0888,-4.0888,-4.0888,-4.0888,-4.0888,-4.0888,-4.0888,-4.0888,-4.0883,-4.0888,-4.0888,-4.0903,-4.0888,-4.0888,-4.0888,-4.0898,-4.0883,-4.0888,-4.0903,-4.0903,-4.0903,-4.0888,-4.0888,-4.0883,-4.0903,-4.0888,-4.0888,-4.0888,-4.0888,-4.0888,-4.5555,-4.5568,-4.5497,-4.5142,-4.4504,-4.4485,-4.4059,-4.3401,-4.3324,-4.3227,-4.2976,-4.2241,-4.1506,-4.0855,-4.0855,-4.0893,-4.0874,-4.0816,-4.0855,-4.0868,-4.0797,-4.0816,-4.0855,-4.0816,-4.0797,-4.0797,-4.0797,-4.0808,-4.0796,-4.0807,-4.0833,-4.0878,-4.0888,-4.0888,-4.0888,-4.0888,-4.0888,-4.0888,-4.0888,-4.0888,-4.0888,-4.0888,-4.0888,-4.0888,-4.0888,-4.0888,-4.0888,-4.0888,-4.0888,-4.0888,-4.0888,-4.0849,-4.0771,-4.0771,-4.0733,-4.0635,-4.0621,-4.0674,-4.0655,-4.0752,-4.0791,-4.0888,-4.0888,-4.0888,-4.0888,-4.0888,-4.0888,-4.0888,-4.0888,-4.0888,-4.0888,-4.0888,-4.0888,-4.0888,-4.0888,-4.0888,-4.0888,-4.0888,-4.0888,-4.0888,-4.0888,-4.0888,-4.0888,-4.0888,-4.0888,-4.0888,-4.0888,-4.0888,-4.0888,-4.0888,-4.0888,-4.0888,-4.0888,-4.0888,-4.0888,-4.0888,-4.0903,-4.0888,-4.0888,-4.0903,-4.0888,-4.0888,-4.0888,-4.0888,-4.0888,-4.0888,-4.0888,-4.0888,-4.0888,-4.0888,-4.0888,-4.0888,-4.0888,-4.0888,-4.0888,-4.5867,-4.5867,-4.5848,-4.568,-4.5389,-4.537,-4.5143,-4.4794,-4.4775,-4.4523,-4.4059,-4.3685,-4.3073,-4.228,-4.228,-4.228,-4.228,-4.228,-4.228,-4.228,-4.228,-4.2009,-4.1545,-4.1506,-4.128,-4.0835,-4.0797,-4.0808,-4.0807,-4.0844,-4.0869,-4.0883,-4.0888,-4.0888,-4.0888,-4.0888,-4.0888,-4.0888,-4.0888,-4.0888,-4.0888,-4.0888,-4.0888,-4.0888,-4.0888,-4.0888,-4.0888,-4.0888,-4.0888,-4.0888,-4.0888,-4.0888,-4.0888,-4.0888,-4.0888,-4.0888,-4.0888,-4.0888,-4.0888,-4.0888,-4.0888,-4.0888,-4.0888,-4.0888,-4.0888,-4.0888,-4.0888,-4.0888,-4.0888,-4.0888,-4.0888,-4.0888,-4.0888,-4.0888,-4.0888,-4.0888,-4.0888,-4.0888,-4.0888,-4.0888,-4.0888,-4.0888,-4.0888,-4.0888,-4.0888,-4.0888,-4.0888,-4.0888,-4.0888,-4.0888,-4.0888,-4.0888,-4.0888,-4.0888,-4.0888,-4.0888,-4.0888,-4.0888,-4.0888,-4.0888,-4.0888,-4.0888,-4.0888,-4.0888,-4.0888,-4.0888,-4.0888,-4.0888,-4.0888,-4.0888,-4.0888,-4.0888,-4.0888,-4.0888,-4.0888,-4.5892,-4.5892,-4.5892,-4.5893,-4.5893,-4.5893,-4.5874,-4.5821,-4.5821,-4.5504,-4.4968,-4.4929,-4.4607,-4.3995,-4.3544,-4.3305,-4.3305,-4.3305,-4.3305,-4.3305,-4.3331,-4.297,-4.2415,-4.2383,-4.2079,-4.1557,-4.1292,-4.105,-4.0872,-4.0898,-4.0941,-4.0945,-4.0926,-4.0926,-4.0926,-4.0906,-4.0926,-4.0917,-4.0921,-4.0936,-4.0888,-4.0888,-4.0888,-4.0888,-4.0888,-4.0888,-4.0888,-4.0888,-4.0888,-4.0888,-4.0888,-4.0888,-4.0888,-4.0888,-4.0888,-4.0888,-4.0888,-4.0888,-4.0888,-4.0888,-4.0888,-4.0888,-4.0888,-4.0888,-4.0888,-4.0888,-4.0888,-4.0888,-4.0888,-4.0888,-4.0888,-4.0888,-4.0888,-4.0888,-4.0888,-4.0888,-4.0888,-4.0888,-4.0888,-4.0888,-4.0888,-4.0888,-4.0888,-4.0888,-4.0888,-4.0888,-4.0888,-4.0888,-4.0888,-4.0888,-4.0888,-4.0888,-4.0888,-4.0888,-4.0888,-4.0888,-4.0888,-4.0888,-4.0888,-4.0888,-4.0888,-4.0888,-4.0888,-4.0888,-4.0888,-4.0888,-4.0888,-4.0888,-4.0888,-4.0888,-4.0888,-4.0888,-4.0888,-4.0888,-4.0888,-4.5892,-4.5892,-4.5892,-4.5917,-4.5905,-4.5892,-4.5906,-4.588,-4.59,-4.5822,-4.5717,-4.571,-4.575,-4.5564,-4.4118,-4.3363,-4.3363,-4.3447,-4.3466,-4.3466,-4.3499,-4.3395,-4.3356,-4.3348,-4.3302,-4.3011,-4.2371,-4.1668,-4.0995,-4.1012,-4.0995,-4.0992,-4.0988,-4.0992,-4.0968,-4.0988,-4.0984,-4.0987,-4.0982,-4.0974,-4.0931,-4.0907,-4.0912,-4.0912,-4.0888,-4.0888,-4.0888,-4.0888,-4.0888,-4.0888,-4.0888,-4.0888,-4.0888,-4.0888,-4.0888,-4.0888,-4.0888,-4.0888,-4.0888,-4.0888,-4.0888,-4.0888,-4.0888,-4.0888,-4.0888,-4.0888,-4.0888,-4.0888,-4.0888,-4.0888,-4.0888,-4.0888,-4.0888,-4.0888,-4.0888,-4.0888,-4.0888,-4.0888,-4.0888,-4.0888,-4.0888,-4.0888,-4.0888,-4.0888,-4.0888,-4.0888,-4.0888,-4.0888,-4.0888,-4.0888,-4.0888,-4.0888,-4.0888,-4.0888,-4.0888,-4.0888,-4.0888,-4.0888,-4.0888,-4.0888,-4.0888,-4.0888,-4.0888,-4.0888,-4.0888,-4.0888,-4.0888,-4.0888,-4.0888,-4.0888,-4.0888,-4.0888,-4.0888,-4.0888,-4.0888,-4.6022,-4.6022,-4.6022,-4.6032,-4.6035,-4.5975,-4.5953,-4.5962,-4.5918,-4.5906,-4.5854,-4.5874,-4.588,-4.5854,-4.526,-4.4963,-4.4983,-4.4963,-4.4963,-4.4963,-4.4976,-4.4743,-4.4265,-4.4232,-4.3908,-4.341,-4.3081,-4.2507,-4.1825,-4.1803,-4.1532,-4.105,-4.0996,-4.0996,-4.0996,-4.0996,-4.0992,-4.0984,-4.0984,-4.098,-4.0952,-4.0971,-4.0967,-4.0954,-4.0936,-4.0888,-4.0888,-4.0888,-4.0888,-4.0888,-4.0888,-4.0888,-4.0888,-4.0888,-4.0888,-4.0888,-4.0888,-4.0888,-4.0888,-4.0888,-4.0888,-4.0888,-4.0888,-4.0888,-4.0888,-4.0888,-4.0888,-4.0888,-4.0888,-4.0888,-4.0888,-4.0888,-4.0888,-4.0888,-4.0888,-4.0888,-4.0888,-4.0888,-4.0888,-4.0888,-4.0888,-4.0888,-4.0888,-4.0888,-4.0888,-4.0888,-4.0888,-4.0888,-4.0888,-4.0888,-4.0888,-4.0888,-4.0888,-4.0888,-4.0888,-4.0888,-4.0888,-4.0888,-4.0888,-4.0888,-4.0888,-4.0888,-4.0888,-4.0888,-4.0888,-4.0888,-4.0888,-4.0888,-4.0888,-4.0888,-4.0888,-4.0888,-4.0888,-4.0888,-4.0888,-4.6117,-4.6117,-4.6117,-4.6108,-4.609,-4.6052,-4.6032,-4.6019,-4.5972,-4.5935,-4.5923,-4.5917,-4.5898,-4.5916,-4.5941,-4.5953,-4.5964,-4.591,-4.5892,-4.5892,-4.5917,-4.5638,-4.5223,-4.5132,-4.4852,-4.43,-4.397,-4.3433,-4.2693,-4.242,-4.1992,-4.1493,-4.1185,-4.1032,-4.1032,-4.1032,-4.1006,-4.0999,-4.0995,-4.0988,-4.0976,-4.0996,-4.0988,-4.0975,-4.0939,-4.0921,-4.0907,-4.0888,-4.0888,-4.0888,-4.0888,-4.0888,-4.0888,-4.0888,-4.0888,-4.0888,-4.0888,-4.0888,-4.0888,-4.0888,-4.0888,-4.0888,-4.0888,-4.0888,-4.0888,-4.0888,-4.0888,-4.0888,-4.0888,-4.0888,-4.0888,-4.0888,-4.0888,-4.0888,-4.0888,-4.0888,-4.0888,-4.0888,-4.0888,-4.0888,-4.0888,-4.0888,-4.0888,-4.0888,-4.0888,-4.0888,-4.0888,-4.0888,-4.0888,-4.0888,-4.0888,-4.0888,-4.0888,-4.0888,-4.0907,-4.0927,-4.0946,-4.0966,-4.0907,-4.0888,-4.0888,-4.0888,-4.0888,-4.0888,-4.0888,-4.0888,-4.0907,-4.0907,-4.0927,-4.0966,-4.0888,-4.0888,-4.0888,-4.0888,-4.1024,-4.6141,-4.6102,-4.6117,-4.6106,-4.6106,-4.6102,-4.6104,-4.6081,-4.6017,-4.5991,-4.5989,-4.5935,-4.5958,-4.5991,-4.6002,-4.6027,-4.6042,-4.5956,-4.5916,-4.5916,-4.5972,-4.5994,-4.5905,-4.5925,-4.5949,-4.5793,-4.5179,-4.4374,-4.3596,-4.2932,-4.252,-4.2281,-4.1568,-4.1259,-4.115,-4.1145,-4.1078,-4.1019,-4.099,-4.0997,-4.0984,-4.1003,-4.1003,-4.1,-4.0996,-4.0956,-4.0912,-4.0912,-4.0907,-4.0888,-4.0888,-4.0888,-4.0888,-4.0888,-4.0888,-4.0888,-4.0888,-4.0888,-4.0888,-4.0888,-4.0888,-4.0888,-4.0888,-4.0888,-4.0888,-4.0888,-4.0888,-4.0888,-4.0888,-4.0888,-4.0888,-4.0888,-4.0888,-4.0888,-4.0888,-4.0888,-4.0888,-4.0888,-4.0888,-4.0888,-4.0888,-4.0888,-4.0888,-4.0888,-4.0888,-4.0888,-4.0888,-4.0888,-4.0888,-4.0888,-4.0888,-4.0907,-4.1063,-4.1238,-4.1102,-4.0966,-4.1005,-4.1024,-4.0946,-4.0888,-4.0888,-4.0888,-4.0888,-4.0888,-4.0888,-4.0927,-4.1315,-4.1335,-4.1412,-4.1412,-4.1199,-4.1315,-4.151,-4.1665,-4.1432,-4.6703,-4.62,-4.6157,-4.6161,-4.6157,-4.6167,-4.6169,-4.617,-4.6106,-4.6046,-4.6066,-4.6032,-4.6037,-4.609,-4.6075,-4.6104,-4.6093,-4.606,-4.6027,-4.6032,-4.6056,-4.6066,-4.6075,-4.6084,-4.6117,-4.6084,-4.5877,-4.5326,-4.4572,-4.4178,-4.3858,-4.3239,-4.2422,-4.2013,-4.1917,-4.1425,-4.1089,-4.1083,-4.1061,-4.1056,-4.107,-4.1067,-4.1058,-4.0997,-4.0993,-4.0976,-4.098,-4.0982,-4.0945,-4.0907,-4.0888,-4.0888,-4.0888,-4.0888,-4.0888,-4.0888,-4.0888,-4.0888,-4.0888,-4.0888,-4.0888,-4.0888,-4.0888,-4.0888,-4.0888,-4.0888,-4.0888,-4.0888,-4.0888,-4.0888,-4.0888,-4.0888,-4.0888,-4.0888,-4.0888,-4.0888,-4.0888,-4.0888,-4.0888,-4.0888,-4.0888,-4.0888,-4.0888,-4.0888,-4.0888,-4.0907,-4.0927,-4.0946,-4.0927,-4.1063,-4.0888,-4.0907,-4.1276,-4.1801,-4.182,-4.1976,-4.217,-4.1956,-4.1665,-4.1471,-4.1354,-4.1276,-4.1218,-4.1179,-4.114,-4.1276,-4.1646,-4.1859,-4.1976,-4.2325,-4.2534,-4.2631,-4.267,-4.2515,-4.2262,-4.7667,-4.7179,-4.7175,-4.6957,-4.6701,-4.6688,-4.6501,-4.6294,-4.6491,-4.6613,-4.668,-4.6945,-4.7085,-4.703,-4.6777,-4.6625,-4.659,-4.6293,-4.6137,-4.6142,-4.6127,-4.6146,-4.6135,-4.6142,-4.613,-4.6144,-4.6183,-4.5919,-4.5396,-4.5058,-4.4677,-4.4116,-4.332,-4.2699,-4.2409,-4.1862,-4.147,-4.1174,-4.1113,-4.1109,-4.1103,-4.11,-4.1072,-4.1031,-4.1048,-4.1013,-4.0999,-4.0988,-4.0984,-4.095,-4.0912,-4.0888,-4.0888,-4.0888,-4.0888,-4.0888,-4.0888,-4.0888,-4.0888,-4.0888,-4.0888,-4.0888,-4.0888,-4.0888,-4.0888,-4.0888,-4.0888,-4.0888,-4.0888,-4.0888,-4.0888,-4.0888,-4.0888,-4.0888,-4.0888,-4.0888,-4.0888,-4.0888,-4.0888,-4.0888,-4.0888,-4.0888,-4.0888,-4.0888,-4.0888,-4.0907,-4.1179,-4.1398,-4.1451,-4.1723,-4.1743,-4.1879,-4.2325,-4.2656,-4.2714,-4.2986,-4.335,-4.3025,-4.2597,-4.2422,-4.2287,-4.2287,-4.2248,-4.2287,-4.2287,-4.2364,-4.2675,-4.2694,-4.2811,-4.3292,-4.3641,-4.333,-4.3136,-4.3214,-4.3059,-4.8843,-4.8802,-4.8792,-4.8242,-4.7637,-4.7684,-4.7348,-4.6757,-4.7329,-4.7733,-4.7863,-4.8227,-4.8578,-4.8529,-4.7846,-4.756,-4.7454,-4.6911,-4.6601,-4.6535,-4.6443,-4.6359,-4.6209,-4.6201,-4.6209,-4.6211,-4.6214,-4.6177,-4.6043,-4.5486,-4.5061,-4.4974,-4.4199,-4.3406,-4.2842,-4.2513,-4.1943,-4.1391,-4.1176,-4.1111,-4.1099,-4.1117,-4.1111,-4.1079,-4.1076,-4.1067,-4.1022,-4.1007,-4.0983,-4.0991,-4.0945,-4.0912,-4.0888,-4.0888,-4.0888,-4.0888,-4.0888,-4.0888,-4.0888,-4.0888,-4.0888,-4.0888,-4.0888,-4.0888,-4.0888,-4.0888,-4.0888,-4.0888,-4.0888,-4.0888,-4.0888,-4.0888,-4.0888,-4.0888,-4.0888,-4.0888,-4.0888,-4.0888,-4.0888,-4.0888,-4.0888,-4.0946,-4.1043,-4.1082,-4.1121,-4.1374,-4.1898,-4.2194,-4.2364,-4.2675,-4.3272,-4.3389,-4.3297,-4.353,-4.3607,-4.4074,-4.4404,-4.4326,-4.3821,-4.3491,-4.3141,-4.3044,-4.3025,-4.3102,-4.3277,-4.3413,-4.3549,-4.3569,-4.3743,-4.4132,-4.4093,-4.3719,-4.3777,-4.4054,-4.4093,-4.9402,-4.8896,-4.8874,-4.8737,-4.8639,-4.9145,-4.9296,-4.9098,-4.929,-4.9419,-4.9376,-4.8942,-4.8962,-4.8788,-4.8632,-4.8459,-4.8365,-4.8175,-4.812,-4.8003,-4.7478,-4.6827,-4.6331,-4.6259,-4.6264,-4.6264,-4.6267,-4.6254,-4.6273,-4.6019,-4.5905,-4.5907,-4.5068,-4.4543,-4.4231,-4.308,-4.2357,-4.1985,-4.1379,-4.1124,-4.1101,-4.1101,-4.1117,-4.1109,-4.1104,-4.1094,-4.1059,-4.1028,-4.0986,-4.0995,-4.0982,-4.0945,-4.0893,-4.0907,-4.0888,-4.0888,-4.0888,-4.0888,-4.0888,-4.0888,-4.0888,-4.0888,-4.0888,-4.0888,-4.0888,-4.0888,-4.0888,-4.0888,-4.0888,-4.0888,-4.0888,-4.0888,-4.0888,-4.0888,-4.0888,-4.0888,-4.0888,-4.0888,-4.0888,-4.0888,-4.0907,-4.1218,-4.1626,-4.1879,-4.2073,-4.2578,-4.2928,-4.3161,-4.3258,-4.3433,-4.3918,-4.386,-4.386,-4.4229,-4.4598,-4.5084,-4.5394,-4.5511,-4.5142,-4.4637,-4.4074,-4.353,-4.3452,-4.3408,-4.3782,-4.3976,-4.4268,-4.4462,-4.4734,-4.4948,-4.5045,-4.4928,-4.5181,-4.5414,-4.5317,-5.0369,-4.9978,-5.0328,-5.0289,-5.0093,-5.0834,-5.0987,-5.0771,-5.1063,-5.1197,-5.1136,-5.1096,-5.0783,-5.0432,-5.008,-4.967,-4.9358,-4.8991,-4.8816,-4.876,-4.8335,-4.7454,-4.6569,-4.6296,-4.6297,-4.6297,-4.6301,-4.6301,-4.6301,-4.6301,-4.6302,-4.6206,-4.5796,-4.5387,-4.4881,-4.4099,-4.3065,-4.2478,-4.1853,-4.1501,-4.1149,-4.1109,-4.1107,-4.1103,-4.1099,-4.1114,-4.1099,-4.105,-4.1029,-4.1003,-4.098,-4.0982,-4.0945,-4.0912,-4.0888,-4.0888,-4.0888,-4.0888,-4.0888,-4.0888,-4.0888,-4.0888,-4.0888,-4.0888,-4.0888,-4.0888,-4.0888,-4.0888,-4.0888,-4.0888,-4.0888,-4.0888,-4.0888,-4.0888,-4.0888,-4.0888,-4.0907,-4.0888,-4.0888,-4.0966,-4.1238,-4.1587,-4.2194,-4.25,-4.2966,-4.3394,-4.3763,-4.3938,-4.4074,-4.4287,-4.4481,-4.454,-4.4656,-4.5006,-4.5186,-4.5555,-4.5691,-4.5846,-4.5808,-4.5394,-4.5006,-4.4307,-4.4443,-4.4481,-4.4501,-4.4598,-4.4928,-4.522,-4.5414,-4.5652,-4.5944,-4.5982,-4.5982,-4.5982,-4.5982,-5.1445,-5.1601,-5.2363,-5.2304,-5.1835,-5.2575,-5.2595,-5.2106,-5.2673,-5.2965,-5.3043,-5.3668,-5.3122,-5.2788,-5.1911,-5.1206,-5.0386,-4.9938,-4.9333,-4.9198,-4.8906,-4.8242,-4.697,-4.6677,-4.6482,-4.6345,-4.6305,-4.6305,-4.6306,-4.6306,-4.6306,-4.6269,-4.623,-4.5879,-4.5332,-4.498,-4.4121,-4.3066,-4.2441,-4.1972,-4.1445,-4.1249,-4.113,-4.1129,-4.1108,-4.1102,-4.1111,-4.1092,-4.1064,-4.102,-4.1023,-4.0999,-4.0987,-4.0921,-4.0912,-4.0888,-4.0888,-4.0888,-4.0888,-4.0888,-4.0888,-4.0888,-4.0888,-4.0888,-4.0888,-4.0888,-4.0888,-4.0888,-4.0888,-4.0888,-4.0888,-4.0888,-4.0888,-4.0888,-4.0888,-4.0927,-4.1024,-4.1024,-4.1024,-4.1102,-4.1801,-4.2272,-4.266,-4.3083,-4.3704,-4.4365,-4.4656,-4.4812,-4.4967,-4.5142,-4.5356,-4.5555,-4.5691,-4.5827,-4.5885,-4.5944,-4.5924,-4.5963,-4.5963,-4.5769,-4.5769,-4.5458,-4.5691,-4.5749,-4.5341,-4.5322,-4.5613,-4.5866,-4.5944,-4.5963,-4.5982,-4.5982,-4.5982,-4.5982,-4.5982,-5.1796,-5.244,-5.2616,-5.2986,-5.3551,-5.4352,-5.4626,-5.443,-5.4626,-5.4666,-5.4646,-5.4274,-5.3943,-5.3708,-5.3455,-5.2985,-5.2108,-5.1697,-5.1227,-4.988,-4.984,-4.9311,-4.8298,-4.7712,-4.697,-4.6541,-4.6307,-4.6307,-4.6287,-4.6288,-4.6306,-4.6306,-4.6287,-4.6227,-4.5953,-4.5348,-4.4898,-4.4234,-4.3162,-4.2401,-4.2011,-4.1504,-4.123,-4.1191,-4.1131,-4.1107,-4.1098,-4.1108,-4.1095,-4.1076,-4.1042,-4.1002,-4.1003,-4.0982,-4.0969,-4.0912,-4.0888,-4.0888,-4.0888,-4.0888,-4.0888,-4.0888,-4.0888,-4.0888,-4.0888,-4.0888,-4.0888,-4.0888,-4.0888,-4.0888,-4.0888,-4.0888,-4.0888,-4.0888,-4.0966,-4.1218,-4.1723,-4.1903,-4.1825,-4.2073,-4.2694,-4.3471,-4.4054,-4.4229,-4.4753,-4.5297,-4.5511,-4.5686,-4.5783,-4.5866,-4.5924,-4.5982,-4.5982,-4.5982,-4.5982,-4.5982,-4.5982,-4.5982,-4.5982,-4.5982,-4.5982,-4.5982,-4.5982,-4.5982,-4.5924,-4.5982,-4.5982,-4.5982,-4.5963,-4.5982,-4.5982,-4.5982,-4.5982,-4.5982,-4.5982,-5.1911,-5.273,-5.312,-5.3802,-5.4658,-5.5518,-5.5928,-5.5908,-5.5908,-5.5908,-5.583,-5.5381,-5.499,-5.4639,-5.458,-5.4132,-5.3351,-5.2843,-5.1983,-5.0928,-5.0691,-5.026,-4.9573,-4.8928,-4.8188,-4.7061,-4.6478,-4.6321,-4.6301,-4.6301,-4.6302,-4.6301,-4.6301,-4.6283,-4.6301,-4.5813,-4.5403,-4.4916,-4.4135,-4.3277,-4.2438,-4.201,-4.1504,-4.1269,-4.1151,-4.111,-4.1106,-4.1101,-4.1114,-4.1081,-4.1066,-4.1031,-4.1015,-4.0984,-4.0978,-4.0969,-4.0912,-4.0907,-4.0888,-4.0888,-4.0888,-4.0888,-4.0888,-4.0888,-4.0888,-4.0888,-4.0888,-4.0888,-4.0888,-4.0888,-4.0888,-4.0888,-4.0888,-4.0985,-4.1276,-4.1704,-4.2097,-4.2214,-4.2408,-4.2811,-4.3569,-4.4171,-4.4676,-4.5025,-4.5341,-4.5691,-4.571,-4.5866,-4.5866,-4.5944,-4.5963,-4.5982,-4.5982,-4.5982,-4.5982,-4.5982,-4.5982,-4.5982,-4.5982,-4.5982,-4.5982,-4.5982,-4.5982,-4.6002,-4.6002,-4.6002,-4.5982,-4.5982,-4.6007,-4.5982,-4.5982,-4.5982,-4.6002,-4.6007,-4.6002,-5.2004,-5.2979,-5.3838,-5.4696,-5.5535,-5.6257,-5.655,-5.657,-5.6609,-5.649,-5.6589,-5.6609,-5.6001,-5.5631,-5.5514,-5.5008,-5.4129,-5.3074,-5.2172,-5.1681,-5.1328,-5.0896,-5.0344,-4.9915,-4.9274,-4.7957,-4.7059,-4.661,-4.6357,-4.6299,-4.6297,-4.6299,-4.6299,-4.6297,-4.6299,-4.6261,-4.5926,-4.5341,-4.4932,-4.4288,-4.3059,-4.2613,-4.1932,-4.1308,-4.1133,-4.1112,-4.1111,-4.1109,-4.1104,-4.1115,-4.1111,-4.107,-4.1031,-4.0995,-4.0991,-4.0991,-4.095,-4.0917,-4.0888,-4.0888,-4.0888,-4.0888,-4.0888,-4.0888,-4.0888,-4.0888,-4.0888,-4.0888,-4.0888,-4.0888,-4.0888,-4.0888,-4.0985,-4.1218,-4.1825,-4.2252,-4.2563,-4.2583,-4.3102,-4.3627,-4.4404,-4.5025,-4.5239,-4.5497,-4.5788,-4.5982,-4.5982,-4.5982,-4.5982,-4.5982,-4.5982,-4.5982,-4.5982,-4.5982,-4.5982,-4.6037,-4.6037,-4.6017,-4.6012,-4.6017,-4.6017,-4.6027,-4.6027,-4.6007,-4.6021,-4.6007,-4.6017,-4.6027,-4.6022,-4.6012,-4.6017,-4.6032,-4.6027,-4.6032,-4.6012,-5.2332,-5.387,-5.4729,-5.5583,-5.6339,-5.6552,-5.6612,-5.661,-5.6612,-5.661,-5.6612,-5.661,-5.6515,-5.6339,-5.6356,-5.5851,-5.4584,-5.3356,-5.2553,-5.2161,-5.173,-5.1182,-5.1004,-5.0514,-4.9952,-4.9366,-4.8179,-4.7068,-4.6502,-4.6305,-4.6288,-4.6306,-4.6306,-4.6306,-4.6287,-4.6285,-4.623,-4.5859,-4.5432,-4.483,-4.4206,-4.3155,-4.2125,-4.1385,-4.1269,-4.1211,-4.1152,-4.1132,-4.111,-4.1108,-4.1098,-4.1083,-4.1061,-4.1025,-4.1002,-4.0984,-4.0982,-4.095,-4.0917,-4.0888,-4.0888,-4.0888,-4.0888,-4.0888,-4.0888,-4.0888,-4.0888,-4.0888,-4.0907,-4.0907,-4.0888,-4.1024,-4.1335,-4.1767,-4.2291,-4.2874,-4.3865,-4.4248,-4.4248,-4.4598,-4.5264,-4.571,-4.573,-4.5749,-4.5885,-4.5982,-4.5982,-4.5982,-4.5982,-4.5982,-4.5982,-4.5982,-4.5982,-4.5982,-4.5982,-4.6061,-4.6095,-4.6081,-4.6085,-4.6075,-4.6075,-4.6065,-4.608,-4.6056,-4.6066,-4.6071,-4.6081,-4.6071,-4.6071,-4.6066,-4.6075,-4.608,-4.6071,-4.6066,-4.6071,-5.2147,-5.3432,-5.474,-5.581,-5.6528,-5.6604,-5.6604,-5.6604,-5.6604,-5.6604,-5.6604,-5.6604,-5.6604,-5.6489,-5.6059,-5.522,-5.3971,-5.3212,-5.245,-5.2019,-5.159,-5.1394,-5.1394,-5.0906,-5.0514,-4.9889,-4.8798,-4.7764,-4.6983,-4.6497,-4.6341,-4.6302,-4.6302,-4.6302,-4.6302,-4.6302,-4.6302,-4.6165,-4.5875,-4.5428,-4.4959,-4.3676,-4.2706,-4.2026,-4.1716,-4.1561,-4.1191,-4.1172,-4.1132,-4.1111,-4.1105,-4.1115,-4.1099,-4.1074,-4.1055,-4.1007,-4.0999,-4.0982,-4.0945,-4.0917,-4.0888,-4.0888,-4.0888,-4.0888,-4.0888,-4.0888,-4.0907,-4.0927,-4.0927,-4.1102,-4.1529,-4.1548,-4.1995,-4.2733,-4.3224,-4.386,-4.4617,-4.5122,-4.5297,-4.5356,-4.5652,-4.5885,-4.5924,-4.5944,-4.5982,-4.5982,-4.5982,-4.6002,-4.6002,-4.6007,-4.6007,-4.6012,-4.6017,-4.6047,-4.6032,-4.609,-4.6123,-4.6128,-4.6117,-4.613,-4.6184,-4.6193,-4.6137,-4.6075,-4.6095,-4.6424,-4.6104,-4.6089,-4.6113,-4.6122,-4.6102,-4.6102,-4.6117,-4.6117,-4.6126,-5.1863,-5.3093,-5.4637,-5.5806,-5.6528,-5.6604,-5.6604,-5.6604,-5.6604,-5.6604,-5.6584,-5.6391,-5.6294,-5.6098,-5.5357,-5.4283,-5.2938,-5.286,-5.2351,-5.1902,-5.1511,-5.1394,-5.1394,-5.1316,-5.1023,-5.0416,-4.9208,-4.8388,-4.7471,-4.669,-4.6339,-4.6302,-4.6302,-4.6302,-4.6302,-4.6302,-4.6302,-4.6302,-4.6282,-4.5851,-4.5033,-4.4314,-4.354,-4.2763,-4.2671,-4.234,-4.1932,-4.1894,-4.1699,-4.1562,-4.1422,-4.13,-4.1151,-4.1111,-4.1081,-4.1042,-4.1019,-4.0995,-4.0978,-4.0941,-4.0888,-4.0888,-4.0888,-4.0888,-4.0888,-4.0927,-4.0985,-4.1102,-4.1218,-4.1607,-4.2287,-4.2442,-4.2889,-4.3607,-4.4326,-4.4889,-4.5161,-4.5511,-4.5769,-4.5866,-4.5982,-4.5982,-4.5982,-4.5982,-4.5982,-4.5982,-4.6002,-4.6032,-4.6032,-4.6037,-4.6042,-4.6047,-4.6056,-4.6095,-4.6104,-4.6122,-4.6154,-4.6158,-4.6154,-4.615,-4.6259,-4.6353,-4.638,-4.6598,-4.6972,-4.7198,-4.6672,-4.6158,-4.6142,-4.615,-4.6131,-4.6131,-4.6146,-4.615,-4.615,-5.1668,-5.3912,-5.4869,-5.5806,-5.6508,-5.6586,-5.6604,-5.6604,-5.6604,-5.6604,-5.6547,-5.5825,-5.5493,-5.5162,-5.4537,-5.4029,-5.3541,-5.2897,-5.245,-5.2136,-5.1668,-5.1394,-5.1394,-5.1394,-5.1336,-5.077,-4.952,-4.8447,-4.7645,-4.6807,-4.6319,-4.6302,-4.6302,-4.6302,-4.6302,-4.6302,-4.6302,-4.6302,-4.6302,-4.589,-4.5207,-4.4933,-4.4392,-4.3792,-4.3542,-4.3409,-4.3122,-4.3046,-4.2871,-4.2305,-4.2245,-4.187,-4.1293,-4.1103,-4.11,-4.107,-4.1029,-4.0984,-4.1006,-4.0945,-4.0907,-4.0907,-4.0888,-4.0888,-4.1024,-4.1102,-4.1315,-4.2,-4.2058,-4.2461,-4.3141,-4.3335,-4.384,-4.4307,-4.4831,-4.5302,-4.5652,-4.5672,-4.5944,-4.5982,-4.5982,-4.5982,-4.5982,-4.5982,-4.5982,-4.5982,-4.6002,-4.6037,-4.6066,-4.6071,-4.609,-4.6084,-4.6098,-4.613,-4.615,-4.6162,-4.6189,-4.6192,-4.6346,-4.6362,-4.6593,-4.6865,-4.7245,-4.7499,-4.7852,-4.7772,-4.7177,-4.669,-4.6348,-4.6465,-4.6807,-4.6579,-4.6198,-4.6217,-4.6368,-5.0594,-5.2683,-5.4517,-5.5493,-5.5903,-5.6372,-5.6604,-5.6604,-5.6604,-5.6604,-5.643,-5.5669,-5.4793,-5.3953,-5.3385,-5.2975,-5.2546,-5.2175,-5.198,-5.1999,-5.1609,-5.1394,-5.1394,-5.1394,-5.1394,-5.0887,-4.9774,-4.8779,-4.792,-4.7002,-4.6302,-4.6302,-4.6302,-4.6302,-4.6302,-4.6302,-4.6302,-4.6302,-4.6262,-4.6105,-4.5831,-4.5656,-4.5306,-4.4507,-4.4434,-4.4188,-4.3881,-4.3689,-4.3554,-4.3144,-4.3144,-4.3004,-4.2685,-4.2594,-4.2596,-4.259,-4.2536,-4.2034,-4.1182,-4.1041,-4.1042,-4.0951,-4.0985,-4.1121,-4.1451,-4.1665,-4.1995,-4.285,-4.2928,-4.3374,-4.4015,-4.4229,-4.4734,-4.5161,-4.5356,-4.5536,-4.5846,-4.5905,-4.5982,-4.5982,-4.5982,-4.5982,-4.6002,-4.6007,-4.6007,-4.6026,-4.6037,-4.6071,-4.6081,-4.609,-4.6117,-4.615,-4.6158,-4.6165,-4.6187,-4.6186,-4.6245,-4.6368,-4.6925,-4.6994,-4.7194,-4.7489,-4.7984,-4.8242,-4.8439,-4.8162,-4.7667,-4.7584,-4.7565,-4.7608,-4.7669,-4.7359,-4.7049,-4.6893,-4.6908,-4.9696,-5.1297,-5.3659,-5.489,-5.5359,-5.6001,-5.6411,-5.6604,-5.6604,-5.6489,-5.6001,-5.5064,-5.3719,-5.2665,-5.237,-5.2078,-5.1492,-5.1394,-5.1394,-5.1394,-5.1394,-5.1394,-5.1394,-5.1394,-5.1258,-5.1043,-4.954,-4.8642,-4.7978,-4.7139,-4.6302,-4.6302,-4.6302,-4.6302,-4.6302,-4.6302,-4.6302,-4.6302,-4.6302,-4.6262,-4.6223,-4.6243,-4.589,-4.5521,-4.5252,-4.5004,-4.4463,-4.4429,-4.4432,-4.4043,-4.4023,-4.3885,-4.3567,-4.3441,-4.3443,-4.3419,-4.335,-4.2948,-4.219,-4.1851,-4.1615,-4.1577,-4.1568,-4.2015,-4.2384,-4.2539,-4.2889,-4.3743,-4.3821,-4.4268,-4.4831,-4.5103,-4.5336,-4.5672,-4.5885,-4.5963,-4.5982,-4.5982,-4.5982,-4.5982,-4.5982,-4.5982,-4.6002,-4.6012,-4.6032,-4.6056,-4.6066,-4.6105,-4.6128,-4.6126,-4.6158,-4.619,-4.6183,-4.6186,-4.6198,-4.6231,-4.6275,-4.6652,-4.7227,-4.7684,-4.7941,-4.8433,-4.9,-4.9142,-4.9184,-4.9436,-4.9449,-4.9151,-4.8816,-4.8509,-4.8259,-4.8241,-4.8065,-4.7831,-4.7283,-4.9325,-5.0338,-5.2136,-5.3797,-5.5203,-5.5359,-5.5825,-5.6352,-5.6487,-5.5981,-5.5083,-5.3737,-5.2565,-5.1765,-5.1629,-5.155,-5.1394,-5.1394,-5.1394,-5.1394,-5.1394,-5.1394,-5.1394,-5.1297,-5.0984,-5.0262,-4.9247,-4.8447,-4.7686,-4.6905,-4.6378,-4.6302,-4.6302,-4.6302,-4.6302,-4.6302,-4.6302,-4.6302,-4.6302,-4.6302,-4.6302,-4.6302,-4.6204,-4.6184,-4.6165,-4.6149,-4.6097,-4.5889,-4.5562,-4.494,-4.4902,-4.4667,-4.4291,-4.4168,-4.4174,-4.4126,-4.407,-4.3803,-4.3463,-4.3119,-4.3185,-4.3263,-4.3194,-4.3063,-4.3374,-4.3413,-4.384,-4.454,-4.4676,-4.5025,-4.5555,-4.5905,-4.5846,-4.5885,-4.5982,-4.5982,-4.5982,-4.5982,-4.5982,-4.5982,-4.6002,-4.6002,-4.6012,-4.6042,-4.6066,-4.6085,-4.6104,-4.6141,-4.6158,-4.6176,-4.618,-4.6203,-4.6197,-4.6201,-4.6225,-4.6351,-4.669,-4.7224,-4.7835,-4.8327,-4.874,-4.9327,-4.9991,-5.0129,-5.0247,-5.0754,-5.0988,-5.0244,-4.9579,-4.9093,-4.8899,-4.9114,-4.8801,-4.8352,-4.7589,-4.8874,-5.0163,-5.0848,-5.2097,-5.3758,-5.4283,-5.4693,-5.4966,-5.5005,-5.4517,-5.37,-5.2956,-5.2214,-5.159,-5.1394,-5.1394,-5.1394,-5.1394,-5.1394,-5.1394,-5.1394,-5.1394,-5.1394,-5.1258,-5.0965,-5.0046,-4.9189,-4.8388,-4.7606,-4.671,-4.6397,-4.6302,-4.6302,-4.6302,-4.6302,-4.6302,-4.6302,-4.6302,-4.6302,-4.6302,-4.6302,-4.6302,-4.6302,-4.6302,-4.6302,-4.6305,-4.6254,-4.6279,-4.6069,-4.5877,-4.5781,-4.5468,-4.5229,-4.5168,-4.5134,-4.5085,-4.5033,-4.5017,-4.4748,-4.4213,-4.3572,-4.3496,-4.3505,-4.3763,-4.421,-4.4287,-4.4734,-4.522,-4.5472,-4.5691,-4.5846,-4.5982,-4.5963,-4.5982,-4.5982,-4.5982,-4.5982,-4.5982,-4.5982,-4.5982,-4.6007,-4.6007,-4.6042,-4.6071,-4.6095,-4.612,-4.6141,-4.6177,-4.6193,-4.6217,-4.6214,-4.6228,-4.6239,-4.6246,-4.6249,-4.6684,-4.7158,-4.7805,-4.8413,-4.9039,-4.9606,-5.035,-5.0917,-5.1073,-5.1053,-5.1171,-5.1093,-5.08,-5.0428,-5.0115,-5.0115,-5.0272,-4.9745,-4.8944,-4.8143,-4.8289,-4.9382,-4.9909,-5.1102,-5.2704,-5.3346,-5.3756,-5.3971,-5.4049,-5.3522,-5.2685,-5.2431,-5.1999,-5.1511,-5.1394,-5.1394,-5.1394,-5.1394,-5.1394,-5.1394,-5.1394,-5.1394,-5.1316,-5.1004,-5.0438,-4.9694,-4.8855,-4.7996,-4.712,-4.6573,-4.6358,-4.6302,-4.6302,-4.6302,-4.6302,-4.6302,-4.6302,-4.6302,-4.6302,-4.6302,-4.6302,-4.6302,-4.6302,-4.6302,-4.6302,-4.6303,-4.6291,-4.6297,-4.6283,-4.6228,-4.623,-4.6249,-4.6267,-4.6281,-4.627,-4.623,-4.6203,-4.6177,-4.5772,-4.5181,-4.4307,-4.4467,-4.4404,-4.4695,-4.4967,-4.5161,-4.5453,-4.5769,-4.5944,-4.5982,-4.5982,-4.5982,-4.5982,-4.5982,-4.5982,-4.5982,-4.5982,-4.5982,-4.5982,-4.6002,-4.6007,-4.6032,-4.6085,-4.6123,-4.6145,-4.6154,-4.6177,-4.6213,-4.6226,-4.6243,-4.6255,-4.6266,-4.6276,-4.628,-4.6323,-4.6929,-4.7556,-4.8318,-4.9002,-4.9882,-5.0546,-5.1172,-5.1386,-5.1289,-5.1269,-5.1367,-5.1269,-5.1054,-5.1133,-5.1249,-5.1133,-5.0898,-5.0293,-4.9492,-4.8965,-4.7625,-4.7859,-4.9382,-5.0984,-5.2372,-5.2704,-5.3132,-5.3659,-5.3737,-5.3307,-5.2489,-5.1863,-5.1531,-5.1394,-5.1394,-5.1394,-5.1394,-5.1394,-5.1394,-5.1394,-5.1394,-5.1394,-5.1121,-5.0672,-4.995,-4.8896,-4.8154,-4.7393,-4.6456,-4.6378,-4.6302,-4.6302,-4.6302,-4.6302,-4.6302,-4.6302,-4.6302,-4.6302,-4.6302,-4.6302,-4.6302,-4.6302,-4.6302,-4.6302,-4.6302,-4.6302,-4.6306,-4.6297,-4.6302,-4.6304,-4.6288,-4.6289,-4.6307,-4.6303,-4.6273,-4.621,-4.6214,-4.6177,-4.6067,-4.594,-4.5721,-4.5555,-4.5361,-4.5594,-4.5827,-4.5905,-4.5827,-4.5982,-4.5982,-4.5982,-4.5982,-4.5982,-4.5982,-4.5982,-4.5982,-4.5982,-4.5982,-4.5982,-4.5982,-4.6002,-4.6007,-4.6037,-4.6099,-4.6154,-4.6185,-4.6203,-4.6193,-4.622,-4.6269,-4.6264,-4.6273,-4.6277,-4.6303,-4.6305,-4.6443,-4.7226,-4.7949,-4.873,-4.957,-5.0449,-5.0937,-5.1249,-5.1385,-5.1385,-5.1384,-5.1384,-5.1402,-5.136,-5.1384,-5.1386,-5.1386,-5.1132,-5.0565,-5.0115,-4.9665,-4.7081,-4.7664,-4.8211,-4.9091,-5.0204,-5.1375,-5.2019,-5.2234,-5.2253,-5.2117,-5.1843,-5.1472,-5.1394,-5.1394,-5.1394,-5.1394,-5.1394,-5.1394,-5.1394,-5.1394,-5.1394,-5.1394,-5.1121,-5.0514,-4.9636,-4.8818,-4.7978,-4.7139,-4.6339,-4.6302,-4.6302,-4.6302,-4.6302,-4.6302,-4.6302,-4.6302,-4.6302,-4.6302,-4.6302,-4.6302,-4.6302,-4.6302,-4.6302,-4.6302,-4.6302,-4.6302,-4.6302,-4.6296,-4.6301,-4.6302,-4.6288,-4.6289,-4.6288,-4.6305,-4.6274,-4.6214,-4.6194,-4.618,-4.6119,-4.6027,-4.6042,-4.6007,-4.5982,-4.5982,-4.5982,-4.5982,-4.5982,-4.5982,-4.5982,-4.5982,-4.5982,-4.5982,-4.5982,-4.5982,-4.5982,-4.5982,-4.5982,-4.5982,-4.6002,-4.6007,-4.6032,-4.6085,-4.6145,-4.6165,-4.6193,-4.6223,-4.6233,-4.6243,-4.628,-4.6277,-4.6284,-4.6286,-4.6288,-4.6289,-4.6582,-4.7519,-4.8261,-4.8964,-4.9959,-5.0992,-5.1343,-5.1402,-5.1402,-5.1401,-5.14,-5.1398,-5.1396,-5.1396,-5.1399,-5.1402,-5.1402,-5.1402,-5.1049,-5.0775,-5.0599,-4.6632,-4.7176,-4.749,-4.7879,-4.8564,-4.9911,-5.0633,-5.0965,-5.1238,-5.1394,-5.1414,-5.1394,-5.1394,-5.1394,-5.1394,-5.1394,-5.1394,-5.1394,-5.1394,-5.1394,-5.1394,-5.1394,-5.1121,-5.0514,-4.9638,-4.8798,-4.7978,-4.7159,-4.6341,-4.6302,-4.6302,-4.6302,-4.6302,-4.6302,-4.6302,-4.6302,-4.6302,-4.6302,-4.6302,-4.6302,-4.6302,-4.6302,-4.6302,-4.6302,-4.6302,-4.6302,-4.6305,-4.6294,-4.6301,-4.6304,-4.6288,-4.6289,-4.6288,-4.6284,-4.6277,-4.6241,-4.6206,-4.619,-4.6138,-4.6108,-4.6085,-4.6042,-4.6007,-4.5982,-4.5982,-4.5982,-4.5982,-4.5982,-4.5982,-4.5982,-4.5982,-4.5982,-4.5982,-4.5982,-4.5982,-4.5982,-4.6002,-4.6002,-4.6012,-4.6037,-4.6056,-4.6132,-4.6174,-4.619,-4.6201,-4.6245,-4.6262,-4.6287,-4.6291,-4.6302,-4.6288,-4.6289,-4.6406,-4.6504,-4.703,-4.7986,-4.8669,-4.9215,-5.0228,-5.1319,-5.1397,-5.1398,-5.1397,-5.1395,-5.1393,-5.139,-5.1391,-5.1391,-5.1391,-5.1389,-5.1387,-5.1389,-5.1391,-5.1255,-5.1079,-4.63,-4.6436,-4.7215,-4.7508,-4.7703,-4.8504,-4.9284,-5.0104,-5.0887,-5.1199,-5.1219,-5.1082,-5.1082,-5.1258,-5.1297,-5.1336,-5.1394,-5.1394,-5.1394,-5.1394,-5.1394,-5.1394,-5.1121,-5.0494,-4.9638,-4.8818,-4.7978,-4.7159,-4.6378,-4.6302,-4.6302,-4.6302,-4.6302,-4.6302,-4.6302,-4.6302,-4.6302,-4.6302,-4.6302,-4.6302,-4.6302,-4.6302,-4.6302,-4.6302,-4.6302,-4.6302,-4.6305,-4.6294,-4.63,-4.6304,-4.6288,-4.6289,-4.6289,-4.6306,-4.6301,-4.6285,-4.6242,-4.6203,-4.6174,-4.6149,-4.6108,-4.6085,-4.6042,-4.6012,-4.5982,-4.5982,-4.5982,-4.5982,-4.5982,-4.5982,-4.5982,-4.5982,-4.5982,-4.5982,-4.5982,-4.6002,-4.6007,-4.6032,-4.6042,-4.6056,-4.609,-4.6145,-4.6192,-4.6209,-4.6238,-4.6259,-4.6273,-4.6281,-4.6303,-4.6305,-4.6289,-4.6289,-4.6464,-4.6756,-4.7438,-4.8257,-4.9017,-4.9543,-5.0459,-5.1393,-5.1394,-5.1393,-5.139,-5.1387,-5.14,-5.1398,-5.14,-5.1396,-5.1392,-5.1388,-5.1386,-5.1388,-5.1392,-5.1392,-5.1254,-4.6238,-4.6258,-4.6492,-4.6589,-4.6726,-4.7515,-4.8381,-4.9189,-4.9462,-4.956,-4.954,-4.954,-5.0028,-5.0455,-5.0455,-5.0867,-5.1219,-5.1394,-5.1394,-5.1394,-5.1394,-5.1394,-5.1121,-5.0553,-4.9677,-4.8837,-4.7998,-4.7237,-4.6475,-4.6302,-4.6302,-4.6302,-4.6302,-4.6302,-4.6302,-4.6302,-4.6302,-4.6302,-4.6302,-4.6302,-4.6302,-4.6302,-4.6302,-4.6302,-4.6302,-4.6302,-4.6305,-4.6291,-4.6297,-4.6303,-4.6306,-4.6288,-4.6289,-4.6288,-4.6303,-4.6303,-4.625,-4.6209,-4.6212,-4.6189,-4.6154,-4.6117,-4.608,-4.6052,-4.6017,-4.6007,-4.6007,-4.6012,-4.6012,-4.6017,-4.6017,-4.6017,-4.6017,-4.6017,-4.6017,-4.6022,-4.6042,-4.6071,-4.6081,-4.6089,-4.6126,-4.6165,-4.6203,-4.625,-4.6275,-4.629,-4.63,-4.6306,-4.6288,-4.6289,-4.6289,-4.6289,-4.6443,-4.6734,-4.7474,-4.831,-4.9129,-4.9907,-5.0783,-5.1387,-5.1384,-5.1403,-5.14,-5.1396,-5.1392,-5.1388,-5.1386,-5.1401,-5.1399,-5.1389,-5.1386,-5.1386,-5.1386,-5.1389,-5.1369,-4.6206,-4.6206,-4.6206,-4.6206,-4.6306,-4.676,-4.7316,-4.783,-4.8482,-4.8798,-4.8798,-4.8837,-4.9286,-5.0065,-5.0182,-5.0573,-5.1355,-5.1394,-5.1394,-5.1394,-5.1394,-5.1394,-5.1141,-5.0789,-4.995,-4.9052,-4.8213,-4.7549,-4.6632,-4.6302,-4.6302,-4.6302,-4.6302,-4.63,-4.6302,-4.6302,-4.6302,-4.6302,-4.6302,-4.6302,-4.6302,-4.6302,-4.6302,-4.6302,-4.6302,-4.6302,-4.6302,-4.6288,-4.6296,-4.6301,-4.6305,-4.6288,-4.6289,-4.6288,-4.6302,-4.6285,-4.6269,-4.6223,-4.6206,-4.6213,-4.6173,-4.615,-4.6142,-4.6117,-4.6075,-4.6042,-4.6037,-4.6042,-4.6056,-4.6052,-4.6052,-4.6052,-4.6052,-4.6052,-4.6056,-4.6042,-4.6066,-4.6114,-4.6117,-4.6142,-4.6173,-4.6206,-4.6253,-4.6273,-4.6287,-4.63,-4.6305,-4.6289,-4.6289,-4.6289,-4.6289,-4.6288,-4.6461,-4.6691,-4.7566,-4.8499,-4.9355,-5.0172,-5.0914,-5.1379,-5.1394,-5.1392,-5.1394,-5.139,-5.1388,-5.1401,-5.1391,-5.1389,-5.1386,-5.1394,-5.1362,-5.1362,-5.1346,-5.1346,-5.1343,-4.6178,-4.6198,-4.6201,-4.6195,-4.6201,-4.6259,-4.6281,-4.6384,-4.783,-4.8543,-4.8482,-4.8523,-4.8873,-4.9417,-4.9692,-5.0299,-5.0963,-5.1258,-5.1394,-5.1394,-5.1394,-5.1394,-5.1375,-5.118,-5.0028,-4.9189,-4.8388,-4.7567,-4.6649,-4.6298,-4.6296,-4.63,-4.6277,-4.6275,-4.6273,-4.6275,-4.6273,-4.6273,-4.6275,-4.6275,-4.63,-4.6302,-4.6302,-4.6302,-4.6302,-4.6302,-4.6302,-4.6288,-4.6295,-4.6301,-4.6305,-4.6288,-4.6289,-4.6288,-4.6301,-4.6293,-4.6282,-4.6251,-4.6216,-4.6206,-4.6212,-4.6196,-4.6203,-4.6169,-4.6111,-4.6069,-4.608,-4.608,-4.6075,-4.6075,-4.6075,-4.6075,-4.6075,-4.6075,-4.608,-4.6093,-4.6126,-4.6142,-4.615,-4.617,-4.6215,-4.6258,-4.6273,-4.6288,-4.63,-4.6306,-4.6289,-4.6289,-4.6288,-4.6306,-4.6286,-4.6285,-4.6419,-4.6803,-4.7985,-4.8898,-4.9694,-5.0473,-5.1137,-5.1369,-5.1381,-5.1384,-5.1388,-5.1401,-5.1394,-5.1386,-5.1397,-5.1375,-5.1349,-5.1336,-5.1326,-5.13,-5.1319,-5.1323,-5.1323,-4.6127,-4.6107,-4.6127,-4.6127,-4.6115,-4.616,-4.6209,-4.6213,-4.6596,-4.6899,-4.6821,-4.694,-4.7413,-4.8296,-4.8923,-4.9608,-5.0414,-5.1019,-5.1336,-5.1392,-5.1392,-5.1273,-5.1197,-5.0746,-4.9831,-4.8954,-4.8133,-4.7348,-4.6544,-4.6288,-4.6284,-4.6238,-4.6238,-4.624,-4.624,-4.624,-4.624,-4.624,-4.624,-4.6249,-4.6277,-4.63,-4.6302,-4.63,-4.63,-4.6298,-4.63,-4.6302,-4.6288,-4.6295,-4.6301,-4.6306,-4.6289,-4.6288,-4.6306,-4.6303,-4.6296,-4.6288,-4.6262,-4.6234,-4.6221,-4.6214,-4.6203,-4.6176,-4.6154,-4.6127,-4.6122,-4.6122,-4.6122,-4.6122,-4.6126,-4.6126,-4.6126,-4.6126,-4.6126,-4.6146,-4.6181,-4.6187,-4.617,-4.6209,-4.6264,-4.628,-4.6291,-4.6301,-4.6287,-4.6289,-4.6287,-4.6304,-4.6302,-4.63,-4.6277,-4.6295,-4.6335,-4.6895,-4.8172,-4.9198,-4.9935,-5.0613,-5.1255,-5.1389,-5.1389,-5.1391,-5.1391,-5.1386,-5.1397,-5.1372,-5.1366,-5.134,-5.131,-5.13,-5.1292,-5.1308,-5.1308,-5.1308,-5.1304,-4.6047,-4.6047,-4.6075,-4.6108,-4.6122,-4.6142,-4.6154,-4.6158,-4.6157,-4.6164,-4.6174,-4.6254,-4.666,-4.7406,-4.8033,-4.8991,-4.9916,-5.054,-5.1006,-5.1262,-5.121,-5.1069,-5.074,-5.0232,-4.9252,-4.8376,-4.7437,-4.6652,-4.6297,-4.6258,-4.6233,-4.6206,-4.6206,-4.6206,-4.6206,-4.6206,-4.6206,-4.6206,-4.6206,-4.6214,-4.6247,-4.6247,-4.6249,-4.6247,-4.6267,-4.6269,-4.6269,-4.6271,-4.63,-4.629,-4.6297,-4.6304,-4.6288,-4.6289,-4.6289,-4.6307,-4.6303,-4.63,-4.6277,-4.6252,-4.6243,-4.6239,-4.6236,-4.623,-4.6192,-4.6161,-4.6174,-4.617,-4.6167,-4.6167,-4.6167,-4.6167,-4.6167,-4.6167,-4.6167,-4.6177,-4.6212,-4.6231,-4.6245,-4.6257,-4.6287,-4.6277,-4.6303,-4.6306,-4.6289,-4.6287,-4.6301,-4.6295,-4.6293,-4.6327,-4.6303,-4.6475,-4.6651,-4.7213,-4.8408,-4.9338,-5.0079,-5.0734,-5.1372,-5.1394,-5.1397,-5.1397,-5.1394,-5.1369,-5.1343,-5.1336,-5.131,-5.1303,-5.13,-5.1308,-5.1304,-5.13,-5.13,-5.13,-5.13,-4.5972,-4.6016,-4.6037,-4.6076,-4.608,-4.608,-4.608,-4.6084,-4.6089,-4.6089,-4.6106,-4.6167,-4.668,-4.7098,-4.7546,-4.8602,-4.9369,-4.9745,-5.0366,-5.07,-5.0845,-5.0416,-5.0003,-4.9613,-4.8518,-4.7579,-4.6718,-4.6423,-4.6223,-4.6223,-4.6223,-4.6203,-4.6203,-4.6201,-4.6203,-4.6201,-4.6198,-4.6195,-4.6215,-4.6198,-4.6203,-4.6206,-4.6209,-4.6209,-4.6206,-4.6206,-4.6231,-4.6238,-4.6269,-4.6278,-4.6291,-4.6301,-4.6305,-4.6288,-4.6289,-4.6289,-4.6288,-4.6306,-4.6284,-4.6283,-4.628,-4.6296,-4.6295,-4.6269,-4.6236,-4.621,-4.6223,-4.6219,-4.6214,-4.6206,-4.6206,-4.6206,-4.6206,-4.6211,-4.6211,-4.6216,-4.6249,-4.628,-4.6288,-4.6296,-4.6302,-4.6287,-4.6289,-4.6289,-4.6287,-4.6301,-4.6295,-4.6287,-4.6318,-4.637,-4.6384,-4.6865,-4.735,-4.8025,-4.8758,-4.9516,-5.0277,-5.0833,-5.1356,-5.1382,-5.1385,-5.1359,-5.1353,-5.133,-5.1303,-5.13,-5.1296,-5.1308,-5.13,-5.13,-5.13,-5.13,-5.13,-5.13,-5.13,-4.591,-4.591,-4.5935,-4.5941,-4.5953,-4.6014,-4.6019,-4.6025,-4.6007,-4.6047,-4.6085,-4.6099,-4.6294,-4.6498,-4.7258,-4.7951,-4.8278,-4.8772,-4.9015,-4.9254,-4.9636,-4.9346,-4.8914,-4.8437,-4.7454,-4.6769,-4.6334,-4.6256,-4.6209,-4.6206,-4.6203,-4.6213,-4.6209,-4.6209,-4.6209,-4.6209,-4.6213,-4.6213,-4.6213,-4.6216,-4.62,-4.6209,-4.6206,-4.6206,-4.6206,-4.6206,-4.6209,-4.6209,-4.6211,-4.624,-4.6277,-4.6293,-4.6301,-4.6305,-4.6287,-4.6289,-4.6289,-4.6289,-4.6288,-4.6287,-4.6305,-4.6305,-4.6303,-4.6301,-4.6276,-4.6274,-4.6272,-4.6267,-4.6261,-4.6221,-4.6197,-4.6197,-4.6197,-4.621,-4.6216,-4.6245,-4.6291,-4.628,-4.6286,-4.6288,-4.6289,-4.6288,-4.6305,-4.6301,-4.6297,-4.6288,-4.628,-4.6269,-4.624,-4.6331,-4.646,-4.7153,-4.785,-4.8334,-4.8838,-4.9715,-5.0452,-5.0988,-5.1335,-5.1342,-5.1342,-5.1312,-5.1308,-5.1292,-5.1312,-5.1308,-5.13,-5.13,-5.13,-5.13,-5.13,-5.13,-5.13,-5.13,-5.13]},{"header":{"parameterUnit":"m.s-1","parameterCategory":1,"la1":31.0,"la2":29.5877,"lo1":-88.7671,"lo2":-86.6584,"dy":0.0162,"dx":0.0185,"nx":115,"ny":88,"refTime":"2024-04-14T06:00:00:Z","depth":0,"parameterNumber":3,"parameterNumberName":"V-component_of_WINDS"},"data":[0.0,0.0,0.0,0.0,0.0,0.0,0.0,0.0,0.0,0.0,0.0,0.0,0.0,0.0,0.0,0.0,0.0,0.0,0.0,0.0,0.0,0.0,0.0,0.0,0.0,0.0,0.0,0.0,0.0,0.0,0.0,0.0,0.0,0.0,0.0,0.0,0.0,0.0,0.0,0.0,0.0,0.0,0.0,0.0,0.0,0.0,0.0,0.0,0.0,0.0,0.0,0.0,0.0,0.0,0.0,0.0,0.0,0.0,0.0,0.0,0.0,0.0,0.0,0.0,0.0,0.0,0.0,0.0,0.0,0.0,0.0,0.0,0.0,0.0,0.0,0.0,0.0,0.0,0.0,0.0,0.0,0.0,0.0,0.0,0.0,0.0,0.0,0.0,0.0,0.0,0.0,0.0,0.0,0.0,0.0,0.0,0.0,0.0,0.0,0.0,0.0,0.0,0.0,0.0,0.0,0.0,0.0,0.0,0.0,0.0,0.0,0.0,0.0,0.0,0.0,0.0,0.0,0.0,0.0,0.0,0.0,0.0,0.0,0.0,0.0,0.0,0.0,0.0,0.0,0.0,0.0,0.0,0.0,0.0,0.0,0.0,0.0,0.0,0.0,0.0,0.0,0.0,0.0,0.0,0.0,0.0,0.0,0.0,0.0,0.0,0.0,0.0,0.0,0.0,0.0,0.0,0.0,0.0,0.0,0.0,0.0,0.0,0.0,0.0,0.0,0.0,0.0,0.0,0.0,0.0,0.0,0.0,0.0,0.0,0.0,0.0,0.0,0.0,0.0,0.0,0.0,0.0,0.0,0.0,0.0,0.0,0.0,0.0,0.0,0.0,0.0,0.0,0.0,0.0,0.0,0.0,0.0,0.0,0.0,0.0,0.0,0.0,0.0,0.0,0.0,0.0,0.0,0.0,0.0,0.0,0.0,0.0,0.0,0.0,0.0,0.0,0.0,0.0,0.0,0.0,0.0,0.0,0.0,0.0,0.0,0.0,0.0,0.0,0.0,0.0,0.0,0.0,0.0,0.0,0.0,0.0,0.0,0.0,0.0,0.0,0.0,0.0,0.0,0.0,0.0,0.0,0.0,0.0,0.0,0.0,0.0,0.0,0.0,0.0,0.0,0.0,0.0,0.0,0.0,0.0,0.0,0.0,0.0,0.0,0.0,0.0,0.0,0.0,0.0,0.0,0.0,0.0,0.0,0.0,0.0,0.0,0.0,0.0,0.0,0.0,0.0,0.0,0.0,0.0,0.0,0.0,0.0,0.0,0.0,0.0,0.0,0.0,0.0,0.0,0.0,0.0,0.0,0.0,0.0,0.0,0.0,0.0,0.0,0.0,0.0,0.0,0.0,0.0,0.0,0.0,0.0,0.0,0.0,0.0,0.0,0.0,0.0,0.0,0.0,0.0,0.0,0.0,0.0,0.0,0.0,0.0,0.0,0.0,0.0,0.0,0.0,0.0,0.0,0.0,0.0,0.0,0.0,0.0,0.0,0.0,0.0,0.0,0.0,0.0,0.0,0.0,0.0,0.0,0.0,0.0,0.0,0.0,0.0,0.0,0.0,0.0,0.0,0.0,0.0,0.0,0.0,0.0,0.0,0.0,0.0,0.0,0.0,0.0,0.0,0.0,0.0,0.0,0.0,0.0,0.0,0.0,0.0,0.0,0.0,0.0,0.0,0.0,0.0,0.0,0.0,0.0,0.0,0.0,0.0,0.0,0.0,0.0,0.0,0.0,0.0,0.0,0.0,0.0,0.0,0.0,0.0,0.0,0.0,0.0,0.0,0.0,0.0,0.0,0.0,0.0,0.0,0.0,0.0,0.0,0.0,0.0,0.0,0.0,0.0,0.0,0.0,0.0,0.0,0.0,0.0,0.0,0.0,0.0,0.0,0.0,0.0,0.0,0.0,0.0,0.0,0.0,0.0,0.0,0.0,0.0,0.0,0.0,0.0,0.0,0.0,0.0,0.0,0.0,0.0,0.0,0.0,0.0,0.0,0.0,0.0,0.0,0.0,0.0,0.0,0.0,0.0,0.0,0.0,0.0,0.0,0.0,0.0,0.0,0.0,0.0,0.0,0.0,0.0,0.0,0.0,0.0,0.0,0.0,0.0,0.0,0.0,0.0,0.0,0.0,0.0,0.0,0.0,0.0,0.0,0.0,0.0,0.0,0.0,0.0,0.0,0.0,0.0,0.0,0.0,0.0,0.0,0.0,0.0,0.0,0.0,0.0,0.0,0.0,0.0,0.0,0.0,0.0,0.0,0.0,0.0,0.0,0.0,0.0,0.0,0.0,0.0,0.0,0.0,0.0,0.0,0.0,0.0,0.0,0.0,0.0,0.0,0.0,0.0,0.0,0.0,0.0,0.0,0.0,0.0,0.0,0.0,0.0,0.0,0.0,0.0,0.0,0.0,0.0,0.0,0.0,0.0,0.0,0.0,0.0,0.0,0.0,0.0,0.0,0.0,0.0,0.0,0.0,0.0,0.0,0.0,0.0,0.0,0.0,0.0,0.0,0.0,0.0,0.0,0.0,0.0,0.0,0.0,0.0,0.0,0.0,0.0,0.0,0.0,0.0,0.0,0.0,0.0,0.0,0.0,0.0,0.0,0.0,0.0,0.0,0.0,0.0,0.0,0.0,0.0,0.0,0.0,0.0,0.0,0.0,0.0,0.0,0.0,0.0,0.0,0.0,0.0,0.0,0.0,0.0,0.0,0.0,0.0,0.0,0.0,0.0,0.0,0.0,0.0,0.0,0.0,0.0,0.0,0.0,0.0,0.0,0.0,0.0,0.0,0.0,0.0,0.0,0.0,0.0,0.0,0.0,0.0,0.0,0.0,0.0,0.0,0.0,0.0,0.0,0.0,0.0,0.0,0.0,0.0,0.0,0.0,0.0,0.0,0.0,0.0,0.0,0.0,0.0,0.0,0.0,0.0,0.0,0.0,0.0,0.0,0.0,0.0,0.0,0.0,0.0,0.0,0.0,0.0,0.0,0.0,0.0,0.0,0.0,0.0,0.0,0.0,0.0,0.0,0.0,0.0,0.0,0.0,0.0,0.0,0.0,0.0,0.0,0.0,0.0,0.0,0.0,0.0,0.0,0.0,0.0,0.0,0.0,0.0,0.0,0.0,0.0,0.0,0.0,0.0,0.0,0.0,0.0,0.0,0.0,0.0,0.0,0.0,0.0,0.0,0.0,0.0,0.0,0.0,0.0,0.0,0.0,0.0,0.0,0.0,0.0,0.0,0.0,0.0,0.0,0.0,0.0,0.0,0.0,0.0,0.0,0.0,0.0,0.0,0.0,0.0,0.0,0.0,0.0,0.0,0.0,0.0,0.0,0.0,0.0,0.0,0.0,0.0,0.0,0.0,0.0,0.0,0.0,0.0,0.0,0.0,0.0,0.0,0.0,0.0,0.0,0.0,0.0,0.0,0.0,0.0,0.0,0.0,0.0,0.0,0.0,0.0,0.0,0.0,0.0,0.0,0.0,0.0,0.0,0.0,0.0,0.0,0.0,0.0,0.0,0.0,0.0,0.0,0.0,0.0,0.0,0.0,0.0,0.0,0.0,0.0,0.0,0.0,0.0,0.0,0.0,0.0,0.0,0.0,0.0,0.0,0.0,0.0,0.0,0.0,0.0,0.0,0.0,0.0,0.0,0.0,0.0,0.0,0.0,0.0,0.0,0.0,0.0,0.0,0.0,0.0,0.0,0.0,0.0,0.0,0.0,0.0,0.0,0.0,0.0,0.0,0.0,0.0,0.0,0.0,0.0,0.0,0.0,0.0,0.0,0.0,0.0,0.0,0.0,0.0,0.0,0.0,0.0,0.0,0.0,0.0,0.0,0.0,0.0,0.0,0.0,0.0,0.0,0.0,0.0,0.0,0.0,0.0,0.0,0.0,0.0,0.0,0.0,0.0,0.0,0.0,0.0,0.0,0.0,0.0,0.0,0.0,0.0,0.0,0.0,0.0,0.0,0.0,0.0,0.0,0.0,0.0,0.0,0.0,0.0,0.0,0.0,0.0,0.0,0.0,0.0,0.0,0.0,0.0,0.0,0.0,0.0,0.0,0.0,0.0,0.0,0.0,0.0,0.0,0.0,0.0,0.0,0.0,0.0,0.0,0.0,0.0,0.0,0.0,0.0,0.0,0.0,0.0,0.0,0.0,0.0,0.0,0.0,0.0,0.0,0.0,0.0,0.0,0.0,0.0,0.0,0.0,0.0,0.0,0.0,0.0,0.0,0.0,0.0,0.0,0.0,0.0,0.0,-0.4334,0.0,0.0,0.0,0.0,0.0,0.0,0.0,0.0,0.0,0.0,0.0,0.0,0.0,0.0,0.0,0.0,0.0,0.0,0.0,0.0,0.0,0.0,0.0,0.0,0.0,0.0,0.0,0.0,0.0,0.0,0.0,0.0,0.0,0.0,0.0,0.0,0.0,0.0,0.0,0.0,0.0,0.0,0.0,0.0,0.0,0.0,0.0,0.0,0.0,0.0,0.0,0.0,0.0,0.0,0.0,0.0,0.0,0.0,0.0,0.0,0.0,0.0,0.0,0.0,0.0,0.0,0.0,0.0,0.0,0.0,0.0,0.0,0.0,0.0,0.0,0.0,0.0,0.0,0.0,0.0,0.0,0.0,0.0,0.0,0.0,0.0,0.0,0.0,0.0,0.0,0.0,0.0,0.0,0.0,0.0,0.0,0.0,0.0,0.0,0.0,0.0,0.0,0.0,0.0,0.0,0.0,0.0,0.0,0.0,0.0,-0.516,-0.496,-0.4794,-0.4628,-0.4461,0.0,0.0,0.0,0.0,0.0,0.0,0.0,0.0,0.0,0.0,0.0,0.0,0.0,0.0,0.0,0.0,0.0,0.0,0.0,0.0,0.0,0.0,0.0,0.0,0.0,0.0,0.0,0.0,0.0,0.0,0.0,0.0,0.0,0.0,0.0,0.0,0.0,0.0,0.0,0.0,0.0,0.0,0.0,0.0,0.0,0.0,0.0,0.0,0.0,0.0,0.0,0.0,0.0,0.0,0.0,0.0,0.0,0.0,0.0,0.0,0.0,0.0,0.0,0.0,0.0,0.0,0.0,0.0,0.0,0.0,0.0,0.0,0.0,0.0,0.0,0.0,0.0,0.0,0.0,0.0,0.0,0.0,0.0,0.0,0.0,0.0,0.0,0.0,0.0,0.0,0.0,0.0,0.0,0.0,0.0,0.0,0.0,0.0,0.0,0.0,0.0,0.0,0.0,0.0,0.0,0.0,0.0,0.0,0.0,0.0,0.0,0.0,-0.4927,-0.4713,-0.4482,0.0,0.0,0.0,0.0,0.0,0.0,0.0,0.0,0.0,0.0,0.0,0.0,0.0,0.0,0.0,0.0,0.0,0.0,0.0,0.0,0.0,0.0,0.0,0.0,0.0,0.0,0.0,0.0,0.0,0.0,0.0,0.0,0.0,0.0,0.0,0.0,0.0,0.0,0.0,0.0,0.0,0.0,0.0,0.0,0.0,0.0,0.0,0.0,0.0,0.0,0.0,0.0,0.0,0.0,0.0,0.0,0.0,0.0,0.0,0.0,0.0,0.0,0.0,0.0,0.0,0.0,0.0,0.0,0.0,0.0,0.0,0.0,0.0,0.0,0.0,0.0,0.0,0.0,0.0,0.0,0.0,0.0,0.0,0.0,0.0,0.0,0.0,0.0,0.0,0.0,0.0,0.0,0.0,0.0,0.0,0.0,0.0,0.0,0.0,0.0,0.0,0.0,0.0,0.0,0.0,0.0,0.0,0.0,0.0,0.0,-0.5292,-0.5087,-0.4891,0.0,-0.4193,0.0,0.0,0.0,0.0,0.0,0.0,0.0,0.0,0.0,0.0,0.0,0.0,0.0,0.0,0.0,0.0,0.0,0.0,0.0,0.0,0.0,0.0,0.0,0.0,0.0,0.0,0.0,0.0,0.0,0.0,0.0,0.0,0.0,0.0,0.0,0.0,0.0,0.0,0.0,0.0,0.0,0.0,0.0,0.0,0.0,0.0,0.0,0.0,0.0,0.0,0.0,0.0,0.0,0.0,0.0,0.0,0.0,0.0,0.0,0.0,0.0,0.0,0.0,0.0,0.0,0.0,0.0,0.0,0.0,0.0,0.0,0.0,0.0,0.0,0.0,0.0,0.0,0.0,0.0,0.0,0.0,0.0,0.0,0.0,0.0,0.0,0.0,0.0,0.0,0.0,0.0,0.0,0.0,0.0,0.0,0.0,0.0,0.0,0.0,0.0,0.0,0.0,0.0,0.0,0.0,0.0,0.0,0.0,0.0,0.0,-0.5455,-0.5292,-0.4911,-0.4446,0.0,0.0,0.0,0.0,0.0,0.0,0.0,0.0,0.0,0.0,0.0,0.0,0.0,0.0,0.0,0.0,0.0,0.0,0.0,0.0,0.0,0.0,0.0,0.0,0.0,0.0,0.0,0.0,0.0,0.0,0.0,0.0,0.0,0.0,0.0,0.0,0.0,0.0,0.0,0.0,0.0,0.0,0.0,0.0,0.0,0.0,0.0,0.0,0.0,0.0,0.0,0.0,0.0,0.0,0.0,0.0,0.0,0.0,0.0,0.0,0.0,0.0,0.0,0.0,0.0,0.0,0.0,0.0,0.0,0.0,0.0,0.0,0.0,0.0,0.0,0.0,0.0,0.0,0.0,0.0,0.0,0.0,0.0,0.0,0.0,0.0,0.0,0.0,0.0,0.0,0.0,0.0,0.0,0.0,0.0,0.0,0.0,0.0,0.0,0.0,0.0,0.0,0.0,0.0,0.0,0.0,0.0,0.0,0.0,0.0,-0.5621,-0.5425,-0.5189,-0.4734,-0.4272,-0.3818,0.0,0.0,0.0,0.0,0.0,0.0,0.0,0.0,0.0,0.0,0.0,0.0,0.0,0.0,0.0,0.0,0.0,0.0,0.0,0.0,0.0,0.0,0.0,0.0,0.0,0.0,0.0,0.0,0.0,0.0,0.0,0.0,0.0,0.0,0.0,0.0,0.0,0.0,0.0,0.0,0.0,0.0,0.0,0.0,0.0,0.0,0.0,0.0,0.0,0.0,0.0,0.0,0.0,0.0,0.0,0.0,0.0,0.0,0.0,0.0,0.0,0.0,0.0,0.0,0.0,0.0,0.0,0.0,0.0,0.0,0.0,0.0,0.0,0.0,0.0,0.0,0.0,0.0,0.0,0.0,0.0,0.0,0.0,0.0,0.0,0.0,0.0,0.0,0.0,0.0,0.0,0.0,0.0,0.0,0.0,0.0,0.0,0.0,0.0,0.0,0.0,0.0,0.0,0.0,0.0,0.0,0.0,0.0,-0.5607,-0.5463,-0.5145,-0.4664,-0.4351,-0.4092,0.0,0.0,0.0,0.0,0.0,0.0,0.0,0.0,0.0,0.0,0.0,0.0,0.0,0.0,0.0,0.0,0.0,0.0,0.0,0.0,0.0,0.0,0.0,0.0,0.0,0.0,0.0,0.0,0.0,0.0,0.0,0.0,0.0,0.0,0.0,0.0,0.0,0.0,0.0,0.0,0.0,0.0,0.0,0.0,0.0,0.0,0.0,0.0,0.0,0.0,0.0,0.0,0.0,0.0,0.0,0.0,0.0,0.0,0.0,0.0,0.0,0.0,0.0,0.0,0.0,0.0,0.0,0.0,0.0,0.0,0.0,0.0,0.0,0.0,0.0,0.0,0.0,0.0,0.0,0.0,0.0,0.0,0.0,0.0,0.0,0.0,0.0,0.0,0.0,0.0,0.0,0.0,0.0,0.0,0.0,0.0,0.0,0.0,0.0,0.0,0.0,0.0,0.0,0.0,0.0,0.0,0.0,0.0,0.0,-0.5624,-0.527,-0.4965,-0.468,-0.435,-0.407,0.0,0.0,0.0,0.0,0.0,0.0,0.0,0.0,0.0,0.0,0.0,0.0,0.0,0.0,0.0,0.0,0.0,0.0,0.0,0.0,0.0,0.0,0.0,0.0,0.0,0.0,0.0,0.0,0.0,0.0,0.0,0.0,0.0,0.0,0.0,0.0,0.0,0.0,0.0,0.0,0.0,0.0,0.0,0.0,0.0,0.0,0.0,0.0,0.0,0.0,0.0,0.0,0.0,0.0,0.0,0.0,0.0,0.0,0.0,0.0,0.0,0.0,0.0,0.0,0.0,0.0,0.0,0.0,0.0,0.0,0.0,0.0,0.0,0.0,0.0,0.0,0.0,0.0,0.0,0.0,0.0,0.0,0.0,0.0,0.0,0.0,0.0,0.0,0.0,0.0,0.0,0.0,0.0,0.0,0.0,0.0,0.0,0.0,0.0,0.0,0.0,0.0,0.0,0.0,0.0,0.0,0.0,0.0,0.0,-0.554,0.0,-0.4873,-0.4698,-0.4385,-0.4075,0.0,0.0,0.0,0.0,0.0,0.0,0.0,0.0,0.0,0.0,0.0,0.0,0.0,0.0,0.0,0.0,0.0,0.0,0.0,0.0,0.0,0.0,0.0,0.0,0.0,0.0,0.0,0.0,0.0,0.0,0.0,0.0,0.0,0.0,0.0,0.0,0.0,0.0,0.0,0.0,0.0,0.0,0.0,0.0,0.0,0.0,0.0,0.0,0.0,0.0,0.0,0.0,0.0,0.0,0.0,0.0,0.0,0.0,0.0,0.0,0.0,0.0,0.0,0.0,0.0,0.0,0.0,0.0,0.0,0.0,0.0,0.0,0.0,0.0,0.0,0.0,0.0,0.0,0.0,0.0,0.0,0.0,0.0,0.0,0.0,0.0,0.0,0.0,0.0,0.0,0.0,0.0,0.0,0.0,0.0,0.0,0.0,0.0,0.0,0.0,0.0,0.0,0.0,0.0,0.0,0.0,0.0,0.0,-0.5685,-0.5427,-0.5206,-0.4956,-0.4705,-0.4388,-0.4078,0.0,0.0,0.0,0.0,0.0,0.0,0.0,0.0,0.0,0.0,0.0,0.0,0.0,0.0,0.0,0.0,0.0,0.0,0.0,0.0,0.0,0.0,0.0,0.0,0.0,0.0,0.0,0.0,0.0,0.0,0.0,0.0,0.0,0.0,0.0,0.0,0.0,0.0,0.0,0.0,0.0,0.0,0.0,0.0,0.0,0.0,0.0,0.0,0.0,0.0,0.0,0.0,0.0,0.0,0.0,0.0,0.0,0.0,0.0,0.0,0.0,0.0,0.0,0.0,0.0,0.0,0.0,0.0,0.0,0.0,0.0,0.0,0.0,0.0,0.0,0.0,0.0,0.0,0.0,0.0,0.0,0.0,0.0,0.0,0.0,0.0,0.0,0.0,0.0,0.0,0.0,0.0,0.0,0.0,0.0,0.0,0.0,0.0,0.0,0.0,0.0,0.0,0.0,0.0,0.0,0.0,0.0,0.0,0.0,-0.5553,-0.5288,-0.513,-0.4956,-0.4464,-0.4149,0.0,0.0,0.0,0.0,0.0,0.0,0.0,0.0,0.0,0.0,0.0,0.0,0.0,0.0,0.0,0.0,0.0,0.0,0.0,0.0,0.0,0.0,0.0,0.0,0.0,0.0,0.0,0.0,0.0,0.0,0.0,0.0,0.0,0.0,0.0,0.0,0.0,0.0,0.0,0.0,0.0,0.0,0.0,0.0,0.0,0.0,0.0,0.0,0.0,0.0,0.0,0.0,0.0,0.0,0.0,0.0,0.0,0.0,0.0,0.0,0.0,0.0,0.0,0.0,0.0,0.0,0.0,0.0,0.0,0.0,0.0,0.0,0.0,0.0,0.0,0.0,0.0,0.0,0.0,0.0,0.0,0.0,0.0,0.0,0.0,0.0,0.0,0.0,0.0,0.0,0.0,0.0,0.0,0.0,0.0,0.0,0.0,0.0,0.0,0.0,0.0,0.0,0.0,0.0,0.0,0.0,0.0,0.0,0.0,-0.5845,-0.5501,-0.5248,-0.5096,-0.4679,-0.4389,-0.4203,0.0,0.0,0.0,0.0,0.0,0.0,0.0,0.0,0.0,0.0,0.0,0.0,0.0,0.0,0.0,0.0,0.0,0.0,0.0,0.0,0.0,0.0,0.0,0.0,0.0,0.0,0.0,0.0,0.0,0.0,0.0,0.0,0.0,0.0,0.0,0.0,0.0,0.0,0.0,0.0,0.0,0.0,0.0,0.0,0.0,0.0,0.0,0.0,0.0,0.0,0.0,0.0,0.0,0.0,0.0,0.0,0.0,0.0,0.0,0.0,0.0,0.0,0.0,0.0,0.0,0.0,0.0,0.0,0.0,0.0,0.0,0.0,0.0,0.0,0.0,0.0,0.0,0.0,0.0,0.0,0.0,0.0,0.0,0.0,0.0,0.0,0.0,0.0,0.0,0.0,0.0,0.0,0.0,0.0,0.0,0.0,0.0,0.0,0.0,0.0,0.0,0.0,0.0,0.0,0.0,0.0,0.0,0.0,-0.621,-0.5815,-0.5477,-0.512,-0.4979,-0.4662,0.0,0.0,0.0,0.0,0.0,0.0,0.0,0.0,0.0,0.0,0.0,0.0,0.0,0.0,0.0,0.0,0.0,0.0,0.0,0.0,0.0,0.0,0.0,0.0,0.0,0.0,0.0,0.0,0.0,0.0,0.0,0.0,0.0,0.0,0.0,0.0,0.0,0.0,0.0,0.0,0.0,0.0,0.0,0.0,0.0,0.0,0.0,0.0,0.0,0.0,0.0,0.0,0.0,0.0,0.0,0.0,0.0,0.0,0.0,0.0,0.0,0.0,0.0,0.0,0.0,0.0,0.0,0.0,0.0,0.0,0.0,0.0,0.0,0.0,0.0,0.0,0.0,0.0,0.0,0.0,0.0,0.0,0.0,0.0,0.0,0.0,0.0,0.0,0.0,0.0,0.0,0.0,0.0,0.0,0.0,0.0,0.0,0.0,0.0,0.0,0.0,0.0,0.0,0.0,0.0,0.0,0.0,0.0,0.0,-0.6207,-0.5951,-0.5668,-0.5334,-0.5035,-0.4737,0.0,0.0,0.0,0.0,0.0,0.0,0.0,0.0,0.0,0.0,0.0,0.0,0.0,0.0,0.0,0.0,0.0,0.0,0.0,0.0,0.0,0.0,0.0,0.0,0.0,0.0,0.0,0.0,0.0,0.0,0.0,0.0,0.0,0.0,0.0,0.0,0.0,0.0,0.0,0.0,0.0,0.0,0.0,0.0,0.0,0.0,0.0,0.0,0.0,0.0,0.0,0.0,0.0,0.0,0.0,0.0,0.0,0.0,0.0,0.0,0.0,0.0,0.0,0.0,0.0,0.0,0.0,0.0,0.0,0.0,0.0,0.0,0.0,0.0,0.0,0.0,0.0,0.0,0.0,0.0,0.0,0.0,0.0,0.0,0.0,0.0,0.0,0.0,0.0,0.0,0.0,0.0,0.0,0.0,0.0,0.0,0.0,0.0,0.0,0.0,0.0,0.0,0.0,0.0,0.0,0.0,0.0,0.0,-0.6634,-0.6408,-0.605,-0.5756,-0.5491,-0.5245,-0.4909,0.0,0.0,0.0,0.0,0.0,0.0,0.0,0.0,0.0,0.0,0.0,0.0,0.0,0.0,0.0,0.0,0.0,0.0,0.0,0.0,0.0,0.0,0.0,0.0,0.0,0.0,0.0,0.0,0.0,0.0,0.0,0.0,0.0,0.0,0.0,0.0,0.0,0.0,0.0,0.0,0.0,0.0,0.0,0.0,0.0,0.0,0.0,0.0,0.0,0.0,0.0,0.0,0.0,0.0,0.0,0.0,0.0,0.0,0.0,0.0,0.0,0.0,0.0,0.0,0.0,0.0,0.0,0.0,0.0,0.0,0.0,0.0,0.0,0.0,0.0,0.0,0.0,0.0,0.0,0.0,0.0,0.0,0.0,0.0,0.0,0.0,0.0,0.0,0.0,0.0,0.0,0.0,0.0,0.0,0.0,0.0,0.0,0.0,0.0,0.0,0.0,0.0,0.0,0.0,0.0,0.0,0.0,0.0,-0.6843,-0.6708,-0.6185,-0.5789,-0.5617,-0.5491,-0.5119,0.0,0.0,0.0,0.0,0.0,0.0,0.0,0.0,0.0,0.0,0.0,0.0,0.0,0.0,0.0,0.0,0.0,0.0,0.0,0.0,0.0,0.0,0.0,0.0,0.0,0.0,0.0,0.0,0.0,0.0,0.0,0.0,0.0,0.0,0.0,0.0,0.0,0.0,0.0,0.0,0.0,0.0,0.0,0.0,0.0,0.0,0.0,0.0,0.0,0.0,0.0,0.0,0.0,0.0,0.0,0.0,0.0,0.0,0.0,0.0,0.0,0.0,0.0,0.0,0.0,0.0,0.0,0.0,0.0,0.0,0.0,0.0,0.0,0.0,0.0,0.0,0.0,0.0,0.0,0.0,0.0,0.0,0.0,0.0,0.0,0.0,0.0,0.0,0.0,0.0,0.0,0.0,0.0,0.0,0.0,0.0,0.0,0.0,0.0,0.0,0.0,0.0,0.0,0.0,0.0,0.0,0.0,0.0,-0.6843,-0.6704,-0.6185,-0.5789,-0.5583,-0.5458,-0.5123,0.0,0.0,0.0,0.0,0.0,0.0,0.0,0.0,0.0,0.0,0.0,0.0,0.0,0.0,0.0,0.0,0.0,0.0,0.0,0.0,0.0,0.0,0.0,0.0,0.0,0.0,0.0,0.0,0.0,0.0,0.0,0.0,0.0,0.0,0.0,0.0,0.0,0.0,0.0,0.0,0.0,0.0,0.0,0.0,0.0,0.0,0.0,0.0,-0.39,0.0,0.0,0.0,0.0,0.0,0.0,0.0,0.0,0.0,0.0,0.0,0.0,0.0,0.0,0.0,0.0,0.0,0.0,0.0,0.0,0.0,0.0,0.0,0.0,0.0,0.0,0.0,0.0,0.0,0.0,0.0,0.0,0.0,0.0,0.0,0.0,0.0,0.0,0.0,0.0,0.0,0.0,0.0,0.0,0.0,0.0,0.0,0.0,0.0,0.0,0.0,0.0,0.0,0.0,0.0,0.0,0.0,0.0,0.0,-0.6876,-0.6773,-0.6185,-0.5855,-0.5752,-0.5524,-0.5156,0.0,0.0,0.0,0.0,0.0,0.0,0.0,0.0,0.0,0.0,0.0,0.0,0.0,0.0,0.0,0.0,0.0,0.0,0.0,0.0,0.0,0.0,0.0,0.0,0.0,0.0,0.0,0.0,0.0,0.0,0.0,0.0,0.0,0.0,0.0,0.0,0.0,0.0,0.0,0.0,0.0,0.0,0.0,0.0,0.0,0.0,0.0,0.0,0.0,0.0,0.0,0.0,0.0,0.0,0.0,0.0,0.0,0.0,0.0,0.0,0.0,0.0,0.0,0.0,0.0,0.0,0.0,0.0,0.0,0.0,0.0,0.0,0.0,0.0,0.0,0.0,0.0,0.0,0.0,0.0,0.0,0.0,0.0,0.0,0.0,0.0,0.0,0.0,0.0,0.0,0.0,0.0,0.0,0.0,0.0,0.0,0.0,0.0,0.0,0.0,0.0,0.0,0.0,0.0,0.0,0.0,0.0,-0.7168,-0.6957,-0.6924,-0.6319,-0.5952,-0.5929,-0.5596,-0.5193,-0.4659,0.0,0.0,0.0,0.0,0.0,0.0,0.0,0.0,0.0,0.0,0.0,0.0,0.0,0.0,0.0,0.0,0.0,0.0,0.0,0.0,0.0,0.0,0.0,0.0,0.0,0.0,0.0,0.0,0.0,0.0,0.0,0.0,0.0,0.0,0.0,0.0,0.0,0.0,-0.3635,-0.3723,0.0,0.0,0.0,0.0,0.0,0.0,0.0,0.0,-0.4303,0.0,0.0,0.0,0.0,0.0,0.0,0.0,0.0,0.0,0.0,0.0,0.0,0.0,0.0,0.0,0.0,0.0,0.0,0.0,0.0,0.0,0.0,0.0,0.0,0.0,0.0,0.0,0.0,0.0,0.0,0.0,0.0,0.0,0.0,0.0,0.0,0.0,0.0,0.0,0.0,0.0,0.0,0.0,0.0,0.0,0.0,0.0,0.0,0.0,0.0,0.0,0.0,0.0,0.0,0.0,0.0,-0.7596,-0.7301,-0.7145,-0.7145,-0.6607,-0.627,-0.6142,-0.5758,-0.5311,-0.4794,0.0,0.0,0.0,0.0,0.0,0.0,0.0,0.0,0.0,0.0,0.0,0.0,0.0,0.0,0.0,0.0,0.0,0.0,0.0,0.0,0.0,0.0,0.0,0.0,0.0,0.0,0.0,0.0,0.0,0.0,0.0,0.0,0.0,0.0,0.0,0.0,0.0,0.0,0.0,-0.3772,-0.386,0.0,0.0,0.0,0.0,0.0,0.0,0.0,0.0,-0.4246,0.0,0.0,0.0,0.0,0.0,0.0,0.0,0.0,0.0,0.0,0.0,0.0,0.0,0.0,0.0,0.0,0.0,0.0,0.0,0.0,0.0,0.0,0.0,0.0,0.0,0.0,0.0,0.0,0.0,0.0,0.0,0.0,0.0,0.0,0.0,0.0,0.0,0.0,0.0,0.0,0.0,0.0,0.0,0.0,0.0,0.0,0.0,0.0,0.0,0.0,0.0,0.0,0.0,0.0,0.0,-0.7761,-0.7417,-0.7155,-0.7027,-0.6608,-0.6263,-0.5973,-0.5724,-0.5347,0.0,0.0,0.0,0.0,0.0,0.0,0.0,0.0,0.0,0.0,0.0,0.0,0.0,0.0,0.0,0.0,0.0,0.0,0.0,0.0,0.0,0.0,0.0,0.0,0.0,0.0,0.0,0.0,0.0,0.0,0.0,0.0,0.0,0.0,0.0,0.0,0.0,0.0,0.0,0.0,-0.3835,-0.3914,-0.4059,0.0,0.0,0.0,0.0,0.0,0.0,-0.4303,-0.4281,0.0,0.0,0.0,0.0,0.0,0.0,0.0,0.0,0.0,0.0,0.0,0.0,0.0,0.0,0.0,0.0,0.0,0.0,0.0,0.0,0.0,0.0,0.0,0.0,0.0,0.0,0.0,0.0,0.0,0.0,0.0,0.0,0.0,0.0,0.0,0.0,0.0,0.0,0.0,0.0,0.0,0.0,0.0,0.0,0.0,0.0,0.0,0.0,0.0,0.0,0.0,0.0,0.0,0.0,0.0,-0.7912,-0.7493,-0.7168,-0.6968,-0.6678,-0.6287,-0.585,-0.5682,-0.5321,0.0,0.0,0.0,0.0,0.0,0.0,0.0,0.0,0.0,0.0,0.0,0.0,0.0,0.0,0.0,0.0,0.0,0.0,0.0,0.0,0.0,0.0,0.0,0.0,0.0,0.0,0.0,0.0,0.0,0.0,0.0,0.0,0.0,0.0,0.0,0.0,0.0,0.0,0.0,0.0,0.0,-0.3986,-0.4137,-0.4238,0.0,0.0,0.0,0.0,-0.4303,-0.4303,0.0,0.0,0.0,0.0,0.0,0.0,0.0,0.0,0.0,0.0,0.0,0.0,0.0,0.0,0.0,0.0,0.0,0.0,0.0,0.0,0.0,0.0,0.0,0.0,0.0,0.0,0.0,0.0,0.0,0.0,0.0,0.0,0.0,0.0,0.0,0.0,0.0,0.0,0.0,0.0,0.0,0.0,0.0,0.0,0.0,0.0,0.0,0.0,0.0,0.0,0.0,0.0,0.0,0.0,0.0,0.0,-0.773,-0.753,-0.736,-0.7163,-0.6949,-0.6579,-0.602,-0.5673,-0.5251,0.0,0.0,0.0,0.0,0.0,0.0,0.0,0.0,0.0,0.0,0.0,0.0,0.0,0.0,0.0,0.0,0.0,0.0,0.0,0.0,0.0,0.0,0.0,0.0,0.0,0.0,0.0,0.0,0.0,0.0,0.0,0.0,0.0,0.0,0.0,0.0,0.0,0.0,0.0,0.0,0.0,-0.4143,-0.4262,-0.4292,-0.4303,0.0,0.0,-0.4303,-0.4303,-0.4303,0.0,0.0,0.0,0.0,0.0,0.0,0.0,0.0,0.0,0.0,0.0,0.0,0.0,0.0,0.0,0.0,0.0,0.0,0.0,0.0,0.0,0.0,0.0,0.0,0.0,0.0,0.0,0.0,0.0,0.0,0.0,0.0,0.0,0.0,0.0,0.0,0.0,0.0,0.0,0.0,0.0,0.0,0.0,0.0,0.0,0.0,0.0,0.0,0.0,0.0,0.0,0.0,0.0,0.0,0.0,-0.755,-0.7695,-0.7456,-0.7218,-0.7031,-0.671,-0.6332,-0.584,-0.548,-0.5131,0.0,0.0,0.0,0.0,0.0,0.0,0.0,0.0,0.0,0.0,0.0,0.0,0.0,0.0,0.0,0.0,0.0,0.0,0.0,0.0,0.0,0.0,0.0,0.0,0.0,0.0,0.0,0.0,0.0,0.0,0.0,0.0,0.0,0.0,0.0,0.0,0.0,0.0,0.0,0.0,0.0,0.0,-0.4284,-0.4303,0.0,0.0,0.0,-0.4303,-0.4303,0.0,0.0,0.0,0.0,0.0,0.0,0.0,0.0,0.0,0.0,0.0,0.0,0.0,0.0,0.0,0.0,0.0,0.0,0.0,0.0,0.0,0.0,0.0,0.0,0.0,0.0,0.0,0.0,0.0,0.0,0.0,0.0,0.0,0.0,0.0,0.0,0.0,0.0,0.0,0.0,0.0,0.0,0.0,0.0,0.0,0.0,0.0,0.0,0.0,0.0,0.0,0.0,0.0,0.0,0.0,0.0,0.0,-0.7642,-0.7349,-0.7102,-0.6899,-0.6503,-0.6088,-0.567,-0.531,0.0,0.0,0.0,0.0,0.0,0.0,0.0,0.0,0.0,0.0,0.0,0.0,0.0,0.0,0.0,0.0,0.0,0.0,0.0,0.0,0.0,0.0,0.0,0.0,0.0,0.0,0.0,-0.3613,0.0,0.0,0.0,0.0,0.0,0.0,0.0,0.0,0.0,0.0,0.0,0.0,0.0,0.0,-0.4197,-0.4289,-0.4322,-0.4344,0.0,0.0,-0.4413,-0.4346,-0.4344,-0.4333,0.0,0.0,0.0,0.0,0.0,0.0,0.0,0.0,0.0,0.0,0.0,0.0,0.0,0.0,0.0,0.0,0.0,0.0,0.0,0.0,0.0,0.0,0.0,0.0,0.0,0.0,0.0,0.0,0.0,0.0,0.0,0.0,0.0,0.0,0.0,0.0,0.0,0.0,0.0,0.0,0.0,0.0,0.0,0.0,0.0,0.0,0.0,0.0,0.0,0.0,0.0,0.0,0.0,0.0,0.0,-0.754,-0.7297,-0.7098,-0.6919,-0.6521,-0.6064,-0.5622,-0.5112,-0.4688,0.0,0.0,0.0,0.0,0.0,0.0,0.0,0.0,0.0,0.0,0.0,0.0,0.0,0.0,0.0,0.0,0.0,0.0,0.0,0.0,0.0,0.0,0.0,0.0,0.0,0.0,0.0,0.0,0.0,0.0,0.0,0.0,0.0,0.0,0.0,0.0,0.0,0.0,0.0,0.0,0.0,-0.4289,-0.43,-0.439,-0.4458,0.0,0.0,-0.4624,-0.4512,-0.4495,-0.4457,-0.4319,0.0,0.0,0.0,0.0,0.0,0.0,0.0,0.0,0.0,0.0,0.0,0.0,0.0,0.0,0.0,0.0,0.0,0.0,0.0,0.0,0.0,0.0,0.0,0.0,0.0,0.0,0.0,0.0,0.0,0.0,0.0,0.0,0.0,0.0,0.0,0.0,0.0,0.0,0.0,0.0,0.0,0.0,0.0,0.0,0.0,0.0,0.0,0.0,0.0,0.0,0.0,0.0,0.0,-0.7432,-0.713,-0.7053,-0.6855,-0.6518,-0.6103,-0.5676,-0.524,-0.4814,-0.451,0.0,0.0,0.0,0.0,0.0,0.0,0.0,0.0,0.0,0.0,0.0,0.0,0.0,0.0,0.0,0.0,0.0,0.0,0.0,0.0,0.0,0.0,0.0,0.0,0.0,0.0,0.0,0.0,-0.3613,-0.3613,-0.3613,0.0,0.0,0.0,0.0,0.0,0.0,0.0,0.0,0.0,0.0,-0.4325,-0.4427,-0.4442,0.0,0.0,-0.466,-0.4673,-0.4627,-0.4616,-0.4577,-0.4425,-0.4406,0.0,0.0,0.0,0.0,0.0,0.0,0.0,0.0,0.0,0.0,0.0,0.0,0.0,0.0,0.0,0.0,0.0,0.0,0.0,0.0,0.0,0.0,0.0,0.0,0.0,0.0,0.0,0.0,0.0,0.0,0.0,0.0,0.0,0.0,0.0,0.0,0.0,0.0,0.0,0.0,0.0,0.0,0.0,0.0,0.0,0.0,0.0,0.0,0.0,0.0,0.0,0.0,-0.7206,-0.6993,-0.6834,-0.6589,-0.6361,-0.5855,-0.5418,-0.5059,-0.4709,-0.4411,0.0,0.0,0.0,0.0,0.0,0.0,0.0,0.0,0.0,0.0,0.0,0.0,0.0,0.0,0.0,0.0,0.0,0.0,0.0,0.0,0.0,0.0,0.0,0.0,0.0,0.0,0.0,0.0,-0.3613,-0.3613,-0.3613,0.0,0.0,0.0,0.0,0.0,0.0,0.0,0.0,0.0,0.0,-0.4382,-0.4492,-0.4566,-0.4646,-0.4731,-0.4738,-0.4786,-0.475,-0.4744,-0.4701,-0.4577,0.0,0.0,0.0,0.0,0.0,0.0,0.0,0.0,0.0,0.0,0.0,0.0,0.0,0.0,0.0,0.0,0.0,0.0,0.0,0.0,0.0,0.0,0.0,0.0,0.0,0.0,0.0,0.0,0.0,0.0,-0.4222,0.0,0.0,0.0,0.0,0.0,0.0,0.0,0.0,0.0,0.0,0.0,0.0,0.0,0.0,0.0,0.0,0.0,0.0,0.0,0.0,0.0,0.0,-0.6993,-0.7179,-0.6596,-0.6325,-0.6378,-0.583,-0.5388,-0.5184,-0.4778,-0.436,-0.3938,0.0,0.0,0.0,0.0,0.0,0.0,0.0,0.0,0.0,0.0,0.0,0.0,0.0,0.0,0.0,0.0,0.0,0.0,0.0,0.0,0.0,0.0,0.0,0.0,0.0,0.0,-0.3621,-0.3613,-0.3591,0.0,0.0,0.0,0.0,0.0,0.0,0.0,0.0,0.0,0.0,-0.4429,-0.4503,-0.4512,-0.4673,-0.4785,-0.4793,-0.4928,-0.4928,-0.4812,-0.4793,-0.4752,0.0,0.0,0.0,0.0,0.0,0.0,0.0,0.0,0.0,0.0,0.0,0.0,0.0,0.0,0.0,0.0,0.0,0.0,0.0,0.0,0.0,0.0,0.0,0.0,0.0,0.0,0.0,-0.4178,-0.4178,0.0,0.0,0.0,0.0,0.0,0.0,0.0,0.0,0.0,0.0,0.0,-0.6086,-0.6141,0.0,0.0,0.0,0.0,0.0,0.0,0.0,0.0,0.0,0.0,0.0,0.0,-0.6751,-0.641,-0.6387,-0.6185,-0.5833,-0.5513,-0.5185,-0.4896,-0.4541,-0.413,-0.3707,0.0,0.0,0.0,0.0,0.0,0.0,0.0,0.0,0.0,0.0,0.0,0.0,0.0,0.0,0.0,0.0,0.0,0.0,0.0,0.0,0.0,0.0,0.0,0.0,0.0,-0.3758,0.0,0.0,0.0,0.0,0.0,0.0,0.0,0.0,0.0,0.0,0.0,-0.4191,-0.4387,-0.4482,-0.4564,-0.4689,-0.4744,-0.4825,0.0,0.0,0.0,0.0,0.0,0.0,0.0,0.0,0.0,0.0,0.0,0.0,0.0,0.0,-0.4777,-0.5023,-0.5234,-0.5409,-0.5619,0.0,0.0,0.0,0.0,0.0,0.0,0.0,0.0,0.0,0.0,0.0,0.0,0.0,0.0,-0.4457,0.0,-0.4423,0.0,0.0,0.0,0.0,0.0,0.0,0.0,0.0,-0.5764,-0.5902,-0.6066,-0.6014,-0.605,0.0,-0.6223,-0.6304,0.0,0.0,0.0,0.0,0.0,0.0,0.0,0.0,-0.6416,-0.6075,-0.6057,-0.5875,-0.5523,-0.5348,-0.5051,-0.4627,-0.4294,-0.3964,-0.3724,-0.3623,-0.3424,0.0,0.0,0.0,0.0,0.0,0.0,0.0,0.0,0.0,0.0,0.0,0.0,0.0,0.0,0.0,0.0,0.0,0.0,0.0,0.0,0.0,0.0,0.0,-0.367,0.0,0.0,0.0,0.0,0.0,0.0,0.0,0.0,0.0,-0.3899,-0.4061,-0.42,-0.4383,-0.451,-0.4656,-0.4774,0.0,0.0,0.0,0.0,0.0,0.0,0.0,-0.4991,-0.4874,-0.4858,-0.4833,-0.4795,-0.4816,-0.4829,-0.4868,0.0,0.0,-0.5074,-0.5267,-0.5447,-0.5659,-0.5767,-0.5817,-0.5871,-0.5957,-0.6087,0.0,0.0,0.0,0.0,0.0,0.0,0.0,0.0,-0.4684,-0.4681,0.0,-0.4681,0.0,0.0,0.0,0.0,0.0,-0.5378,0.0,0.0,-0.5729,-0.5901,-0.5993,-0.5872,-0.5875,-0.6,-0.6094,-0.6126,-0.6122,-0.6251,0.0,0.0,0.0,0.0,0.0,0.0,-0.603,-0.6061,-0.5678,-0.5476,-0.5494,-0.5292,-0.4944,-0.4506,-0.4122,-0.3901,-0.3891,-0.3687,-0.3404,-0.3063,-0.2882,0.0,0.0,0.0,0.0,0.0,0.0,0.0,0.0,0.0,0.0,0.0,0.0,0.0,0.0,0.0,0.0,0.0,0.0,0.0,0.0,-0.3392,0.0,0.0,0.0,0.0,0.0,0.0,0.0,0.0,0.0,0.0,-0.3617,-0.3931,-0.4201,-0.4211,0.0,0.0,0.0,0.0,-0.5015,-0.5018,-0.5021,-0.5023,-0.5023,-0.5029,-0.5031,-0.5031,0.0,0.0,-0.5029,-0.5029,-0.5061,-0.517,-0.5181,-0.5123,-0.4975,-0.5107,-0.5316,-0.5498,-0.5692,-0.5851,-0.5979,-0.6043,-0.6112,-0.5099,0.0,0.0,0.0,0.0,-0.4744,-0.4732,-0.469,-0.469,-0.469,-0.469,-0.469,0.0,0.0,0.0,0.0,0.0,0.0,-0.5352,-0.5562,-0.5729,-0.5914,-0.6156,-0.6139,-0.6268,-0.6502,-0.6431,-0.6398,-0.6391,-0.6134,-0.5976,-0.5914,0.0,0.0,0.0,0.0,-0.5704,-0.5669,-0.5437,-0.5307,-0.5284,-0.502,-0.4673,-0.4303,-0.4059,-0.3967,-0.3901,-0.3785,-0.3619,-0.3294,-0.3083,0.0,0.0,0.0,0.0,0.0,0.0,0.0,0.0,0.0,0.0,0.0,0.0,0.0,0.0,0.0,0.0,0.0,0.0,0.0,-0.3522,-0.3534,-0.3594,0.0,0.0,0.0,0.0,0.0,0.0,0.0,0.0,0.0,-0.3528,-0.3788,-0.4114,0.0,0.0,-0.4674,-0.4911,-0.4957,-0.5018,-0.5018,-0.5086,0.0,0.0,-0.5211,-0.5309,-0.5268,-0.5268,-0.5268,-0.5309,-0.5268,-0.532,-0.5353,-0.5317,-0.5322,-0.5278,-0.5408,-0.5602,-0.5845,-0.6045,-0.6134,-0.622,-0.6347,-0.6515,-0.533,-0.5154,-0.5159,-0.5116,-0.5048,-0.5045,-0.5004,-0.4975,-0.4975,-0.4975,-0.4975,-0.4975,-0.495,-0.4903,-0.4903,0.0,0.0,0.0,-0.5438,-0.5639,-0.5794,-0.595,-0.6125,-0.6166,-0.6287,-0.6402,-0.6358,-0.6319,-0.6316,-0.5993,-0.5747,-0.5587,0.0,0.0,-0.5246,-0.5371,-0.534,-0.5181,-0.5129,-0.5069,-0.5005,-0.4716,-0.4452,-0.4266,-0.4136,-0.4046,-0.3957,-0.3865,-0.3698,-0.3457,-0.3149,-0.2888,0.0,0.0,0.0,0.0,0.0,0.0,0.0,0.0,0.0,0.0,0.0,-0.226,-0.2425,0.0,0.0,0.0,-0.317,-0.3335,-0.3496,-0.3538,0.0,0.0,0.0,0.0,0.0,0.0,0.0,-0.3453,-0.3467,-0.3511,-0.3544,-0.3683,-0.3942,-0.4365,-0.4493,-0.4717,-0.5027,0.0,-0.5102,-0.5148,-0.5216,-0.5257,-0.5301,-0.5361,-0.5413,-0.5413,-0.5413,-0.5413,-0.5413,-0.5413,-0.5429,-0.5428,-0.5442,-0.5455,-0.5504,-0.5601,-0.5735,-0.585,-0.6037,-0.6162,-0.6162,-0.6367,-0.6536,-0.5456,-0.5443,-0.544,-0.5429,-0.5413,-0.5413,-0.541,-0.5413,-0.541,-0.5413,-0.5413,-0.5413,-0.5347,-0.5203,-0.5203,0.0,-0.5246,-0.5526,-0.5663,-0.5669,-0.5883,-0.5966,-0.5966,-0.602,-0.6023,-0.6026,-0.6014,-0.6008,-0.6008,-0.5794,-0.5582,-0.5321,-0.5471,-0.5352,-0.5,-0.5063,-0.4933,-0.4713,-0.4725,-0.4736,-0.4656,-0.4433,-0.4297,-0.4297,-0.4262,-0.4128,-0.3996,-0.3948,-0.3776,-0.3528,-0.318,-0.2882,-0.2669,0.0,0.0,0.0,0.0,0.0,0.0,0.0,0.0,0.0,0.0,0.0,0.0,0.0,0.0,0.0,-0.3201,0.0,-0.341,-0.3448,0.0,0.0,0.0,-0.3499,-0.3499,-0.3505,-0.3509,-0.3509,0.0,0.0,-0.3588,-0.3604,-0.3762,-0.4225,-0.4496,-0.4828,-0.5133,-0.5192,-0.5241,-0.5383,-0.5416,-0.5385,-0.5385,-0.5446,-0.542,-0.5465,-0.544,-0.5454,-0.5415,-0.5454,-0.545,-0.5502,-0.5524,-0.5551,-0.5669,-0.5716,-0.5709,-0.5704,-0.5874,-0.6032,-0.6044,-0.6173,-0.6305,-0.5629,-0.5648,-0.5602,-0.554,-0.5413,-0.5413,-0.5413,-0.5413,-0.5413,-0.5413,-0.5413,-0.5413,-0.5396,-0.5369,-0.5366,-0.5369,-0.5369,-0.5438,-0.5496,-0.546,-0.5594,-0.5721,-0.5934,-0.6031,-0.6165,-0.6284,-0.6193,-0.6148,-0.6141,-0.5838,-0.5582,-0.5282,-0.519,-0.5,-0.4792,-0.4775,-0.4801,-0.478,-0.4633,-0.4515,-0.4385,-0.4344,-0.4297,-0.4297,-0.4262,-0.413,-0.3996,-0.3948,-0.3857,-0.3728,-0.3257,-0.298,-0.2889,-0.2492,0.0,0.0,0.0,0.0,0.0,0.0,0.0,0.0,0.0,-0.249,-0.2638,0.0,-0.3135,0.0,-0.3401,-0.3469,-0.3467,-0.3487,0.0,0.0,-0.3499,-0.3499,-0.3499,-0.3556,-0.3558,-0.356,-0.3658,-0.3746,-0.3767,-0.3791,-0.3916,-0.4196,-0.4454,-0.4718,-0.4947,-0.5191,-0.5377,-0.5374,-0.5453,-0.5462,-0.5472,-0.5545,-0.5643,-0.5605,-0.5646,-0.5648,-0.5602,-0.5646,-0.5615,-0.5642,-0.5645,-0.5659,-0.5683,-0.5688,-0.5716,-0.5706,-0.5909,-0.6081,-0.6081,-0.6206,-0.6377,-0.5688,-0.5688,-0.5688,-0.561,-0.5532,-0.5532,-0.5529,-0.5529,-0.5532,-0.5532,-0.5526,-0.5474,-0.545,-0.5447,-0.545,-0.545,-0.5453,-0.5507,-0.5532,-0.5534,-0.5559,-0.5676,-0.5807,-0.5877,-0.5997,-0.608,-0.6013,-0.5982,-0.5979,-0.5694,-0.5446,-0.5183,-0.4973,-0.4758,-0.4538,-0.4583,-0.4588,-0.4558,-0.4467,-0.4381,-0.4297,-0.4297,-0.4297,-0.4297,-0.4255,-0.4167,-0.3998,-0.3985,-0.3899,-0.3808,-0.3332,-0.3022,-0.2991,-0.2578,-0.231,0.0,0.0,0.0,0.0,0.0,0.0,0.0,0.0,0.0,0.0,0.0,-0.3264,-0.342,-0.3505,-0.3556,-0.3556,-0.3593,-0.3655,-0.3618,-0.3618,-0.3653,-0.3655,-0.3693,-0.3746,-0.3748,-0.3828,-0.3885,-0.3885,-0.3928,-0.4002,-0.4086,-0.4366,-0.4684,-0.4981,-0.5199,-0.5381,-0.5523,-0.5589,-0.5588,-0.5588,-0.5642,-0.5688,-0.5688,-0.5688,-0.5688,-0.5688,-0.5688,-0.5688,-0.5688,-0.5688,-0.5688,-0.5688,-0.5688,-0.5688,-0.5733,-0.5819,-0.5908,-0.5908,-0.6124,-0.6254,-0.5688,-0.5688,-0.5688,-0.5688,-0.5688,-0.5688,-0.5688,-0.5688,-0.5688,-0.5688,-0.5727,-0.5575,-0.5529,-0.5532,-0.5532,-0.5529,-0.554,-0.5642,-0.5688,-0.5688,-0.5688,-0.5688,-0.5688,-0.5688,-0.5688,-0.5688,-0.5688,-0.5688,-0.5688,-0.5508,-0.5235,-0.501,-0.4792,-0.4569,-0.434,-0.4397,-0.44,-0.4233,-0.4261,-0.4297,-0.4297,-0.4297,-0.4297,-0.4297,-0.4297,-0.4222,-0.4019,-0.4,-0.3957,-0.3793,-0.3379,-0.3108,-0.3007,-0.2661,-0.2406,0.0,-0.2346,0.0,0.0,0.0,0.0,0.0,0.0,0.0,0.0,-0.3141,-0.3343,-0.3513,-0.362,-0.3629,-0.3639,-0.375,-0.3837,-0.3837,-0.3797,-0.3837,-0.3841,-0.3869,-0.3916,-0.3918,-0.3985,-0.3992,-0.3986,-0.4002,-0.401,-0.4059,-0.4295,-0.4649,-0.5002,-0.5132,-0.53,-0.5586,-0.5688,-0.5675,-0.5677,-0.5686,-0.5688,-0.5688,-0.5688,-0.5688,-0.5688,-0.5688,-0.5688,-0.5688,-0.5688,-0.5688,-0.5688,-0.5688,-0.5644,-0.5644,-0.5644,-0.5641,-0.5688,-0.5863,-0.5861,-0.5688,-0.5688,-0.5688,-0.5688,-0.5688,-0.5688,-0.5688,-0.5688,-0.5688,-0.5688,-0.5688,-0.5664,-0.5656,-0.5656,-0.5653,-0.5656,-0.5656,-0.5677,-0.5688,-0.5688,-0.5688,-0.5688,-0.5688,-0.5688,-0.5688,-0.5688,-0.5688,-0.5688,-0.5688,-0.5508,-0.528,-0.501,-0.4792,-0.4569,-0.4297,0.0,0.0,0.0,-0.4289,-0.4297,-0.4297,-0.4297,-0.4297,-0.4297,-0.4297,0.0,-0.4151,-0.4033,-0.3987,-0.3879,-0.3604,0.0,0.0,0.0,0.0,0.0,0.0,0.0,0.0,0.0,0.0,0.0,-0.3256,-0.3226,-0.3176,-0.3376,-0.3589,-0.3808,-0.3838,-0.3837,-0.3909,-0.3975,-0.3983,-0.3983,-0.3983,-0.3942,-0.3985,-0.3958,-0.3968,-0.397,-0.3984,-0.3994,-0.4004,-0.4097,-0.4146,-0.4151,-0.4264,-0.4448,-0.4761,-0.4933,-0.5122,-0.5413,-0.5552,-0.5688,-0.5688,-0.5688,-0.5688,-0.5688,-0.5688,-0.5688,-0.5688,-0.5688,-0.5688,-0.5688,-0.5688,-0.5688,-0.5688,-0.5555,-0.5463,-0.5463,-0.5282,-0.5235,-0.5644,-0.5597,-0.5508,-0.5688,0.0,-0.5688,-0.5688,0.0,-0.5688,-0.5688,-0.5688,-0.5688,-0.5688,-0.5688,-0.5688,-0.5688,-0.5688,-0.5688,-0.5688,-0.5688,-0.5688,-0.5688,-0.5688,-0.5688,-0.5688,-0.5688,-0.5688,-0.5688,-0.5688,-0.5688,-0.5688,-0.5688,-0.5371,-0.5102,-0.501,-0.4656,-0.4433,-0.4297,-0.4297,-0.4297,-0.4297,-0.4297,-0.4297,-0.4297,-0.4297,-0.4297,-0.4297,0.0,0.0,0.0,0.0,0.0,0.0,0.0,0.0,0.0,0.0,0.0,-0.274,-0.2735,-0.2835,-0.3028,-0.3211,-0.3407,-0.3643,-0.3689,-0.3675,-0.3548,-0.3698,-0.3825,-0.3957,-0.3967,-0.3985,-0.3988,-0.3992,-0.3992,-0.3992,-0.3992,-0.3992,-0.3998,-0.4077,-0.4104,-0.411,-0.4097,-0.4165,-0.4165,-0.4202,-0.4234,-0.4236,-0.4271,-0.4344,-0.4478,-0.4703,-0.4924,-0.5146,-0.528,-0.5327,-0.5371,-0.5463,-0.5508,-0.5416,-0.5463,-0.5463,-0.5371,-0.5371,-0.5327,-0.5371,-0.5371,-0.5327,-0.5327,-0.528,-0.5191,-0.5191,-0.5099,-0.5055,-0.5327,-0.5282,-0.5191,-0.5795,-0.5753,-0.575,-0.575,-0.5748,-0.5726,-0.571,-0.5688,0.0,0.0,0.0,-0.5688,-0.5688,-0.5688,-0.5688,-0.5688,-0.5688,-0.5688,-0.5688,-0.5688,-0.5688,-0.5688,-0.5688,-0.5688,-0.5688,-0.5688,-0.5688,-0.5688,-0.5644,-0.5235,-0.4966,-0.4921,-0.452,-0.4297,-0.4297,-0.4297,-0.4297,-0.4297,-0.4297,-0.4297,-0.4297,-0.4297,-0.4297,-0.4297,-0.4297,-0.4267,-0.4197,-0.4225,-0.4138,-0.4023,-0.3834,-0.3707,-0.36,-0.3311,-0.3123,-0.3145,-0.3021,-0.3137,-0.3493,-0.3597,-0.3759,-0.3924,-0.401,-0.398,-0.393,-0.3952,-0.4,-0.4017,-0.4019,-0.4023,-0.4037,-0.4041,-0.4081,-0.4039,-0.4039,-0.4043,-0.4045,-0.4146,-0.4239,-0.4204,-0.4253,-0.4297,-0.4291,-0.4291,-0.4297,-0.4297,-0.4297,-0.4297,-0.4344,-0.4525,-0.4792,-0.4924,-0.5013,-0.501,-0.5055,-0.5191,-0.5235,-0.5099,-0.5191,-0.5235,-0.5055,-0.501,-0.501,-0.5055,-0.501,-0.501,-0.501,-0.4966,-0.4966,-0.4966,-0.4921,-0.4875,-0.4875,-0.4875,-0.4835,-0.6037,-0.6034,-0.6034,-0.6034,-0.6026,-0.5923,-0.5822,-0.5691,-0.5691,-0.5688,-0.5688,-0.5688,-0.5688,-0.5688,-0.5688,-0.5688,-0.5688,-0.5688,-0.5688,0.0,-0.5688,-0.5688,-0.5688,-0.5688,-0.5688,-0.5688,-0.5688,-0.5599,-0.5419,-0.5146,-0.4924,-0.4748,-0.4433,-0.4297,-0.4297,-0.4297,-0.4297,-0.4297,-0.4297,-0.4297,-0.4297,-0.4297,-0.4297,-0.4297,-0.4297,-0.4295,-0.4281,-0.4212,-0.4167,-0.4153,-0.4035,-0.3861,-0.368,-0.364,-0.355,-0.3371,-0.3496,-0.3622,-0.366,-0.3841,-0.3932,-0.398,-0.4102,-0.4114,-0.3984,-0.3986,-0.4027,-0.4144,-0.4153,-0.4185,-0.4251,-0.4255,-0.4251,-0.4255,-0.4261,-0.4261,-0.4253,-0.4265,-0.4275,-0.4275,-0.4289,-0.4297,-0.4297,-0.4297,-0.4297,-0.4297,-0.4297,-0.4297,-0.4344,-0.4525,-0.4705,-0.475,-0.4879,-0.4966,-0.4966,-0.501,-0.5055,-0.501,-0.501,-0.5055,-0.4966,-0.4966,-0.4966,-0.4966,-0.4966,-0.4966,-0.4966,-0.4835,-0.4748,-0.4703,-0.4612,-0.4476,-0.4431,-0.4431,-0.4478,-0.6086,-0.6086,-0.6086,-0.6086,-0.6081,-0.6024,-0.5972,-0.5926,-0.5923,-0.5804,-0.5694,-0.5688,-0.5688,-0.5688,-0.5688,-0.5688,-0.5688,-0.5688,-0.5688,-0.5688,-0.5688,-0.5688,-0.5688,-0.5688,-0.5688,-0.5688,-0.5688,-0.5599,-0.5416,-0.5146,-0.4879,-0.4705,-0.4433,-0.4297,-0.4297,-0.4297,-0.4297,-0.4297,-0.4297,-0.4297,-0.4297,-0.4297,-0.4297,-0.4297,-0.4297,-0.4297,-0.4297,-0.4261,-0.424,-0.4242,-0.4202,-0.4116,-0.3984,-0.3896,-0.3788,-0.3743,-0.3697,-0.3739,-0.3867,-0.4039,-0.413,-0.4175,-0.4216,-0.4224,-0.4183,-0.4177,-0.4195,-0.4236,-0.424,-0.4257,-0.4293,-0.4297,-0.4297,-0.4297,-0.4297,-0.4297,-0.4297,-0.4297,-0.4297,-0.4297,-0.4297,-0.4297,-0.4297,-0.4297,-0.4297,-0.4297,-0.4297,-0.4297,-0.4297,-0.4389,-0.4478,-0.4523,-0.4565,-0.461,-0.4654,-0.4746,-0.479,-0.4656,-0.4746,-0.4743,-0.4656,-0.461,-0.4612,-0.461,-0.461,-0.461,-0.4654,-0.4567,-0.4478,-0.4478,-0.4389,-0.4297,-0.4297,-0.4297,-0.4344,-0.6168,-0.6165,-0.6165,-0.6151,-0.6127,-0.6127,-0.6111,-0.6086,-0.6083,-0.5983,-0.5825,-0.5784,-0.5712,-0.5688,-0.5688,-0.5688,-0.5688,-0.5688,-0.5688,-0.5688,-0.5688,-0.5688,-0.5688,-0.5688,-0.5688,-0.5688,-0.5688,-0.5555,-0.5327,-0.5099,-0.4879,-0.4614,-0.4389,-0.4297,-0.4297,-0.4297,-0.4297,-0.4297,-0.4297,-0.4297,-0.4297,-0.4297,-0.4297,-0.4297,-0.4297,-0.4297,-0.4297,-0.4297,-0.4297,-0.4297,-0.4297,-0.4269,-0.4251,-0.4069,-0.4037,-0.4061,-0.3923,-0.3923,-0.4055,-0.4161,-0.4272,-0.4291,-0.4297,-0.4297,-0.4297,-0.4297,-0.4297,-0.4297,-0.4295,-0.4295,-0.4297,-0.4297,-0.4297,-0.4297,-0.4297,-0.4297,-0.4297,-0.4297,-0.4297,-0.4297,-0.4297,-0.4297,-0.4297,-0.4297,-0.4297,-0.4297,-0.4297,-0.4297,-0.4297,-0.4297,-0.4297,-0.4297,-0.4297,-0.4342,-0.4297,-0.4478,-0.4525,-0.4297,-0.4478,-0.4478,-0.4389,-0.4342,-0.4297,-0.4344,-0.4344,-0.4344,-0.4297,-0.4297,-0.4342,-0.4344,-0.4297,-0.4297,-0.4297,-0.4297,-0.4297,-0.6352,-0.6404,-0.6344,-0.6344,-0.6255,-0.6252,-0.6192,-0.61,-0.6089,-0.6075,-0.604,-0.5937,-0.5833,-0.5696,-0.5696,-0.5702,-0.5699,-0.5691,-0.5696,-0.5744,-0.5688,-0.5691,-0.5696,-0.5691,-0.5688,-0.5688,-0.5688,-0.5463,-0.5099,-0.501,-0.4788,-0.4387,-0.4297,-0.4297,-0.4297,-0.4297,-0.4297,-0.4297,-0.4297,-0.4297,-0.4297,-0.4297,-0.4297,-0.4297,-0.4297,-0.4297,-0.4297,-0.4297,-0.4297,-0.4297,-0.4297,-0.4293,-0.4285,-0.4285,-0.4281,-0.4271,-0.4225,-0.4275,-0.4273,-0.4283,-0.4287,-0.4297,-0.4297,-0.4297,-0.4297,-0.4297,-0.4297,-0.4297,-0.4297,-0.4297,-0.4297,-0.4297,-0.4297,-0.4297,-0.4297,-0.4297,-0.4297,-0.4297,-0.4297,-0.4297,-0.4297,-0.4297,-0.4297,-0.4297,-0.4297,-0.4297,-0.4297,-0.4297,-0.4297,-0.4297,-0.4297,-0.4297,-0.4297,-0.4297,-0.4297,-0.4297,-0.4344,-0.4297,-0.4297,-0.4344,-0.4297,-0.4297,-0.4297,-0.4297,-0.4297,-0.4297,-0.4297,-0.4297,-0.4297,-0.4297,-0.4297,-0.4297,-0.4297,-0.4297,-0.4297,-0.5937,-0.5937,-0.5934,-0.6014,-0.6127,-0.6124,-0.6194,-0.6295,-0.6293,-0.6257,-0.6192,-0.6188,-0.6053,-0.5942,-0.5942,-0.5942,-0.5942,-0.5942,-0.5942,-0.5942,-0.5942,-0.5904,-0.5839,-0.5833,-0.5756,-0.5694,-0.5688,-0.5463,-0.501,-0.4699,-0.4476,-0.4342,-0.4297,-0.4297,-0.4297,-0.4297,-0.4297,-0.4297,-0.4297,-0.4297,-0.4297,-0.4297,-0.4297,-0.4297,-0.4297,-0.4297,-0.4297,-0.4297,-0.4297,-0.4297,-0.4297,-0.4297,-0.4297,-0.4297,-0.4297,-0.4297,-0.4297,-0.4297,-0.4297,-0.4297,-0.4297,-0.4297,-0.4297,-0.4297,-0.4297,-0.4297,-0.4297,-0.4297,-0.4297,-0.4297,-0.4297,-0.4297,-0.4297,-0.4297,-0.4297,-0.4297,-0.4297,-0.4297,-0.4297,-0.4297,-0.4297,-0.4297,-0.4297,-0.4297,-0.4297,-0.4297,-0.4297,-0.4297,-0.4297,-0.4297,-0.4297,-0.4297,-0.4297,-0.4297,-0.4297,-0.4297,-0.4297,-0.4297,-0.4297,-0.4297,-0.4297,-0.4297,-0.4297,-0.4297,-0.4297,-0.4297,-0.4297,-0.4297,-0.4297,-0.4297,-0.4297,-0.4297,-0.4297,-0.4297,-0.4297,-0.5584,-0.5584,-0.5584,-0.5737,-0.5889,-0.5889,-0.6039,-0.6287,-0.6287,-0.6294,-0.632,-0.6314,-0.622,-0.6085,-0.6071,-0.6086,-0.6086,-0.6086,-0.6086,-0.6086,-0.6042,-0.5943,-0.582,-0.5768,-0.568,-0.5609,-0.5528,-0.5268,-0.4792,-0.4389,-0.4168,-0.4123,-0.4121,-0.4121,-0.4121,-0.4119,-0.4121,-0.421,-0.4166,-0.4212,-0.4297,-0.4297,-0.4297,-0.4297,-0.4297,-0.4297,-0.4297,-0.4297,-0.4297,-0.4297,-0.4297,-0.4297,-0.4297,-0.4297,-0.4297,-0.4297,-0.4297,-0.4297,-0.4297,-0.4297,-0.4297,-0.4297,-0.4297,-0.4297,-0.4297,-0.4297,-0.4297,-0.4297,-0.4297,-0.4297,-0.4297,-0.4297,-0.4297,-0.4297,-0.4297,-0.4297,-0.4297,-0.4297,-0.4297,-0.4297,-0.4297,-0.4297,-0.4297,-0.4297,-0.4297,-0.4297,-0.4297,-0.4297,-0.4297,-0.4297,-0.4297,-0.4297,-0.4297,-0.4297,-0.4297,-0.4297,-0.4297,-0.4297,-0.4297,-0.4297,-0.4297,-0.4297,-0.4297,-0.4297,-0.4297,-0.4297,-0.4297,-0.4297,-0.4297,-0.4297,-0.4297,-0.4297,-0.4297,-0.4297,-0.4297,-0.5584,-0.5584,-0.5584,-0.5536,-0.5636,-0.5584,-0.5789,-0.5989,-0.5992,-0.6134,-0.6323,-0.6373,-0.6226,-0.5999,-0.6053,-0.6094,-0.6094,-0.6058,-0.606,-0.606,-0.5823,-0.5713,-0.5708,-0.5467,-0.5365,-0.5329,-0.5249,-0.4886,-0.4399,-0.4039,-0.3812,-0.3631,-0.3676,-0.3631,-0.3674,-0.3676,-0.3721,-0.3901,-0.3946,-0.4036,-0.4257,-0.43,-0.4255,-0.4255,-0.4297,-0.4297,-0.4297,-0.4297,-0.4297,-0.4297,-0.4297,-0.4297,-0.4297,-0.4297,-0.4297,-0.4297,-0.4297,-0.4297,-0.4297,-0.4297,-0.4297,-0.4297,-0.4297,-0.4297,-0.4297,-0.4297,-0.4297,-0.4297,-0.4297,-0.4297,-0.4297,-0.4297,-0.4297,-0.4297,-0.4297,-0.4297,-0.4297,-0.4297,-0.4297,-0.4297,-0.4297,-0.4297,-0.4297,-0.4297,-0.4297,-0.4297,-0.4297,-0.4297,-0.4297,-0.4297,-0.4297,-0.4297,-0.4297,-0.4297,-0.4297,-0.4297,-0.4297,-0.4297,-0.4297,-0.4297,-0.4297,-0.4297,-0.4297,-0.4297,-0.4297,-0.4297,-0.4297,-0.4297,-0.4297,-0.4297,-0.4297,-0.4297,-0.4297,-0.4297,-0.4297,-0.4583,-0.4583,-0.4583,-0.4686,-0.4839,-0.5035,-0.5236,-0.5491,-0.5689,-0.5789,-0.5884,-0.5887,-0.5837,-0.5732,-0.5758,-0.577,-0.5772,-0.577,-0.577,-0.577,-0.5672,-0.5642,-0.5533,-0.548,-0.5391,-0.5282,-0.5242,-0.4937,-0.435,-0.3979,-0.3725,-0.3637,-0.3587,-0.3587,-0.3587,-0.3587,-0.3631,-0.3721,-0.3721,-0.3765,-0.3853,-0.3855,-0.39,-0.4034,-0.4212,-0.4297,-0.4297,-0.4297,-0.4297,-0.4297,-0.4297,-0.4297,-0.4297,-0.4297,-0.4297,-0.4297,-0.4297,-0.4297,-0.4297,-0.4297,-0.4297,-0.4297,-0.4297,-0.4297,-0.4297,-0.4297,-0.4297,-0.4297,-0.4297,-0.4297,-0.4297,-0.4297,-0.4297,-0.4297,-0.4297,-0.4297,-0.4297,-0.4297,-0.4297,-0.4297,-0.4297,-0.4297,-0.4297,-0.4297,-0.4297,-0.4297,-0.4297,-0.4297,-0.4297,-0.4297,-0.4297,-0.4297,-0.4297,-0.4297,-0.4297,-0.4297,-0.4297,-0.4297,-0.4297,-0.4297,-0.4297,-0.4297,-0.4297,-0.4297,-0.4297,-0.4297,-0.4297,-0.4297,-0.4297,-0.4297,-0.4297,-0.4297,-0.4297,-0.4297,-0.4297,-0.3984,-0.3984,-0.3984,-0.4085,-0.4286,-0.4485,-0.4686,-0.4989,-0.5238,-0.5386,-0.5486,-0.5536,-0.5534,-0.5384,-0.5336,-0.5236,-0.5135,-0.5434,-0.5584,-0.5584,-0.5536,-0.5402,-0.5253,-0.5192,-0.5061,-0.4901,-0.4864,-0.4565,-0.4111,-0.3665,-0.3397,-0.3266,-0.3196,-0.3139,-0.3139,-0.3139,-0.3227,-0.3317,-0.3361,-0.3451,-0.3585,-0.3587,-0.3676,-0.381,-0.3987,-0.4166,-0.43,-0.4297,-0.4297,-0.4297,-0.4297,-0.4297,-0.4297,-0.4297,-0.4297,-0.4297,-0.4297,-0.4297,-0.4297,-0.4297,-0.4297,-0.4297,-0.4297,-0.4297,-0.4297,-0.4297,-0.4297,-0.4297,-0.4297,-0.4297,-0.4297,-0.4297,-0.4297,-0.4297,-0.4297,-0.4297,-0.4297,-0.4297,-0.4297,-0.4297,-0.4297,-0.4297,-0.4297,-0.4297,-0.4297,-0.4297,-0.4297,-0.4297,-0.4297,-0.4297,-0.4297,-0.4297,-0.4297,-0.4297,-0.43,-0.4302,-0.4304,-0.4306,-0.43,-0.4297,-0.4297,-0.4297,-0.4297,-0.4297,-0.4297,-0.4297,-0.43,-0.43,-0.4302,-0.4306,-0.4297,-0.4297,-0.4297,-0.4297,-0.4312,-0.3935,-0.3932,-0.3984,-0.3882,-0.3882,-0.3932,-0.4135,-0.4386,-0.4634,-0.4885,-0.5087,-0.5386,-0.5186,-0.4885,-0.4784,-0.4533,-0.4383,-0.5033,-0.5384,-0.5384,-0.5238,-0.5037,-0.4774,-0.4574,-0.4323,-0.4107,-0.3953,-0.3736,-0.3431,-0.3143,-0.288,-0.2632,-0.2451,-0.2388,-0.2247,-0.2336,-0.2467,-0.2778,-0.2911,-0.3092,-0.3496,-0.3497,-0.3497,-0.3542,-0.3587,-0.3808,-0.4255,-0.4255,-0.43,-0.4297,-0.4297,-0.4297,-0.4297,-0.4297,-0.4297,-0.4297,-0.4297,-0.4297,-0.4297,-0.4297,-0.4297,-0.4297,-0.4297,-0.4297,-0.4297,-0.4297,-0.4297,-0.4297,-0.4297,-0.4297,-0.4297,-0.4297,-0.4297,-0.4297,-0.4297,-0.4297,-0.4297,-0.4297,-0.4297,-0.4297,-0.4297,-0.4297,-0.4297,-0.4297,-0.4297,-0.4297,-0.4297,-0.4297,-0.4297,-0.4297,-0.4297,-0.43,-0.4316,-0.4334,-0.432,-0.4306,-0.431,-0.4312,-0.4304,-0.4297,-0.4297,-0.4297,-0.4297,-0.4297,-0.4297,-0.4302,-0.4342,-0.4344,-0.4353,-0.4353,-0.433,-0.4342,-0.4363,-0.4379,-0.4355,-0.2959,-0.2876,-0.2924,-0.2874,-0.2924,-0.3077,-0.333,-0.3583,-0.3882,-0.413,-0.4334,-0.4483,-0.4433,-0.4286,-0.4234,-0.4135,-0.4033,-0.4182,-0.4331,-0.4483,-0.4435,-0.4334,-0.4234,-0.4133,-0.3984,-0.3677,-0.3309,-0.307,-0.2921,-0.2654,-0.2442,-0.2313,-0.2223,-0.2202,-0.2151,-0.2216,-0.2288,-0.2378,-0.2422,-0.2511,-0.2602,-0.2647,-0.2781,-0.3092,-0.3136,-0.336,-0.3765,-0.3946,-0.4123,-0.43,-0.4297,-0.4297,-0.4297,-0.4297,-0.4297,-0.4297,-0.4297,-0.4297,-0.4297,-0.4297,-0.4297,-0.4297,-0.4297,-0.4297,-0.4297,-0.4297,-0.4297,-0.4297,-0.4297,-0.4297,-0.4297,-0.4297,-0.4297,-0.4297,-0.4297,-0.4297,-0.4297,-0.4297,-0.4297,-0.4297,-0.4297,-0.4297,-0.4297,-0.4297,-0.4297,-0.43,-0.4302,-0.4304,-0.4302,-0.4316,-0.4297,-0.43,-0.4338,-0.4393,-0.4395,-0.4412,-0.4432,-0.441,-0.4379,-0.4359,-0.4346,-0.4338,-0.4332,-0.4328,-0.4324,-0.4338,-0.4377,-0.44,-0.4412,-0.4449,-0.4517,-0.4528,-0.4532,-0.4515,-0.4489,-0.2133,-0.2111,-0.2214,-0.2256,-0.2294,-0.2549,-0.2742,-0.2933,-0.32,-0.3413,-0.3571,-0.3695,-0.3654,-0.3598,-0.3579,-0.3516,-0.3462,-0.3237,-0.3226,-0.3429,-0.363,-0.3632,-0.353,-0.3429,-0.3327,-0.3126,-0.2825,-0.2658,-0.2578,-0.2312,-0.2097,-0.1974,-0.1844,-0.1724,-0.1666,-0.1645,-0.1675,-0.1753,-0.1795,-0.1885,-0.2019,-0.2064,-0.2242,-0.2599,-0.2645,-0.2868,-0.3317,-0.3451,-0.3721,-0.4078,-0.4255,-0.4297,-0.4297,-0.4297,-0.4297,-0.4297,-0.4297,-0.4297,-0.4297,-0.4297,-0.4297,-0.4297,-0.4297,-0.4297,-0.4297,-0.4297,-0.4297,-0.4297,-0.4297,-0.4297,-0.4297,-0.4297,-0.4297,-0.4297,-0.4297,-0.4297,-0.4297,-0.4297,-0.4297,-0.4297,-0.4297,-0.4297,-0.4297,-0.4297,-0.4297,-0.43,-0.4328,-0.4305,-0.4357,-0.4385,-0.4387,-0.4402,-0.4449,-0.4483,-0.4489,-0.4518,-0.4604,-0.4522,-0.4477,-0.4459,-0.4444,-0.4444,-0.444,-0.4444,-0.4444,-0.4453,-0.4485,-0.4487,-0.45,-0.4598,-0.4635,-0.4602,-0.4581,-0.459,-0.4573,-0.1546,-0.1598,-0.1864,-0.1948,-0.1924,-0.2186,-0.2274,-0.2348,-0.2636,-0.2763,-0.2875,-0.3002,-0.3024,-0.2862,-0.2822,-0.2701,-0.2487,-0.2407,-0.234,-0.249,-0.2739,-0.2835,-0.2725,-0.2522,-0.2371,-0.2321,-0.227,-0.2218,-0.2161,-0.1936,-0.182,-0.1521,-0.1302,-0.0995,-0.0888,-0.0742,-0.0915,-0.1129,-0.1123,-0.1346,-0.166,-0.1705,-0.184,-0.2108,-0.2153,-0.2332,-0.2734,-0.2957,-0.327,-0.3857,-0.4123,-0.4255,-0.4297,-0.4297,-0.4297,-0.4297,-0.4297,-0.4297,-0.4297,-0.4297,-0.4297,-0.4297,-0.4297,-0.4297,-0.4297,-0.4297,-0.4297,-0.4297,-0.4297,-0.4297,-0.4297,-0.4297,-0.4297,-0.4297,-0.4297,-0.4297,-0.4297,-0.4297,-0.4297,-0.4297,-0.4297,-0.4304,-0.4314,-0.4318,-0.4322,-0.4349,-0.4404,-0.4388,-0.4453,-0.4485,-0.4596,-0.4608,-0.4551,-0.4575,-0.4583,-0.4632,-0.4667,-0.4659,-0.4606,-0.4571,-0.4534,-0.4524,-0.4522,-0.453,-0.4549,-0.4563,-0.4577,-0.4579,-0.4598,-0.4638,-0.4634,-0.4643,-0.4649,-0.463,-0.4634,-0.1078,-0.1014,-0.112,-0.1117,-0.1114,-0.1233,-0.1399,-0.15,-0.1614,-0.1834,-0.194,-0.203,-0.2031,-0.197,-0.1964,-0.1904,-0.1795,-0.163,-0.1523,-0.1519,-0.1451,-0.1635,-0.182,-0.1666,-0.1515,-0.1515,-0.1414,-0.1211,-0.1212,-0.1205,-0.1102,-0.1002,-0.0934,-0.0826,-0.0772,-0.0705,-0.0739,-0.0779,-0.0813,-0.0852,-0.0987,-0.0987,-0.1122,-0.1391,-0.1525,-0.1794,-0.2107,-0.2644,-0.3226,-0.3812,-0.3946,-0.4123,-0.4253,-0.43,-0.4297,-0.4297,-0.4297,-0.4297,-0.4297,-0.4297,-0.4297,-0.4297,-0.4297,-0.4297,-0.4297,-0.4297,-0.4297,-0.4297,-0.4297,-0.4297,-0.4297,-0.4297,-0.4297,-0.4297,-0.4297,-0.4297,-0.4297,-0.4297,-0.4297,-0.4297,-0.43,-0.4332,-0.4375,-0.4402,-0.4422,-0.4475,-0.4512,-0.4536,-0.4547,-0.4565,-0.4616,-0.461,-0.461,-0.4649,-0.4687,-0.4738,-0.4771,-0.4783,-0.4745,-0.4692,-0.4632,-0.4575,-0.4567,-0.461,-0.4602,-0.4622,-0.4653,-0.4673,-0.4702,-0.4724,-0.4734,-0.4722,-0.4749,-0.4773,-0.4763,-0.0495,-0.0491,-0.0604,-0.0658,-0.0656,-0.0776,-0.0946,-0.0997,-0.1058,-0.1173,-0.1283,-0.1338,-0.133,-0.1321,-0.1311,-0.1301,-0.1292,-0.1122,-0.1065,-0.0958,-0.0685,-0.0777,-0.1118,-0.1061,-0.101,-0.101,-0.0859,-0.0808,-0.0808,-0.0808,-0.0758,-0.0655,-0.0649,-0.0594,-0.0441,-0.0433,-0.0376,-0.0417,-0.0411,-0.0453,-0.0539,-0.0583,-0.0718,-0.0897,-0.1076,-0.1256,-0.166,-0.2286,-0.2914,-0.3497,-0.3765,-0.3946,-0.4123,-0.4255,-0.4297,-0.4297,-0.4297,-0.4297,-0.4297,-0.4297,-0.4297,-0.4297,-0.4297,-0.4297,-0.4297,-0.4297,-0.4297,-0.4297,-0.4297,-0.4297,-0.4297,-0.4297,-0.4297,-0.4297,-0.4297,-0.4297,-0.43,-0.4297,-0.4297,-0.4306,-0.4334,-0.4371,-0.4388,-0.4467,-0.4516,-0.4561,-0.46,-0.4618,-0.4632,-0.4655,-0.4675,-0.4681,-0.4694,-0.473,-0.4699,-0.4738,-0.4752,-0.4768,-0.4764,-0.4771,-0.473,-0.4657,-0.4671,-0.4675,-0.4677,-0.4687,-0.4722,-0.4753,-0.4773,-0.4748,-0.4778,-0.4782,-0.4782,-0.4782,-0.4782,0.0,0.0,-0.0228,-0.0285,-0.0283,-0.0574,-0.0516,-0.0568,-0.0575,-0.0636,-0.0637,-0.0644,-0.0579,-0.0691,-0.0566,-0.067,-0.066,-0.0545,-0.0538,-0.0376,-0.016,-0.0158,-0.0461,-0.0458,-0.0456,-0.0506,-0.0606,-0.0556,-0.0455,-0.0505,-0.0455,-0.0252,-0.0202,-0.015,0.0049,0.0098,0.0048,0.0094,0.0046,-0.0092,-0.0226,-0.0315,-0.0449,-0.0583,-0.0673,-0.0942,-0.1346,-0.1839,-0.2377,-0.3048,-0.3499,-0.3767,-0.3901,-0.4166,-0.4255,-0.4297,-0.4297,-0.4297,-0.4297,-0.4297,-0.4297,-0.4297,-0.4297,-0.4297,-0.4297,-0.4297,-0.4297,-0.4297,-0.4297,-0.4297,-0.4297,-0.4297,-0.4297,-0.4297,-0.4297,-0.4302,-0.4312,-0.4312,-0.4312,-0.432,-0.4393,-0.4396,-0.4437,-0.4528,-0.4594,-0.4663,-0.4694,-0.471,-0.4726,-0.4745,-0.4767,-0.4738,-0.4752,-0.4766,-0.4772,-0.4778,-0.4776,-0.478,-0.478,-0.476,-0.476,-0.4728,-0.4752,-0.4758,-0.4716,-0.4714,-0.4744,-0.477,-0.4778,-0.478,-0.4782,-0.4782,-0.4782,-0.4782,-0.4782,0.017,0.04,0.0344,0.0462,0.0643,0.0593,0.0596,0.0594,0.0596,0.0477,0.0536,0.0592,0.053,0.0527,0.0466,0.0578,0.0398,0.0451,0.0559,0.0544,0.0598,0.0699,0.0527,0.052,0.0461,0.0406,0.0404,0.0404,0.0404,0.0303,0.0455,0.0455,0.0404,0.0555,0.0602,0.0544,0.0637,0.0579,0.0424,0.0278,0.0183,0.0,-0.0135,-0.0225,-0.0359,-0.0718,-0.1121,-0.1436,-0.1749,-0.2153,-0.2735,-0.3272,-0.3723,-0.3946,-0.408,-0.4255,-0.4297,-0.4297,-0.4297,-0.4297,-0.4297,-0.4297,-0.4297,-0.4297,-0.4297,-0.4297,-0.4297,-0.4297,-0.4297,-0.4297,-0.4297,-0.4297,-0.4297,-0.4297,-0.4306,-0.4332,-0.4385,-0.4358,-0.435,-0.4422,-0.4487,-0.4569,-0.463,-0.4649,-0.4704,-0.4761,-0.4783,-0.4802,-0.4812,-0.477,-0.4776,-0.4782,-0.4782,-0.4782,-0.4782,-0.4782,-0.4782,-0.4782,-0.4782,-0.4782,-0.4782,-0.4782,-0.4782,-0.4782,-0.4776,-0.4782,-0.4782,-0.4782,-0.478,-0.4782,-0.4782,-0.4782,-0.4782,-0.4782,-0.4782,0.0566,0.069,0.0695,0.0822,0.1014,0.103,0.1037,0.1037,0.1037,0.1037,0.1035,0.1027,0.102,0.1013,0.1012,0.0945,0.0931,0.0922,0.0964,0.1,0.1106,0.1152,0.1298,0.1281,0.1209,0.0924,0.0761,0.0809,0.0808,0.0808,0.0758,0.0808,0.0808,0.0757,0.0808,0.08,0.0793,0.0735,0.0674,0.0567,0.0556,0.0321,0.0091,-0.0045,-0.0269,-0.0538,-0.0762,-0.0987,-0.1256,-0.1614,-0.1973,-0.2599,-0.3363,-0.3721,-0.3991,-0.408,-0.4255,-0.43,-0.4297,-0.4297,-0.4297,-0.4297,-0.4297,-0.4297,-0.4297,-0.4297,-0.4297,-0.4297,-0.4297,-0.4297,-0.4297,-0.4297,-0.4297,-0.4308,-0.4338,-0.4383,-0.4378,-0.439,-0.441,-0.45,-0.4579,-0.4643,-0.4696,-0.4732,-0.4716,-0.4752,-0.4754,-0.477,-0.477,-0.4778,-0.478,-0.4782,-0.4782,-0.4782,-0.4782,-0.4782,-0.4782,-0.4782,-0.4782,-0.4782,-0.4782,-0.4782,-0.4782,-0.4784,-0.4784,-0.4784,-0.4782,-0.4782,-0.4734,-0.4782,-0.4782,-0.4782,-0.4784,-0.4734,-0.4784,0.0908,0.0983,0.0998,0.1074,0.1151,0.1166,0.1172,0.1173,0.1173,0.1233,0.1173,0.1173,0.1283,0.1214,0.1211,0.114,0.1122,0.11,0.1252,0.1353,0.14,0.1499,0.1648,0.1634,0.1505,0.1046,0.1027,0.1017,0.0961,0.096,0.101,0.096,0.096,0.101,0.096,0.0908,0.1002,0.0989,0.0931,0.087,0.0799,0.0604,0.0366,0.009,-0.009,-0.0269,-0.0404,-0.0583,-0.0852,-0.1211,-0.1346,-0.1883,-0.2599,-0.3361,-0.3857,-0.3857,-0.4078,-0.421,-0.4297,-0.4297,-0.4297,-0.4297,-0.4297,-0.4297,-0.4297,-0.4297,-0.4297,-0.4297,-0.4297,-0.4297,-0.4297,-0.4297,-0.4308,-0.4332,-0.435,-0.4394,-0.4427,-0.4429,-0.453,-0.4585,-0.4667,-0.4732,-0.4755,-0.4732,-0.4762,-0.4782,-0.4782,-0.4782,-0.4782,-0.4782,-0.4782,-0.4782,-0.4782,-0.4782,-0.4782,-0.4636,-0.4636,-0.4634,-0.4684,-0.4634,-0.4634,-0.4533,-0.4533,-0.4734,-0.4786,-0.4734,-0.4634,-0.4533,-0.4583,-0.4684,-0.4634,-0.4483,-0.4533,-0.4686,-0.4684,0.1085,0.1352,0.1373,0.1577,0.1783,0.1851,0.1791,0.1853,0.1791,0.1853,0.1791,0.1853,0.1788,0.1783,0.1845,0.1767,0.1668,0.1572,0.1606,0.1651,0.1693,0.1731,0.1781,0.1819,0.169,0.167,0.1525,0.1438,0.1421,0.1465,0.1364,0.1415,0.1415,0.1415,0.1414,0.1465,0.1362,0.1351,0.1239,0.1125,0.1061,0.0895,0.0597,0.0361,0.0225,0.009,-0.009,-0.0314,-0.0493,-0.0628,-0.1121,-0.1569,-0.2062,-0.2689,-0.3272,-0.3721,-0.3946,-0.4078,-0.421,-0.4297,-0.4297,-0.4297,-0.4297,-0.4297,-0.4297,-0.4297,-0.4297,-0.4297,-0.43,-0.43,-0.4297,-0.4312,-0.4344,-0.4344,-0.4398,-0.4459,-0.4562,-0.4651,-0.4651,-0.4687,-0.4707,-0.4754,-0.4756,-0.4758,-0.4772,-0.4782,-0.4782,-0.4782,-0.4782,-0.4782,-0.4782,-0.4782,-0.4782,-0.4782,-0.4782,-0.4587,-0.4438,-0.4386,-0.4336,-0.4234,-0.4234,-0.4131,-0.4183,-0.4435,-0.4537,-0.4487,-0.4386,-0.4284,-0.4284,-0.4334,-0.4234,-0.4183,-0.4284,-0.4334,-0.4284,0.1479,0.1632,0.1672,0.1827,0.1974,0.2038,0.2038,0.2038,0.2038,0.2038,0.2038,0.2038,0.2038,0.1973,0.1958,0.1928,0.1885,0.18,0.1774,0.1817,0.1802,0.1795,0.1795,0.1778,0.1819,0.1797,0.1704,0.1668,0.1641,0.1573,0.1568,0.1566,0.1566,0.1566,0.1566,0.1566,0.1566,0.1562,0.1452,0.1388,0.1374,0.1144,0.0885,0.0642,0.0455,0.0317,0.0225,-0.0045,-0.0269,-0.0448,-0.0807,-0.1211,-0.166,-0.2198,-0.2826,-0.3452,-0.3767,-0.3946,-0.4123,-0.421,-0.4297,-0.4297,-0.4297,-0.4297,-0.4297,-0.4297,-0.43,-0.4302,-0.4302,-0.432,-0.4365,-0.4367,-0.4414,-0.4491,-0.4495,-0.461,-0.4689,-0.4743,-0.4761,-0.4767,-0.4748,-0.4772,-0.4776,-0.4778,-0.4782,-0.4782,-0.4782,-0.4784,-0.4784,-0.4734,-0.4734,-0.4684,-0.4634,-0.4535,-0.4483,-0.4286,-0.4137,-0.4086,-0.3984,-0.3833,-0.3888,-0.3788,-0.3986,-0.4234,-0.4236,-0.4062,-0.4135,-0.4083,-0.4034,-0.3934,-0.3932,-0.3932,-0.3984,-0.3984,-0.3883,0.1811,0.1854,0.1848,0.1949,0.1974,0.2038,0.2038,0.2038,0.2038,0.2038,0.2038,0.1969,0.1966,0.1959,0.1933,0.1896,0.1791,0.1788,0.1828,0.1812,0.1799,0.1795,0.1795,0.1792,0.1782,0.1816,0.1718,0.169,0.1658,0.163,0.1618,0.1566,0.1566,0.1566,0.1566,0.1566,0.1566,0.1566,0.1566,0.1601,0.1523,0.1402,0.114,0.0933,0.0652,0.0554,0.0366,0.0183,-0.0045,-0.0272,-0.0542,-0.0856,-0.1302,-0.184,-0.2423,-0.3005,-0.3544,-0.3812,-0.3991,-0.4168,-0.4297,-0.4297,-0.4297,-0.4297,-0.4297,-0.4302,-0.4308,-0.432,-0.4332,-0.4373,-0.4444,-0.4461,-0.4508,-0.4583,-0.4659,-0.4718,-0.4747,-0.4783,-0.476,-0.477,-0.4782,-0.4782,-0.4782,-0.4782,-0.4782,-0.4782,-0.4784,-0.4686,-0.4686,-0.4636,-0.4585,-0.4535,-0.4435,-0.4236,-0.4135,-0.3934,-0.3784,-0.3734,-0.3531,-0.3328,-0.3438,-0.3495,-0.365,-0.3616,-0.3594,-0.3456,-0.3673,-0.3734,-0.3429,-0.3328,-0.358,-0.358,-0.3379,-0.3328,-0.3328,0.1804,0.1883,0.1916,0.1949,0.1973,0.1976,0.2038,0.2038,0.2038,0.2038,0.1975,0.1949,0.1938,0.1926,0.1904,0.1887,0.187,0.1847,0.1774,0.1821,0.1804,0.1795,0.1795,0.1795,0.1793,0.1773,0.1729,0.1692,0.1716,0.1635,0.1618,0.1566,0.1566,0.1566,0.1566,0.1566,0.1566,0.1566,0.1566,0.1603,0.1579,0.1569,0.1405,0.1195,0.1045,0.0852,0.047,0.0329,0.0187,-0.0046,-0.0323,-0.0639,-0.1126,-0.157,-0.2064,-0.2602,-0.3184,-0.3721,-0.3903,-0.4123,-0.43,-0.43,-0.4297,-0.4297,-0.4312,-0.432,-0.4342,-0.4368,-0.4374,-0.4463,-0.4534,-0.4555,-0.4608,-0.4657,-0.4712,-0.4712,-0.4748,-0.475,-0.4778,-0.4782,-0.4782,-0.4782,-0.4782,-0.4782,-0.4782,-0.4782,-0.4784,-0.4636,-0.4537,-0.4487,-0.4286,-0.4133,-0.3982,-0.3833,-0.3581,-0.343,-0.3331,-0.3281,-0.3038,-0.2785,-0.285,-0.2866,-0.2734,-0.2749,-0.2717,-0.2765,-0.2885,-0.2856,-0.2683,-0.2689,-0.2863,-0.2747,-0.2573,-0.2574,-0.2684,0.1767,0.184,0.1904,0.1938,0.1952,0.1969,0.2038,0.2038,0.2038,0.2038,0.1971,0.1944,0.1854,0.1825,0.1864,0.185,0.1835,0.1822,0.1815,0.1816,0.1802,0.1795,0.1795,0.1795,0.1795,0.1777,0.1738,0.1703,0.1673,0.1641,0.1566,0.1566,0.1566,0.1566,0.1566,0.1566,0.1566,0.1566,0.1565,0.161,0.16,0.1594,0.1533,0.1457,0.1309,0.1012,0.0718,0.0429,0.0285,0.0,-0.0282,-0.0563,-0.0931,-0.1394,-0.186,-0.2372,-0.2928,-0.3354,-0.3694,-0.3952,-0.4133,-0.4259,-0.4308,-0.4322,-0.4357,-0.4379,-0.4414,-0.4504,-0.4512,-0.4559,-0.4626,-0.4649,-0.4702,-0.4747,-0.4767,-0.4736,-0.4768,-0.4774,-0.4782,-0.4782,-0.4782,-0.4782,-0.4784,-0.4734,-0.4734,-0.4736,-0.4636,-0.4487,-0.4386,-0.4286,-0.3984,-0.3581,-0.3481,-0.338,-0.3078,-0.2774,-0.2778,-0.2684,-0.2511,-0.2309,-0.2215,-0.2177,-0.2043,-0.1948,-0.1903,-0.1998,-0.2133,-0.2234,-0.2233,-0.2131,-0.2081,-0.2016,-0.1951,-0.1945,-0.2048,0.1735,0.1791,0.1874,0.1857,0.1873,0.1956,0.197,0.2038,0.2038,0.1973,0.1956,0.1923,0.1817,0.1782,0.1829,0.1819,0.1798,0.1795,0.1795,0.1795,0.1795,0.1795,0.1795,0.1795,0.179,0.1782,0.173,0.1699,0.1675,0.1646,0.1566,0.1566,0.1566,0.1566,0.1566,0.1566,0.1566,0.1566,0.1566,0.1565,0.1564,0.1564,0.1603,0.154,0.1383,0.1178,0.0922,0.063,0.0388,0.0144,-0.0144,-0.0431,-0.0808,-0.1185,-0.1707,-0.2228,-0.2746,-0.3192,-0.3598,-0.3892,-0.4099,-0.4278,-0.4369,-0.4416,-0.4455,-0.4471,-0.4508,-0.4598,-0.4606,-0.4653,-0.4712,-0.4741,-0.4765,-0.475,-0.4772,-0.478,-0.4782,-0.4782,-0.4782,-0.4782,-0.4782,-0.4782,-0.4784,-0.4684,-0.4686,-0.4638,-0.4537,-0.4338,-0.4086,-0.3883,-0.3481,-0.3027,-0.2825,-0.2774,-0.2573,-0.2322,-0.2223,-0.2088,-0.1907,-0.1717,-0.1622,-0.1533,-0.1497,-0.134,-0.1234,-0.1295,-0.1511,-0.1663,-0.1758,-0.1588,-0.1474,-0.1421,-0.1416,-0.1409,-0.1445,0.1722,0.1813,0.1821,0.182,0.1867,0.1873,0.1949,0.1968,0.2034,0.1955,0.1924,0.1877,0.1836,0.1808,0.1803,0.18,0.1795,0.1795,0.1795,0.1795,0.1795,0.1795,0.1795,0.1791,0.178,0.1755,0.172,0.1692,0.1665,0.1638,0.162,0.1566,0.1566,0.1566,0.1566,0.1566,0.1566,0.1566,0.1566,0.1566,0.1566,0.1566,0.1563,0.1562,0.1562,0.146,0.1207,0.0901,0.0596,0.0343,0.0049,-0.0341,-0.0725,-0.1012,-0.1494,-0.2168,-0.2502,-0.3015,-0.3612,-0.3962,-0.4301,-0.4499,-0.4588,-0.4526,-0.4559,-0.4563,-0.4608,-0.4681,-0.4696,-0.4732,-0.4738,-0.4774,-0.4768,-0.4772,-0.4782,-0.4782,-0.4782,-0.4782,-0.4782,-0.4782,-0.4784,-0.4784,-0.4684,-0.4585,-0.4537,-0.4539,-0.4135,-0.3935,-0.3481,-0.3229,-0.2875,-0.2472,-0.2219,-0.2118,-0.2018,-0.1821,-0.163,-0.1443,-0.1253,-0.1107,-0.0957,-0.0915,-0.0927,-0.0875,-0.0822,-0.0886,-0.089,-0.0987,-0.1028,-0.091,-0.0854,-0.0857,-0.0852,-0.0844,-0.0883,0.176,0.1807,0.1776,0.1819,0.1819,0.1896,0.191,0.1919,0.1921,0.1904,0.1817,0.1849,0.1823,0.1802,0.1795,0.1795,0.1795,0.1795,0.1795,0.1795,0.1795,0.1795,0.1795,0.179,0.178,0.1802,0.1718,0.169,0.1714,0.1631,0.162,0.1566,0.1566,0.1566,0.1566,0.1566,0.1566,0.1566,0.1566,0.1566,0.1566,0.1566,0.1566,0.1566,0.1566,0.1465,0.1211,0.0959,0.0653,0.04,0.015,-0.0298,-0.0691,-0.0838,-0.1428,-0.2166,-0.2409,-0.3,-0.3718,-0.4014,-0.4148,-0.4524,-0.4621,-0.46,-0.4647,-0.4655,-0.4702,-0.4753,-0.4779,-0.4752,-0.4768,-0.4782,-0.478,-0.4782,-0.4782,-0.4782,-0.4782,-0.4782,-0.4782,-0.4782,-0.4734,-0.4734,-0.4585,-0.4487,-0.4438,-0.439,-0.3935,-0.3482,-0.2977,-0.2574,-0.227,-0.1968,-0.1665,-0.1463,-0.1363,-0.1172,-0.0978,-0.0834,-0.0687,-0.0642,-0.0541,-0.033,-0.0333,-0.0334,-0.0334,-0.0335,-0.0334,-0.0332,-0.0385,-0.0492,-0.0437,-0.0329,-0.0326,-0.032,-0.0368,0.1739,0.1778,0.1797,0.1785,0.1783,0.1863,0.1877,0.1885,0.1887,0.1869,0.1782,0.1774,0.1816,0.1799,0.1795,0.1795,0.1795,0.1795,0.1795,0.1795,0.1795,0.1795,0.1792,0.1781,0.1761,0.179,0.1759,0.1728,0.1645,0.1626,0.1619,0.1566,0.1566,0.1566,0.1566,0.1566,0.1566,0.1566,0.1566,0.1566,0.1566,0.1566,0.1566,0.1566,0.1566,0.1516,0.1263,0.101,0.0757,0.0504,0.0202,-0.0202,-0.0505,-0.0858,-0.1313,-0.1917,-0.2472,-0.2925,-0.3653,-0.4152,-0.4266,-0.4625,-0.4667,-0.4698,-0.4726,-0.4747,-0.4777,-0.476,-0.4778,-0.4782,-0.4782,-0.4782,-0.4782,-0.4782,-0.4782,-0.4782,-0.4782,-0.4782,-0.4782,-0.4784,-0.4734,-0.4686,-0.4336,-0.4137,-0.3885,-0.3784,-0.3482,-0.2978,-0.2423,-0.207,-0.1767,-0.1464,-0.1111,-0.0909,-0.0707,-0.0614,-0.0519,-0.0474,-0.0374,-0.0326,-0.0221,0.0,0.0112,0.0056,0.0112,0.0224,0.028,0.0223,0.0056,-0.0224,-0.0112,0.0,0.0055,0.0054,0.0107,0.1715,0.1724,0.1778,0.178,0.1772,0.1783,0.1855,0.1874,0.1877,0.1862,0.1776,0.1811,0.18,0.1795,0.1795,0.1795,0.1795,0.1795,0.1795,0.1795,0.1795,0.1795,0.1785,0.177,0.1744,0.1707,0.1682,0.1655,0.1622,0.162,0.1566,0.1566,0.1566,0.1566,0.1566,0.1566,0.1566,0.1566,0.1566,0.1566,0.1566,0.1566,0.1566,0.1566,0.1566,0.1566,0.1415,0.101,0.0758,0.0657,0.0252,-0.0151,-0.0404,-0.0707,-0.1212,-0.1917,-0.227,-0.2925,-0.3879,-0.4423,-0.4654,-0.4738,-0.4718,-0.4742,-0.4766,-0.4774,-0.4766,-0.4782,-0.4782,-0.4782,-0.4782,-0.4782,-0.4782,-0.4782,-0.4782,-0.4782,-0.4782,-0.4782,-0.4782,-0.4784,-0.4734,-0.4636,-0.4185,-0.3784,-0.3381,-0.313,-0.2977,-0.2523,-0.1919,-0.1515,-0.1212,-0.106,-0.0707,-0.0556,-0.0405,-0.0155,-0.0052,-0.0053,0.0,0.011,0.0167,0.028,0.0392,0.0392,0.0504,0.0561,0.0673,0.084,0.0504,0.0224,0.0112,0.0167,0.0331,0.0437,0.0488,0.1644,0.1717,0.1736,0.1714,0.1753,0.1794,0.1817,0.1824,0.1825,0.182,0.181,0.1797,0.1795,0.1795,0.1795,0.1795,0.1795,0.1795,0.1795,0.1795,0.1795,0.1795,0.1785,0.1819,0.1788,0.1705,0.1675,0.1646,0.1618,0.1566,0.1566,0.1566,0.1566,0.1566,0.1566,0.1566,0.1566,0.1566,0.1566,0.1566,0.1566,0.1566,0.1566,0.1566,0.1566,0.1566,0.1566,0.1061,0.0808,0.0758,0.0303,-0.0101,-0.0353,-0.0606,-0.1161,-0.1816,-0.2269,-0.2875,-0.3731,-0.4331,-0.4585,-0.4734,-0.4782,-0.4782,-0.4782,-0.4782,-0.4782,-0.4782,-0.4782,-0.4782,-0.4782,-0.4782,-0.4782,-0.4782,-0.4782,-0.4782,-0.4782,-0.4782,-0.4784,-0.4734,-0.4686,-0.4336,-0.3885,-0.338,-0.2977,-0.2473,-0.2271,-0.207,-0.1616,-0.106,-0.0656,-0.0555,-0.0353,-0.0202,-0.0051,0.0156,0.0263,0.0267,0.0436,0.0612,0.0672,0.0617,0.0673,0.0729,0.0785,0.0897,0.1009,0.1009,0.0841,0.0673,0.0673,0.0617,0.0724,0.0775,0.0773,0.1628,0.1699,0.1658,0.1724,0.1696,0.1743,0.1768,0.178,0.1789,0.1795,0.1795,0.1795,0.1795,0.1795,0.1795,0.1795,0.1795,0.1795,0.1795,0.1795,0.1795,0.1795,0.1785,0.1819,0.1733,0.1704,0.1675,0.1647,0.1568,0.1566,0.1566,0.1566,0.1566,0.1566,0.1566,0.1566,0.1566,0.1566,0.1566,0.1566,0.1566,0.1566,0.1566,0.1566,0.1566,0.1566,0.1465,0.1162,0.0808,0.0657,0.0353,-0.005,-0.0303,-0.0656,-0.106,-0.1615,-0.2422,-0.3027,-0.3732,-0.4085,-0.4336,-0.4585,-0.4734,-0.4782,-0.4782,-0.4782,-0.4782,-0.4782,-0.4782,-0.4782,-0.4782,-0.4782,-0.4782,-0.4782,-0.4782,-0.4782,-0.4784,-0.4784,-0.4684,-0.4636,-0.4435,-0.4036,-0.3533,-0.3027,-0.2522,-0.2019,-0.1565,-0.1414,-0.1263,-0.0758,-0.0303,-0.0202,-0.0101,0.0051,0.0257,0.0419,0.0531,0.0591,0.0767,0.0952,0.0953,0.0897,0.0953,0.1065,0.1177,0.129,0.1234,0.1234,0.1234,0.1346,0.1402,0.1346,0.1234,0.123,0.1226,0.1617,0.1622,0.17,0.1711,0.1718,0.1747,0.1775,0.1804,0.1777,0.1788,0.1789,0.1784,0.1784,0.179,0.1791,0.1793,0.1795,0.1795,0.1795,0.1795,0.1795,0.1795,0.1785,0.1818,0.1733,0.1705,0.1675,0.1647,0.162,0.1566,0.1566,0.1566,0.1566,0.1566,0.1566,0.1566,0.1566,0.1566,0.1566,0.1566,0.1566,0.1566,0.1566,0.1566,0.1566,0.1566,0.1465,0.1162,0.0909,0.0657,0.0303,0.0101,-0.0151,-0.0505,-0.0859,-0.1465,-0.2474,-0.313,-0.3533,-0.3835,-0.4085,-0.4336,-0.4585,-0.4684,-0.4782,-0.4782,-0.4782,-0.4782,-0.4782,-0.4782,-0.4782,-0.4782,-0.4782,-0.4782,-0.4782,-0.4784,-0.4734,-0.4686,-0.4585,-0.4435,-0.4286,-0.3885,-0.3281,-0.2725,-0.217,-0.1666,-0.1212,-0.0858,-0.0707,-0.0606,-0.0202,0.005,0.0152,0.0357,0.0517,0.0684,0.0802,0.0865,0.0991,0.1177,0.1121,0.1177,0.129,0.1402,0.1627,0.1683,0.1627,0.1739,0.1851,0.1963,0.2019,0.1963,0.1851,0.1851,0.1902,0.217,0.2171,0.2182,0.2187,0.2193,0.2023,0.1901,0.1718,0.1727,0.1731,0.173,0.173,0.1747,0.1817,0.1817,0.1776,0.1789,0.1795,0.1795,0.1795,0.1795,0.1795,0.1785,0.1821,0.1735,0.1705,0.1676,0.165,0.1623,0.1566,0.1566,0.1566,0.1566,0.1566,0.1566,0.1566,0.1566,0.1566,0.1566,0.1566,0.1566,0.1566,0.1566,0.1566,0.1566,0.1566,0.1465,0.1263,0.101,0.0707,0.0455,0.0252,-0.005,-0.0353,-0.0707,-0.1516,-0.2323,-0.3029,-0.3282,-0.3584,-0.3784,-0.3984,-0.4183,-0.4485,-0.4634,-0.4734,-0.4734,-0.4684,-0.4684,-0.4634,-0.4634,-0.4634,-0.4634,-0.4634,-0.4634,-0.4583,-0.4585,-0.4487,-0.4386,-0.4083,-0.3883,-0.338,-0.2826,-0.2323,-0.1768,-0.1313,-0.0909,-0.0505,-0.0252,-0.0151,-0.005,0.0151,0.0405,0.0612,0.0777,0.1001,0.1072,0.1198,0.133,0.1402,0.1514,0.1514,0.1627,0.1739,0.1851,0.1963,0.2019,0.2132,0.2188,0.2412,0.2468,0.2468,0.2468,0.2412,0.2411,0.2422,0.2422,0.2422,0.2422,0.2376,0.2297,0.2118,0.1984,0.1799,0.1704,0.1704,0.1705,0.1721,0.1803,0.1807,0.1821,0.1793,0.1795,0.1795,0.1795,0.1795,0.1795,0.1786,0.1774,0.1744,0.1713,0.1684,0.166,0.1628,0.1566,0.1566,0.1566,0.1566,0.1617,0.1566,0.1566,0.1566,0.1566,0.1566,0.1566,0.1566,0.1566,0.1566,0.1566,0.1566,0.1566,0.1566,0.1364,0.1061,0.0808,0.0556,0.0303,0.0,-0.0303,-0.0758,-0.1465,-0.1919,-0.2473,-0.2775,-0.2978,-0.3279,-0.3581,-0.3682,-0.3984,-0.4234,-0.4383,-0.4433,-0.4383,-0.4435,-0.4485,-0.4485,-0.4485,-0.4485,-0.4485,-0.4435,-0.4383,-0.4334,-0.4237,-0.3984,-0.3682,-0.3279,-0.2775,-0.2272,-0.1818,-0.1414,-0.0909,-0.0556,-0.0202,0.005,0.0151,0.0202,0.0303,0.0608,0.0866,0.109,0.127,0.14,0.1533,0.1556,0.1682,0.1795,0.1851,0.1795,0.1907,0.1963,0.2132,0.2356,0.2412,0.2468,0.2693,0.2917,0.2917,0.2859,0.2859,0.2915,0.2572,0.2573,0.2522,0.2623,0.2522,0.2526,0.2476,0.238,0.1984,0.1748,0.1799,0.1747,0.1813,0.1888,0.1844,0.1811,0.1835,0.179,0.1795,0.1795,0.1795,0.1795,0.1794,0.1787,0.1747,0.1718,0.169,0.1713,0.168,0.1667,0.1718,0.1617,0.1717,0.1768,0.1818,0.1768,0.1818,0.1818,0.1768,0.1768,0.1617,0.1566,0.1566,0.1566,0.1566,0.1566,0.1566,0.1364,0.1111,0.0859,0.0606,0.0353,0.0,-0.0252,-0.0859,-0.1212,-0.1566,-0.1868,-0.222,-0.2422,-0.2675,-0.2927,-0.313,-0.333,-0.3578,-0.4081,-0.4183,-0.4183,-0.4234,-0.4234,-0.4234,-0.4234,-0.4234,-0.4234,-0.4183,-0.4033,-0.3883,-0.3682,-0.3328,-0.3026,-0.2624,-0.2171,-0.1818,-0.1364,-0.0909,-0.0455,-0.0101,0.0202,0.0353,0.0455,0.0555,0.0606,0.076,0.1123,0.1466,0.1654,0.179,0.1873,0.1897,0.1962,0.2131,0.2075,0.1963,0.2132,0.23,0.2468,0.2637,0.2692,0.2803,0.3027,0.3195,0.3306,0.3307,0.3251,0.3251,0.363,0.3629,0.363,0.363,0.3528,0.3177,0.3029,0.2978,0.2442,0.2253,0.2249,0.2203,0.2122,0.2056,0.2029,0.2003,0.1871,0.1893,0.1793,0.1851,0.1851,0.1903,0.1844,0.1883,0.1795,0.171,0.1733,0.1809,0.188,0.192,0.2021,0.217,0.217,0.212,0.212,0.212,0.212,0.212,0.212,0.1918,0.1717,0.1617,0.1566,0.1617,0.1617,0.1667,0.1617,0.1566,0.1364,0.1111,0.0859,0.0505,0.005,-0.0252,-0.0455,-0.0707,-0.1061,-0.1364,-0.1565,-0.1817,-0.2119,-0.227,-0.2472,-0.2622,-0.2975,-0.363,-0.3934,-0.3934,-0.3934,-0.3934,-0.3883,-0.3883,-0.3883,-0.3883,-0.3883,-0.3632,-0.3432,-0.3078,-0.2723,-0.2371,-0.202,-0.1616,-0.1263,-0.0859,-0.0404,0.0,0.0404,0.0657,0.0758,0.0909,0.106,0.1111,0.1062,0.133,0.1735,0.1987,0.2126,0.2265,0.235,0.2412,0.2412,0.2356,0.2356,0.2468,0.2637,0.2748,0.2861,0.2971,0.3138,0.3306,0.3418,0.3475,0.3475,0.3475,0.3531,0.4332,0.4332,0.4234,0.4085,0.3934,0.3682,0.3531,0.3481,0.3228,0.3127,0.2976,0.2626,0.2343,0.2277,0.2255,0.2246,0.2125,0.2151,0.2227,0.2182,0.2012,0.2118,0.2049,0.2029,0.2097,0.2006,0.2019,0.2088,0.2173,0.2171,0.2271,0.2422,0.2422,0.2422,0.2422,0.2422,0.2422,0.2422,0.2422,0.227,0.1969,0.1969,0.1918,0.1969,0.1969,0.1919,0.1919,0.1869,0.1617,0.1313,0.101,0.0657,0.0303,0.0101,-0.0151,-0.0404,-0.0707,-0.0909,-0.106,-0.1262,-0.1564,-0.1665,-0.1766,-0.1917,-0.232,-0.2874,-0.2976,-0.3026,-0.3077,-0.3077,-0.3077,-0.3077,-0.3077,-0.3077,-0.3077,-0.2925,-0.2675,-0.2322,-0.2019,-0.1716,-0.1414,-0.106,-0.0707,-0.0455,0.0,0.0404,0.0808,0.1111,0.1212,0.1365,0.1516,0.1623,0.1629,0.1752,0.2166,0.237,0.2405,0.2603,0.2748,0.2693,0.2637,0.2637,0.2693,0.2805,0.2915,0.3027,0.3138,0.325,0.3306,0.3475,0.3531,0.3587,0.3587,0.3587,0.3587,0.4883,0.4836,0.4636,0.4437,0.4183,0.4183,0.4183,0.4133,0.4083,0.4083,0.3882,0.3077,0.2702,0.2571,0.2596,0.26,0.2533,0.2444,0.2529,0.2491,0.2331,0.2311,0.2347,0.2329,0.233,0.2337,0.2346,0.2382,0.2473,0.2473,0.2473,0.2472,0.2472,0.2522,0.2472,0.2522,0.2573,0.2623,0.2624,0.2573,0.2472,0.2422,0.2371,0.2371,0.2422,0.2422,0.2322,0.217,0.1919,0.1667,0.1263,0.0859,0.0556,0.0353,0.0101,-0.0151,-0.0303,-0.0505,-0.0656,-0.0757,-0.0909,-0.1061,-0.1111,-0.1363,-0.1766,-0.1917,-0.2069,-0.217,-0.227,-0.2422,-0.2422,-0.2422,-0.2422,-0.2321,-0.2321,-0.222,-0.1918,-0.1616,-0.1364,-0.1061,-0.0758,-0.0404,-0.0151,0.0101,0.0404,0.0808,0.1111,0.1414,0.1668,0.1822,0.1974,0.2149,0.2223,0.2412,0.2609,0.2703,0.2745,0.2942,0.3029,0.2918,0.2862,0.2973,0.3085,0.3139,0.325,0.3306,0.3362,0.3475,0.3587,0.3587,0.3587,0.3587,0.3587,0.3587,0.3587,0.5434,0.5434,0.5386,0.5336,0.5236,0.5039,0.4989,0.4939,0.4734,0.4535,0.4336,0.4185,0.3745,0.3099,0.3149,0.3038,0.2794,0.2716,0.2569,0.2474,0.2656,0.2586,0.2617,0.275,0.2487,0.2502,0.258,0.2576,0.2725,0.2775,0.2826,0.2978,0.3029,0.3029,0.3029,0.3029,0.2978,0.2978,0.2978,0.2928,0.2876,0.2725,0.2422,0.2422,0.2422,0.2422,0.2371,0.2371,0.2321,0.212,0.1717,0.1212,0.0859,0.0606,0.0404,0.0202,0.005,-0.0101,-0.0252,-0.0404,-0.0556,-0.0606,-0.0707,-0.0859,-0.1111,-0.1161,-0.1262,-0.1414,-0.1615,-0.2119,-0.2219,-0.2219,-0.2219,-0.1917,-0.1765,-0.1514,-0.1263,-0.0909,-0.0555,-0.0303,-0.005,0.0252,0.0556,0.0808,0.101,0.1364,0.1616,0.1919,0.212,0.2276,0.2435,0.2626,0.2769,0.285,0.2934,0.2986,0.3086,0.3286,0.3365,0.3253,0.3253,0.3419,0.3475,0.3418,0.3419,0.3475,0.3587,0.3587,0.3587,0.3587,0.3587,0.3587,0.3587,0.3587,0.3587]}]]